Date StartTime U_cm/s V_cm/s W_cm/s Ustd_cm/s Vstd_cm/s Wstd_cm/s Uvar_(cm/s)^2 Vvar_(cm/s)^2 Wvar_(cm/s)^2 KE_(m/s)^2 TurbulentKE_(m/s)^2 HorizWindSpeed_cm/s FrictionSpeec_cm/s DragCoef SpeedOfSound_m/s SonicTemperature_C Pressure_mb 
06/16/2013  00:00:00     -364.006      -46.020      -15.162      134.104       99.643       57.587    17983.763     9928.702     3316.288        8.303        1.561      366.904       72.169        0.039      343.056       18.896      861.197
06/16/2013  00:01:00     -351.400      -42.076      -31.072      110.440      113.975       58.707    12196.905    12990.344     3446.519        7.742        1.432      353.910       53.054        0.022      343.057       18.898      861.223
06/16/2013  00:02:00     -179.789       51.996      -14.051      128.986      103.286       55.459    16637.415    10667.987     3075.736        3.280        1.519      187.157       49.139        0.069      342.990       18.783      861.232
06/16/2013  00:03:00     -239.243      -39.324      -18.796       98.095       86.664       47.296     9622.555     7510.713     2236.954        3.925        0.969      242.453       46.944        0.037      342.996       18.792      861.227
06/16/2013  00:04:00     -196.109      -49.629      -12.511       87.119       71.313       50.030     7589.801     5085.485     2502.993        2.813        0.759      202.291       48.566        0.058      343.008       18.813      861.217
06/16/2013  00:05:00     -264.633      -96.946       -8.036       98.457       70.902       48.937     9693.711     5027.107     2394.859        4.830        0.856      281.832       51.863        0.034      342.953       18.720      861.236
06/16/2013  00:06:00     -258.963       -3.942      -25.316       83.541       71.761       36.020     6979.164     5149.639     1297.431        4.057        0.671      258.993       31.932        0.015      343.011       18.819      861.227
06/16/2013  00:07:00     -140.637      -37.420      -20.415       81.116       54.794       42.072     6579.823     3002.406     1770.090        1.647        0.568      145.530       48.604        0.112      342.931       18.685      861.225
06/16/2013  00:08:00     -188.675      -46.579      -20.989      124.918       68.807       50.595    15604.452     4734.393     2559.848        3.055        1.145      194.340       60.316        0.096      342.926       18.675      861.221
06/16/2013  00:09:00     -233.333      -37.418       -7.703      139.706      118.032       59.037    19517.740    13931.654     3485.404        4.641        1.847      236.314       53.394        0.051      342.963       18.740      861.213
06/16/2013  00:10:00     -203.663      -27.826      -12.720       90.675       61.310       42.173     8221.876     3758.860     1778.583        2.808        0.688      205.555       48.425        0.055      342.872       18.582      861.235
06/16/2013  00:11:00     -201.974      -47.604       -7.850       75.713       78.167       41.098     5732.456     6110.086     1689.078        2.832        0.677      207.509       37.537        0.033      342.900       18.631      861.226
06/16/2013  00:12:00     -334.354      -89.058       -9.233      156.281      110.564       57.716    24423.644    12224.479     3331.083        7.989        1.999      346.011       43.577        0.016      342.966       18.741      861.229
06/16/2013  00:13:00     -333.427     -134.329       -6.724      109.178      113.410       53.394    11919.880    12861.727     2850.886        7.844        1.382      359.469       50.638        0.020      342.943       18.703      861.233
06/16/2013  00:14:00     -426.020      -28.104      -24.589      131.248      136.086       64.912    17225.980    18519.461     4213.509       11.142        1.998      426.946       64.846        0.023      343.032       18.855      861.232
06/16/2013  00:15:00     -319.171     -103.396      -22.615      105.551       87.390       58.664    11141.097     7637.015     3441.451        6.764        1.111      335.501       49.574        0.022      342.993       18.789      861.244
06/16/2013  00:16:00     -269.895      -67.591      -15.597       77.916       71.302       42.442     6070.869     5084.020     1801.328        4.530        0.648      278.230       32.246        0.013      342.934       18.688      861.258
06/16/2013  00:17:00     -273.903      -27.934      -20.955      157.880       75.404       45.263    24926.010     5685.798     2048.696        5.444        1.633      275.324       60.384        0.048      342.924       18.672      861.272
06/16/2013  00:18:00     -303.680      -79.300      -14.077      102.088       81.868       51.608    10422.034     6702.395     2663.364        5.924        0.989      313.863       52.255        0.028      342.906       18.640      861.284
06/16/2013  00:19:00     -342.969      -42.527      -28.199      112.519       72.770       52.993    12660.574     5295.451     2808.300        7.049        1.038      345.595       54.009        0.024      342.950       18.715      861.281
06/16/2013  00:20:00     -283.300       -4.230      -27.228      111.082       68.531       41.384    12339.259     4696.495     1712.609        4.988        0.937      283.331       31.937        0.013      342.962       18.734      861.277
06/16/2013  00:21:00     -231.203      -22.445      -22.029       80.201       62.383       43.653     6432.250     3891.686     1905.567        3.333        0.611      232.290       41.317        0.032      342.890       18.613      861.294
06/16/2013  00:22:00     -173.285      -49.042      -12.966       91.740       61.736       39.230     8416.171     3811.355     1539.013        2.318        0.688      180.091       43.683        0.059      342.904       18.637      861.297
06/16/2013  00:23:00     -200.276      -31.696       -8.424       87.078       93.529       35.106     7582.519     8747.624     1232.404        2.937        0.878      202.769       30.560        0.023      342.846       18.539      861.290
06/16/2013  00:24:00     -224.220      -19.558      -13.516       84.259       66.104       41.895     7099.567     4369.754     1755.233        3.203        0.661      225.071       43.910        0.038      342.849       18.543      861.294
06/16/2013  00:25:00     -241.107     -103.232       -8.417       98.240       84.855       48.287     9651.176     7200.379     2331.676        4.402        0.959      262.277       46.793        0.032      342.834       18.517      861.289
06/16/2013  00:26:00     -250.269      -52.269      -23.997       77.708       62.885       41.873     6038.494     3954.521     1753.387        3.884        0.587      255.669       38.099        0.022      342.866       18.572      861.310
06/16/2013  00:27:00     -213.356      -97.566      -15.002       68.054       76.118       39.890     4631.336     5793.993     1591.238        3.364        0.601      234.606       26.975        0.013      342.852       18.550      861.317
06/16/2013  00:28:00     -200.436      -13.692       -1.943       90.477       79.098       49.405     8186.154     6256.552     2440.890        2.862        0.844      200.903       50.779        0.064      342.762       18.397      861.328
06/16/2013  00:29:00     -274.975       -4.116      -33.844       86.516       64.553       39.569     7485.064     4167.142     1565.723        4.499        0.661      275.006       35.573        0.017      342.824       18.499      861.342
06/16/2013  00:30:00     -218.272        8.042      -29.317       84.257       54.973       39.421     7099.213     3022.011     1554.011        3.012        0.584      218.420       42.162        0.037      342.878       18.593      861.338
06/16/2013  00:31:00      -53.098      -18.477       11.084       66.846       40.836       30.392     4468.336     1667.603      923.678        0.517        0.353       56.221       34.606        0.379      342.713       18.313      861.358
06/16/2013  00:32:00     -148.712      -48.463       -1.212       59.568       67.335       37.991     3548.338     4533.960     1443.287        1.699        0.476      156.410       30.161        0.037      342.786       18.437      861.371
06/16/2013  00:33:00      -65.286       23.028       -8.173       33.033       57.317       27.217     1091.178     3285.274      740.779        0.499        0.256       69.229       26.351        0.145      342.812       18.485      861.382
06/16/2013  00:34:00     -144.829       72.433      -20.759       58.976       66.414       37.874     3478.145     4410.781     1434.414        1.799        0.466      161.932       22.388        0.019      342.809       18.477      861.386
06/16/2013  00:35:00     -136.748      -55.256      -12.846       50.414       70.918       39.061     2541.575     5029.388     1525.790        1.551        0.455      147.490       25.753        0.030      342.813       18.486      861.404
06/16/2013  00:36:00      -67.784        8.946      -17.376       75.469       67.979       42.438     5695.637     4621.191     1801.013        0.854        0.606       68.372       30.369        0.197      342.804       18.471      861.404
06/16/2013  00:37:00     -157.855       37.179      -15.488       72.303       72.909       41.894     5227.654     5315.694     1755.089        1.942        0.615      162.174       28.819        0.032      342.815       18.487      861.420
06/16/2013  00:38:00      -86.591      -29.923      -11.941       68.156       54.888       33.248     4645.275     3012.687     1105.440        0.865        0.438       91.615       37.288        0.166      342.803       18.469      861.428
06/16/2013  00:39:00      -95.134       -8.848      -15.754       63.382       54.645       40.239     4017.333     2986.094     1619.202        0.900        0.431       95.545        5.519        0.003      342.794       18.451      861.433
06/16/2013  00:40:00      -76.179       53.799      -13.853       71.535      102.833       36.870     5117.284    10574.582     1359.376        1.297        0.853       93.261       35.995        0.149      342.749       18.374      861.443
06/16/2013  00:41:00     -120.480       47.304      -23.509       67.648       63.657       30.425     4576.268     4052.237      925.675        1.343        0.478      129.433       30.103        0.054      342.757       18.388      861.462
06/16/2013  00:42:00     -115.725       14.256       -2.767       84.316      101.078       51.784     7109.199    10216.852     2681.575        1.680        1.000      116.600       39.276        0.113      342.744       18.367      861.453
06/16/2013  00:43:00     -157.291       31.374      -17.945       58.156       68.351       35.957     3382.108     4671.806     1292.909        1.769        0.467      160.389       12.449        0.006      342.820       18.497      861.458
06/16/2013  00:44:00     -261.837      -51.488      -20.126       71.854       81.641       44.223     5163.017     6665.234     1955.692        4.270        0.689      266.851       33.764        0.016      342.858       18.557      861.474
06/16/2013  00:45:00     -167.499       17.546      -17.984       72.235       65.716       35.396     5217.924     4318.640     1252.880        1.974        0.539      168.415       29.467        0.031      342.927       18.678      861.485
06/16/2013  00:46:00     -117.312       55.083       -9.154       52.972       44.414       33.949     2805.996     1972.633     1152.540        1.140        0.297      129.600       31.509        0.059      342.895       18.623      861.493
06/16/2013  00:47:00     -149.332       52.297      -11.500       97.916       59.632       46.392     9587.593     3555.981     2152.214        2.023        0.765      158.225       45.270        0.082      342.972       18.754      861.482
06/16/2013  00:48:00     -198.331       37.222      -34.684       91.221       88.999       39.334     8321.255     7920.847     1547.149        2.985        0.889      201.793       28.548        0.020      342.983       18.772      861.485
06/16/2013  00:49:00      -66.663       31.701       -6.297       81.474       62.919       33.393     6638.031     3958.756     1115.065        0.860        0.586       73.817       27.225        0.136      342.866       18.575      861.486
06/16/2013  00:50:00      -86.735      -54.117       -2.985       66.226       66.114       30.624     4385.869     4371.017      937.827        1.008        0.485      102.233       22.675        0.049      342.783       18.433      861.491
06/16/2013  00:51:00     -103.557        5.876      -19.743       47.832       67.589       32.062     2287.921     4568.307     1027.944        0.951        0.394      103.723       19.585        0.036      342.874       18.590      861.500
06/16/2013  00:52:00     -129.601      -31.209      -16.412       78.183       96.617       51.910     6112.610     9334.903     2694.684        1.809        0.907      133.306       48.551        0.133      342.872       18.585      861.497
06/16/2013  00:53:00     -119.113       -7.359      -12.576       75.320       61.038       46.278     5673.165     3725.581     2141.628        1.297        0.577      119.340       17.725        0.022      342.850       18.546      861.492
06/16/2013  00:54:00      -67.991      -27.275      -10.897       48.889       52.988       28.696     2390.113     2807.775      823.458        0.575        0.301       73.258       23.089        0.099      342.897       18.629      861.484
06/16/2013  00:55:00      -78.007       -0.599        1.500       58.696       62.407       32.872     3445.217     3894.689     1080.558        0.725        0.421       78.010       30.781        0.156      342.900       18.631      861.483
06/16/2013  00:56:00     -117.584       69.991      -24.210       53.960       74.202       37.893     2911.635     5505.895     1435.915        1.458        0.493      136.838       34.622        0.064      342.932       18.687      861.478
06/16/2013  00:57:00     -116.866      -23.914      -13.593       55.304       83.174       29.107     3058.483     6917.989      847.194        1.262        0.541      119.287       28.783        0.058      342.792       18.451      861.480
06/16/2013  00:58:00     -156.464       -5.254      -19.843       66.110       67.513       40.944     4370.528     4558.023     1676.376        1.775        0.530      156.552       33.762        0.047      342.817       18.491      861.493
06/16/2013  00:59:00     -124.206       19.940      -17.394       70.780       88.849       44.901     5009.776     7894.180     2016.124        1.552        0.746      125.797       31.486        0.063      342.827       18.507      861.482
06/16/2013  01:00:00     -107.899      -15.587        9.886       80.581       42.999       42.700     6493.365     1848.938     1823.317        1.107        0.508      109.020       40.700        0.139      342.755       18.386      861.474
06/16/2013  01:01:00      -96.935      -12.037      -12.471       59.998       42.084       33.203     3599.775     1771.067     1102.465        0.808        0.324       97.679       20.820        0.045      342.749       18.375      861.481
06/16/2013  01:02:00     -168.280      -93.273      -16.369       72.882       62.525       38.014     5311.723     3909.315     1445.100        2.397        0.533      192.400       11.713        0.004      342.711       18.309      861.479
06/16/2013  01:03:00     -271.234       15.721      -12.910      101.045      102.077       39.865    10210.119    10419.811     1589.238        4.810        1.111      271.689       38.436        0.020      342.803       18.465      861.481
06/16/2013  01:04:00     -193.755      -34.432       -6.973       94.033       96.837       54.570     8842.202     9377.342     2977.859        2.998        1.060      196.791       54.310        0.076      342.800       18.461      861.471
06/16/2013  01:05:00     -248.750      -60.779      -14.442       69.702       54.287       39.085     4858.358     2947.122     1527.619        3.755        0.467      256.068       31.121        0.015      342.782       18.428      861.457
06/16/2013  01:06:00     -172.520      -16.611       -6.589       76.809       53.053       42.367     5899.677     2814.630     1794.966        2.029        0.525      173.317       45.882        0.070      342.743       18.363      861.461
06/16/2013  01:07:00     -213.849      -31.126      -19.423       75.468       69.027       44.693     5695.474     4764.684     1997.478        2.977        0.623      216.103       37.196        0.030      342.754       18.383      861.470
06/16/2013  01:08:00      -77.204       43.708       -6.524       44.242       56.363       34.085     1957.371     3176.831     1161.815        0.710        0.315       88.718       19.101        0.046      342.689       18.275      861.469
06/16/2013  01:09:00     -128.923      -10.392       -6.792       89.284       91.477       50.876     7971.710     8368.118     2588.332        1.785        0.946      129.341       56.220        0.189      342.698       18.288      861.472
06/16/2013  01:10:00     -219.253      -69.240      -13.699      105.030       63.871       47.172    11031.404     4079.543     2225.207        3.519        0.867      229.926       38.608        0.028      342.720       18.325      861.475
06/16/2013  01:11:00     -197.989       15.168      -18.608       85.516       93.546       43.960     7312.947     8750.905     1932.488        2.888        0.900      198.569       28.006        0.020      342.698       18.288      861.485
06/16/2013  01:12:00     -171.045      -34.608      -17.102       98.890       91.706       48.428     9779.179     8409.958     2345.278        2.564        1.027      174.511       46.662        0.071      342.772       18.412      861.480
06/16/2013  01:13:00     -113.972        1.683      -12.857       51.646       51.446       43.774     2667.329     2646.742     1916.137        1.019        0.362      113.985       29.602        0.067      342.727       18.339      861.486
06/16/2013  01:14:00     -172.332      -57.714      -22.974       51.443       42.368       31.025     2646.415     1795.026      962.544        1.948        0.270      181.740       25.054        0.019      342.695       18.282      861.500
06/16/2013  01:15:00     -133.154        4.629       -8.116       63.376       48.136       31.739     4016.536     2317.075     1007.381        1.258        0.367      133.234       32.400        0.059      342.702       18.294      861.505
06/16/2013  01:16:00     -104.289       -3.717       -9.814       51.785       74.032       34.778     2681.668     5480.718     1209.520        1.018        0.469      104.355       31.890        0.093      342.574       18.078      861.512
06/16/2013  01:17:00     -131.458      -14.513      -19.438       73.022       83.851       41.412     5332.256     7030.999     1714.927        1.597        0.704      132.256       24.640        0.035      342.693       18.280      861.513
06/16/2013  01:18:00     -105.338      -47.805        8.528       89.304       80.397       48.032     7975.199     6463.707     2307.049        1.510        0.837      115.678       44.889        0.151      342.658       18.220      861.513
06/16/2013  01:19:00     -133.115      -29.930       -2.304       54.886       63.681       34.974     3012.481     4055.300     1223.186        1.345        0.415      136.438       28.130        0.043      342.698       18.290      861.498
06/16/2013  01:20:00     -185.405      -46.180      -20.959       88.821      101.934       52.173     7889.130    10390.520     2722.057        2.897        1.050      191.070       28.244        0.022      342.819       18.494      861.496
06/16/2013  01:21:00     -292.009      -24.995      -38.463       99.733      115.053       54.096     9946.631    13237.201     2926.399        5.674        1.306      293.077       43.022        0.022      342.921       18.664      861.501
06/16/2013  01:22:00     -202.267      -66.090      -22.804       85.876       86.861       47.188     7374.742     7544.769     2226.690        3.147        0.857      212.791       27.335        0.017      342.870       18.579      861.509
06/16/2013  01:23:00     -163.657      -26.403      -12.753       88.796       63.040       42.434     7884.654     3973.979     1800.606        2.065        0.683      165.773       33.131        0.040      342.811       18.479      861.514
06/16/2013  01:24:00     -164.366      -16.787       -4.784       88.361       83.462       58.841     7807.679     6965.823     3462.231        2.277        0.912      165.221       52.045        0.099      342.766       18.403      861.521
06/16/2013  01:25:00     -181.366      -49.648      -10.988      138.519      109.166       55.242    19187.649    11917.271     3051.731        3.481        1.708      188.039       62.557        0.111      342.799       18.460      861.515
06/16/2013  01:26:00     -433.388      -15.651      -53.205      156.303      178.779       70.232    24430.767    31961.852     4932.599       12.610        3.066      433.671       70.473        0.026      343.064       18.908      861.492
06/16/2013  01:27:00     -280.464      -38.976      -25.661      101.320       77.598       42.165    10265.829     6021.412     1777.913        4.945        0.903      283.160       31.575        0.012      342.961       18.733      861.508
06/16/2013  01:28:00     -180.269       54.826      -44.253       57.130       89.795       54.071     3263.798     8063.115     2923.643        2.585        0.713      188.422       42.532        0.051      342.907       18.643      861.526
06/16/2013  01:29:00     -115.240       -8.703      -35.820       53.319       55.347       36.076     2842.952     3063.282     1301.510        1.092        0.360      115.568       28.538        0.061      342.892       18.618      861.547
06/16/2013  01:30:00     -123.568        0.150        2.082       68.459      102.438       45.422     4686.695    10493.617     2063.196        1.625        0.862      123.568       36.092        0.085      342.884       18.605      861.564
06/16/2013  01:31:00     -165.541      -62.080      -17.318       71.871       88.748       38.354     5165.391     7876.172     1471.033        2.303        0.726      176.798       36.358        0.042      342.874       18.588      861.573
06/16/2013  01:32:00     -225.497       97.691      -40.219       96.785       84.814       50.236     9367.278     7193.481     2523.628        4.054        0.954      245.749       57.443        0.055      342.985       18.773      861.577
06/16/2013  01:33:00     -160.816      -32.077       -9.842       74.841      101.596       44.326     5601.139    10321.765     1964.759        2.243        0.894      163.984       32.787        0.040      342.909       18.647      861.577
06/16/2013  01:34:00     -261.637      -80.004      -36.721       77.140       68.109       44.733     5950.535     4638.866     2001.071        4.439        0.630      273.595       32.071        0.014      342.934       18.686      861.591
06/16/2013  01:35:00     -227.164       86.195      -27.437       92.151       77.777       46.062     8491.821     6049.305     2121.666        3.822        0.833      242.967       33.225        0.019      342.820       18.495      861.643
06/16/2013  01:36:00     -161.263       -7.033       -5.475       92.923      110.001       50.681     8634.774    12100.164     2568.567        2.469        1.165      161.417       52.258        0.105      342.851       18.549      861.638
06/16/2013  01:37:00     -216.860      -35.762      -28.726       87.146       91.594       56.332     7594.350     8389.458     3173.273        3.414        0.958      219.789       38.785        0.031      342.944       18.705      861.618
06/16/2013  01:38:00     -131.767      -22.769       -1.575       72.241       66.838       38.230     5218.725     4467.312     1461.507        1.451        0.557      133.720       26.130        0.038      342.919       18.664      861.625
06/16/2013  01:39:00     -214.931        7.676      -14.557      110.671      110.069       46.342    12247.961    12115.290     2147.553        3.648        1.326      215.068       46.051        0.046      342.939       18.697      861.654
06/16/2013  01:40:00     -207.217       31.680       -8.022      110.081       62.148       39.643    12117.879     3862.376     1571.565        3.078        0.878      209.624       41.646        0.039      342.949       18.714      861.652
06/16/2013  01:41:00     -104.658      -25.359      -23.573       78.027       62.716       38.111     6088.174     3933.328     1452.463        1.181        0.574      107.686       37.171        0.119      342.922       18.670      861.659
06/16/2013  01:42:00     -150.854      120.538      -24.050       99.602       84.462       52.462     9920.579     7133.887     2752.308        2.883        0.990      193.097       58.594        0.092      342.916       18.658      861.634
06/16/2013  01:43:00     -177.744       53.605      -28.513       63.987       79.503       38.613     4094.296     6320.770     1490.951        2.359        0.595      185.651       30.371        0.027      342.951       18.718      861.631
06/16/2013  01:44:00     -113.097       -8.567      -15.529       96.546       55.265       45.395     9321.150     3054.168     2060.679        1.377        0.722      113.421       38.781        0.117      342.886       18.608      861.631
06/16/2013  01:45:00     -258.795      -40.083      -20.438      118.722       90.043       52.403    14094.980     8107.733     2746.080        4.697        1.247      261.880       37.310        0.020      342.921       18.665      861.648
06/16/2013  01:46:00     -174.724      -47.628       -9.047      107.600       98.486       49.577    11577.732     9699.519     2457.913        2.830        1.187      181.099       54.261        0.090      342.960       18.733      861.638
06/16/2013  01:47:00     -136.129       81.289      -18.793       64.282       77.101       44.296     4132.200     5944.513     1962.124        1.876        0.602      158.552       38.220        0.058      342.993       18.790      861.639
06/16/2013  01:48:00     -217.677      130.340      -26.995       85.289       69.442       47.003     7274.130     4822.146     2209.293        3.970        0.715      253.716       37.287        0.022      343.047       18.879      861.657
06/16/2013  01:49:00     -172.405      218.853      -22.579      106.531      106.436       60.727    11348.797    11328.546     3687.709        5.224        1.318      278.603       53.750        0.037      342.978       18.761      861.668
06/16/2013  01:50:00     -150.046       98.123      -20.517       84.932      156.463       49.946     7213.476    24480.580     2494.629        3.337        1.709      179.282       52.205        0.085      342.944       18.706      861.667
06/16/2013  01:51:00     -185.572       58.095      -17.267       98.043       67.827       49.337     9612.411     4600.529     2434.166        2.738        0.832      194.453       54.712        0.079      342.935       18.690      861.670
06/16/2013  01:52:00      -56.873       56.421        5.646       53.149       53.332       29.503     2824.829     2844.290      870.409        0.649        0.327       80.111       26.157        0.107      342.731       18.346      861.681
06/16/2013  01:53:00     -253.885       83.525      -30.489       80.136       56.723       41.882     6421.854     3217.466     1754.106        4.188        0.570      267.271       36.575        0.019      342.987       18.777      861.680
06/16/2013  01:54:00      -90.762       10.711      -19.675       53.041       45.788       33.699     2813.340     2096.559     1135.648        0.739        0.302       91.391       27.011        0.087      342.832       18.517      861.672
06/16/2013  01:55:00     -128.377       69.853      -18.627       74.746       57.974       32.185     5586.927     3361.042     1035.900        1.584        0.499      146.151       36.906        0.064      342.757       18.389      861.678
06/16/2013  01:56:00     -134.447      101.514      -14.476       82.542       83.544       42.297     6813.161     6979.651     1789.012        2.208        0.779      168.467       38.881        0.053      342.747       18.372      861.692
06/16/2013  01:57:00     -131.739       57.906      -23.501       57.805       66.436       30.778     3341.392     4413.782      947.314        1.498        0.435      143.903       28.837        0.040      342.719       18.324      861.701
06/16/2013  01:58:00      -84.216       55.943       -0.239       67.901       74.590       45.701     4610.498     5563.706     2088.617        1.124        0.613      101.104       37.711        0.139      342.646       18.201      861.684
06/16/2013  01:59:00     -177.075       53.943      -21.746       75.058       87.407       40.375     5633.660     7640.037     1630.172        2.482        0.745      185.109       32.027        0.030      342.701       18.292      861.681
06/16/2013  02:00:00     -191.275      102.003       -9.757      150.304       59.536       59.958    22591.143     3544.582     3595.012        3.840        1.487      216.774       72.469        0.112      342.682       18.259      861.684
06/16/2013  02:01:00     -171.430       34.433       -8.301       76.302       78.891       51.609     5821.919     6223.714     2663.509        2.267        0.735      174.854       46.638        0.071      342.684       18.264      861.680
06/16/2013  02:02:00     -218.531      -41.392      -23.834       80.334       57.664       30.939     6453.531     3325.109      957.229        3.038        0.537      222.416       14.934        0.005      342.631       18.174      861.685
06/16/2013  02:03:00     -146.887      -51.165       -9.292       84.540       77.256       38.339     7146.968     5968.518     1469.865        1.943        0.729      155.543       24.635        0.025      342.553       18.042      861.688
06/16/2013  02:04:00     -247.534      -64.329      -23.784      111.853       69.537       42.185    12511.106     4835.400     1779.534        4.255        0.956      255.756       45.095        0.031      342.600       18.120      861.676
06/16/2013  02:05:00     -205.477      -91.137      -18.551       79.865       67.435       42.919     6378.380     4547.466     1842.023        3.182        0.638      224.781       37.745        0.028      342.574       18.075      861.676
06/16/2013  02:06:00     -174.535      -49.740      -10.868       98.408       86.636       37.274     9684.047     7505.797     1389.376        2.581        0.929      181.484       22.142        0.015      342.582       18.090      861.663
06/16/2013  02:07:00     -125.695      -27.442       -1.234       59.205       63.282       34.503     3505.206     4004.557     1190.448        1.263        0.435      128.655       33.766        0.069      342.498       17.949      861.658
06/16/2013  02:08:00     -214.538      -41.675      -22.893       62.268       54.111       37.356     3877.270     2927.999     1395.505        2.824        0.410      218.549       35.958        0.027      342.461       17.882      861.654
06/16/2013  02:09:00     -231.069      -68.062      -25.253       74.644       62.491       40.471     5571.691     3905.181     1637.912        3.489        0.556      240.885       22.259        0.009      342.429       17.827      861.637
06/16/2013  02:10:00     -233.597      -28.644      -18.744       84.569       62.062       45.381     7151.941     3851.697     2059.456        3.440        0.653      235.347       40.512        0.030      342.388       17.759      861.633
06/16/2013  02:11:00     -227.366      -70.760      -27.450       78.670       64.484       42.567     6188.903     4158.174     1811.971        3.481        0.608      238.123       25.969        0.012      342.412       17.799      861.623
06/16/2013  02:12:00     -299.537      -87.037      -13.126      145.806       83.678       55.437    21259.403     7001.942     3073.290        6.440        1.567      311.926       65.633        0.044      342.458       17.879      861.609
06/16/2013  02:13:00     -196.568      -68.799       -6.128       72.530       88.585       43.575     5260.539     7847.259     1898.771        2.921        0.750      208.260       30.518        0.021      342.353       17.699      861.612
06/16/2013  02:14:00     -219.005      -15.642       -8.939       81.011       70.381       46.900     6562.810     4953.540     2199.577        3.100        0.686      219.563       38.831        0.031      342.409       17.795      861.621
06/16/2013  02:15:00     -272.172      -34.838      -21.701      100.789       83.864       43.981    10158.477     7033.116     1934.317        4.744        0.956      274.393       45.955        0.028      342.457       17.877      861.607
06/16/2013  02:16:00     -249.337      -46.441      -28.577       73.423       60.804       43.440     5390.937     3697.122     1887.076        3.806        0.549      253.625       37.977        0.022      342.507       17.962      861.601
06/16/2013  02:17:00     -262.847      -79.765      -17.159       73.536       71.989       45.490     5407.504     5182.360     2069.358        4.420        0.633      274.683       36.393        0.018      342.465       17.889      861.597
06/16/2013  02:18:00     -239.560      -66.945       -9.361       74.797       75.990       46.336     5594.535     5774.523     2146.990        3.773        0.676      248.739       37.655        0.023      342.438       17.844      861.604
06/16/2013  02:19:00     -186.677      -55.779       -1.172       99.418       71.029       48.414     9883.978     5045.093     2343.887        2.761        0.864      194.832       48.911        0.063      342.377       17.740      861.618
06/16/2013  02:20:00     -199.254      -70.299       -7.753       75.455       77.367       40.460     5693.444     5985.602     1637.024        2.901        0.666      211.292       29.500        0.019      342.413       17.803      861.626
06/16/2013  02:21:00     -221.061      -43.088      -16.107       86.502       70.211       43.878     7482.525     4929.645     1925.313        3.266        0.717      225.221       40.530        0.032      342.373       17.734      861.636
06/16/2013  02:22:00     -235.567      -72.653       -4.561       91.519       67.053       46.550     8375.636     4496.115     2166.904        3.791        0.752      246.516       49.019        0.040      342.398       17.777      861.631
06/16/2013  02:23:00     -195.810      -93.987       -0.626       91.304       50.214       35.012     8336.408     2521.411     1225.808        2.963        0.604      217.199       41.556        0.037      342.379       17.742      861.628
06/16/2013  02:24:00     -224.939      -42.043      -20.875       90.555       83.490       43.608     8200.212     6970.571     1901.653        3.493        0.854      228.835       46.663        0.042      342.362       17.717      861.642
06/16/2013  02:25:00     -174.960      -37.186       -6.162       78.968       99.344       39.449     6235.918     9869.243     1556.245        2.484        0.883      178.868       44.556        0.062      342.332       17.666      861.658
06/16/2013  02:26:00     -336.837      -62.170      -11.469      122.924       98.708       60.773    15110.231     9743.217     3693.348        7.300        1.427      342.527       61.640        0.032      342.444       17.856      861.661
06/16/2013  02:27:00     -263.245      -13.789      -19.212       90.993       77.416       45.688     8279.660     5993.179     2087.437        4.311        0.818      263.606       46.599        0.031      342.369       17.727      861.673
06/16/2013  02:28:00     -223.519      -61.577      -10.484       85.197       64.962       42.256     7258.596     4220.065     1785.535        3.356        0.663      231.845       40.008        0.030      342.401       17.782      861.683
06/16/2013  02:29:00     -252.052      -75.069      -21.762       79.175       68.251       48.863     6268.737     4658.237     2387.552        4.147        0.666      262.993       46.248        0.031      342.419       17.812      861.691
06/16/2013  02:30:00     -260.817      -68.640      -12.694       75.768       84.966       49.058     5740.848     7219.218     2406.650        4.413        0.768      269.698       39.697        0.022      342.395       17.772      861.694
06/16/2013  02:31:00     -221.598      -34.986      -16.055      101.933      100.605       43.028    10390.316    10121.382     1851.395        3.647        1.118      224.343       38.626        0.030      342.431       17.831      861.707
06/16/2013  02:32:00     -210.265      -19.838       -8.910       89.005       62.864       43.586     7921.977     3951.837     1899.701        2.923        0.689      211.199       39.269        0.035      342.351       17.697      861.715
06/16/2013  02:33:00     -238.745       50.677      -16.041       75.832       59.515       33.402     5750.518     3542.038     1115.666        3.511        0.520      244.064       27.223        0.012      342.405       17.787      861.721
06/16/2013  02:34:00     -214.358       -3.927      -17.923       77.773       84.971       40.384     6048.592     7219.992     1630.837        3.059        0.745      214.394       29.467        0.019      342.404       17.787      861.718
06/16/2013  02:35:00     -185.482        2.776       -0.328      143.088       90.552       44.267    20474.220     8199.749     1959.600        3.252        1.532      185.503       65.219        0.124      342.307       17.624      861.719
06/16/2013  02:36:00     -146.820      -58.344       -0.226       83.139       56.130       38.142     6912.144     3150.578     1454.816        1.824        0.576      157.988       44.999        0.081      342.305       17.621      861.723
06/16/2013  02:37:00     -128.092      -26.963       -9.080       75.001       38.364       32.129     5625.179     1471.816     1032.253        1.267        0.406      130.899       33.546        0.066      342.337       17.675      861.731
06/16/2013  02:38:00     -128.136      -30.769      -10.203       89.959       50.921       39.238     8092.686     2592.969     1539.614        1.484        0.611      131.778       44.815        0.116      342.234       17.499      861.719
06/16/2013  02:39:00     -142.984      -32.767       -3.920       64.603       55.891       36.667     4173.538     3123.853     1344.493        1.509        0.432      146.690       33.719        0.053      342.329       17.660      861.723
06/16/2013  02:40:00     -101.205      -43.800       -2.887      109.533       59.560       50.605    11997.525     3547.427     2560.867        1.513        0.905      110.277       52.500        0.227      342.242       17.514      861.715
06/16/2013  02:41:00     -189.597       -5.526      -17.690       71.166       96.219       37.237     5064.633     9258.059     1386.562        2.600        0.785      189.678       30.019        0.025      342.300       17.611      861.711
06/16/2013  02:42:00     -192.737      -54.313       -3.307       98.674       66.752       44.801     9736.632     4455.840     2007.153        2.815        0.810      200.243       52.061        0.068      342.267       17.554      861.707
06/16/2013  02:43:00      -95.276      -67.011      -16.111       75.327       55.294       35.785     5674.191     3057.457     1280.546        1.192        0.501      116.482       40.504        0.121      342.206       17.453      861.709
06/16/2013  02:44:00     -145.479      -39.884      -21.297       52.681       39.250       29.884     2775.336     1540.551      893.079        1.421        0.260      150.847       19.784        0.017      342.195       17.433      861.708
06/16/2013  02:45:00     -168.560      -32.793       -4.286       42.739       43.826       27.494     1826.637     1920.762      755.893        1.700        0.225      171.720       17.323        0.010      342.219       17.474      861.713
06/16/2013  02:46:00     -190.856        0.981      -18.559       52.782       51.064       34.485     2785.936     2607.504     1189.216        2.168        0.329      190.858       27.985        0.021      342.180       17.408      861.712
06/16/2013  02:47:00     -149.642      -37.314       -4.625       58.303       50.295       35.115     3399.234     2529.621     1233.093        1.548        0.358      154.224       33.073        0.046      342.155       17.367      861.709
06/16/2013  02:48:00     -129.857      -39.006      -18.263       47.597       46.667       31.651     2265.518     2177.835     1001.768        1.208        0.272      135.589       27.154        0.040      342.147       17.353      861.705
06/16/2013  02:49:00     -158.792      -46.762      -19.132       39.689       42.398       24.255     1575.211     1797.564      588.298        1.586        0.198      165.535       15.402        0.009      342.170       17.391      861.714
06/16/2013  02:50:00     -155.429      -28.110      -11.305       65.852       61.414       36.385     4336.520     3771.667     1323.875        1.725        0.472      157.950       36.241        0.053      342.085       17.248      861.712
06/16/2013  02:51:00     -143.838      -40.404      -10.097       35.081       44.085       27.677     1230.646     1943.481      766.010        1.318        0.197      149.405       18.940        0.016      342.156       17.369      861.708
06/16/2013  02:52:00     -116.339       -4.466      -11.263       63.063       57.306       31.366     3976.935     3284.001      983.800        1.096        0.412      116.425       31.562        0.073      342.141       17.342      861.699
06/16/2013  02:53:00     -147.812      -29.080      -21.224       77.981       64.059       33.039     6081.104     4103.537     1091.608        1.721        0.564      150.645       36.982        0.060      342.199       17.441      861.688
06/16/2013  02:54:00      -55.551       27.176       -6.349       24.254       30.542       21.924      588.238      932.816      480.648        0.293        0.100       61.842       11.082        0.032      342.068       17.218      861.682
06/16/2013  02:55:00      -49.226        7.679       -4.282       26.836       41.248       17.134      720.193     1701.399      293.591        0.261        0.136       49.821       13.327        0.072      341.958       17.032      861.678
06/16/2013  02:56:00      -77.046       20.877       -1.233       37.174       51.662       29.878     1381.904     2668.954      892.702        0.566        0.247       79.824       25.678        0.103      342.020       17.137      861.680
06/16/2013  02:57:00      -84.048       56.400       -9.691       30.664       44.235       25.174      940.251     1956.757      633.749        0.693        0.177      101.218       18.134        0.032      342.018       17.133      861.682
06/16/2013  02:58:00      -79.991       22.161       -6.253       41.436       25.988       26.111     1716.914      675.390      681.778        0.500        0.154       83.004       21.020        0.064      341.997       17.099      861.681
06/16/2013  02:59:00      -60.396       29.390        0.868       34.757       27.928       20.944     1208.074      779.946      438.645        0.347        0.121       67.168       13.470        0.040      342.011       17.123      861.690
06/16/2013  03:00:00      -49.547       12.896        2.454       29.467       52.940       28.597      868.320     2802.651      817.773        0.356        0.224       51.198       27.565        0.290      341.872       16.885      861.694
06/16/2013  03:01:00      -81.846       39.781       -8.695       46.379       23.384       16.321     2150.969      546.806      266.375        0.566        0.148       91.001       14.842        0.027      341.991       17.088      861.698
06/16/2013  03:02:00      -80.558       11.174      -12.707       34.933       23.483       18.573     1220.326      551.453      344.974        0.445        0.106       81.329       13.216        0.026      341.983       17.076      861.698
06/16/2013  03:03:00      -75.748       18.570      -12.552       35.128       31.646       26.634     1233.976     1001.482      709.372        0.459        0.147       77.991       19.703        0.064      341.968       17.050      861.705
06/16/2013  03:04:00      -75.747        5.047      -10.313       21.886       35.378       16.503      478.982     1251.600      272.337        0.394        0.100       75.915        7.489        0.010      341.945       17.010      861.711
06/16/2013  03:05:00      -84.156      -16.032       -1.903       51.302       36.396       22.854     2631.858     1324.657      522.305        0.591        0.224       85.669       13.695        0.026      341.958       17.033      861.716
06/16/2013  03:06:00     -111.970      -28.029      -14.893       33.383       45.920       21.410     1114.402     2108.623      458.391        0.861        0.184      115.425        9.392        0.007      341.988       17.083      861.725
06/16/2013  03:07:00     -148.396      -10.711      -18.758       53.184       43.931       26.443     2828.566     1929.936      699.217        1.397        0.273      148.782       25.853        0.030      341.887       16.911      861.731
06/16/2013  03:08:00     -123.385      -14.227       -7.772       39.620       46.567       24.073     1569.729     2168.518      579.500        0.990        0.216      124.203       17.958        0.021      341.864       16.873      861.725
06/16/2013  03:09:00     -131.634       24.025      -11.989       54.330       46.004       35.320     2951.714     2116.366     1247.521        1.218        0.316      133.809       26.800        0.040      341.919       16.964      861.708
06/16/2013  03:10:00     -110.470      -32.038       -3.032       52.654       27.070       27.870     2772.436      732.808      776.729        0.876        0.214      115.022       29.390        0.065      341.875       16.892      861.704
06/16/2013  03:11:00     -123.820      -49.485      -12.133       47.375       54.171       30.964     2244.398     2934.546      958.757        1.203        0.307      133.343       24.342        0.033      341.873       16.888      861.698
06/16/2013  03:12:00     -184.106      -18.153       -7.359       49.335       52.520       34.467     2433.920     2758.375     1187.956        2.033        0.319      184.999       29.859        0.026      341.895       16.924      861.692
06/16/2013  03:13:00     -110.096      -22.822       -5.092       57.614       41.922       32.213     3319.360     1757.435     1037.659        0.939        0.306      112.436       27.914        0.062      341.696       16.586      861.681
06/16/2013  03:14:00     -163.508      -20.090       -3.890       86.566       81.902       42.531     7493.654     6707.972     1808.854        2.158        0.801      164.738       49.007        0.088      341.813       16.783      861.674
06/16/2013  03:15:00     -157.564      -61.001       -0.553       54.196       34.522       27.212     2937.178     1191.774      740.510        1.671        0.243      168.960       25.630        0.023      341.820       16.798      861.661
06/16/2013  03:16:00      -77.610      -61.711       -0.081       55.903       45.381       35.364     3125.163     2059.439     1250.627        0.813        0.322       99.154       33.203        0.112      341.742       16.668      861.655
06/16/2013  03:17:00     -130.024      -78.941       -9.535       72.580       60.352       29.903     5267.796     3642.330      894.203        1.651        0.490      152.111       19.902        0.017      341.892       16.920      861.644
06/16/2013  03:18:00     -170.339      -50.751       -7.414       57.645       52.185       30.501     3322.976     2723.326      930.289        1.931        0.349      177.739       29.268        0.027      341.888       16.911      861.657
06/16/2013  03:19:00      -80.479      -69.335        6.778       74.381       48.475       37.369     5532.568     2349.864     1396.454        1.030        0.464      106.228       39.850        0.141      341.808       16.779      861.652
06/16/2013  03:20:00     -166.895      -47.652       -3.755       80.967       52.292       38.680     6555.659     2734.414     1496.138        2.046        0.539      173.565       39.421        0.052      341.883       16.904      861.649
06/16/2013  03:21:00     -110.328      -41.680       10.492       67.413       66.164       32.358     4544.512     4377.691     1047.021        1.199        0.498      117.939       27.890        0.056      341.813       16.786      861.642
06/16/2013  03:22:00     -129.706      -46.792       -2.971       92.464       53.075       37.881     8549.532     2816.932     1434.987        1.591        0.640      137.888       41.781        0.092      341.850       16.848      861.656
06/16/2013  03:23:00     -131.018      -35.254        5.347       83.473       44.035       28.017     6967.825     1939.093      784.966        1.406        0.485      135.678       17.023        0.016      341.912       16.952      861.676
06/16/2013  03:24:00      -99.615      -13.769        7.568       65.230       37.742       25.932     4255.009     1424.424      672.484        0.826        0.318      100.562       30.814        0.094      341.805       16.772      861.692
06/16/2013  03:25:00     -104.156      -52.103       -2.130       45.783       41.929       25.803     2096.062     1758.042      665.783        0.904        0.226      116.461       18.309        0.025      341.816       16.792      861.712
06/16/2013  03:26:00     -104.922      -23.693       -3.437       56.509       42.528       24.082     3193.290     1808.604      579.934        0.858        0.279      107.563       22.308        0.043      341.800       16.765      861.733
06/16/2013  03:27:00      -17.590      -23.621       10.661       30.389       23.927       17.629      923.509      572.515      310.765        0.139        0.090       29.451       17.457        0.351      341.742       16.665      861.758
06/16/2013  03:28:00      -28.261      -24.612       -3.445       45.401       24.616       24.451     2061.214      605.963      597.837        0.234        0.163       37.475       27.080        0.522      341.771       16.715      861.775
06/16/2013  03:29:00        5.584        1.961        9.302       17.946       17.278       12.868      322.042      298.541      165.578        0.045        0.039        5.918        9.534        2.595      341.537       16.319      861.778
06/16/2013  03:30:00        0.409        0.057       17.375       23.200       25.945       13.091      538.232      673.146      171.387        0.084        0.069        0.413       13.051      998.032      341.596       16.419      861.791
06/16/2013  03:31:00       45.016       29.801       27.130       20.936       20.671       16.248      438.321      427.306      264.011        0.239        0.056       53.986       12.165        0.051      341.418       16.117      861.811
06/16/2013  03:32:00       80.614       56.599       11.033       30.625       20.041       16.056      937.863      401.651      257.801        0.571        0.080       98.499       10.406        0.011      341.163       15.685      861.813
06/16/2013  03:33:00      123.547       79.731        9.798       47.088       34.145       27.529     2217.239     1165.894      757.857        1.293        0.207      147.040       15.732        0.011      340.972       15.363      861.802
06/16/2013  03:34:00      134.687       83.377       27.429       43.595       29.461       24.392     1900.501      867.957      594.985        1.460        0.168      158.406        8.847        0.003      340.883       15.211      861.817
06/16/2013  03:35:00      119.635       83.482       16.653       29.030       23.551       23.037      842.718      554.655      530.718        1.174        0.096      145.883       15.138        0.011      340.861       15.175      861.831
06/16/2013  03:36:00      119.806       68.672       23.351       18.755       11.891       14.062      351.738      141.395      197.731        1.015        0.035      138.092        8.186        0.004      340.889       15.221      861.835
06/16/2013  03:37:00       82.619       43.600       12.014       29.929       20.953       22.775      895.769      439.046      518.706        0.536        0.093       93.417       20.859        0.050      340.739       14.966      861.842
06/16/2013  03:38:00      100.135       64.883        6.720       24.699       18.080       17.033      610.016      326.899      290.128        0.775        0.061      119.318       12.774        0.011      340.710       14.919      861.844
06/16/2013  03:39:00      130.212       85.072       19.344       30.178       22.048       27.524      910.717      486.131      757.570        1.336        0.108      155.539       11.013        0.005      340.802       15.074      861.838
06/16/2013  03:40:00      102.256       23.626       14.434       63.064       46.892       37.133     3977.030     2198.860     1378.865        0.939        0.378      104.950       18.109        0.030      340.822       15.106      861.820
06/16/2013  03:41:00       45.736        7.088       25.260       37.063       32.824       21.287     1373.703     1077.382      453.148        0.284        0.145       46.282       19.872        0.184      340.735       14.961      861.826
06/16/2013  03:42:00       66.855       14.708       -1.875       25.101       21.765       16.361      630.064      473.704      267.687        0.303        0.069       68.454        9.441        0.019      340.835       15.129      861.850
06/16/2013  03:43:00       76.759       56.502       32.736       30.579       34.721       16.253      935.093     1205.552      264.147        0.628        0.120       95.313        9.857        0.011      340.740       14.969      861.857
06/16/2013  03:44:00      130.769       77.205       12.695       39.148       31.566       25.927     1532.533      996.439      672.219        1.321        0.160      151.859       23.030        0.023      340.789       15.051      861.854
06/16/2013  03:45:00       48.131       28.931       11.163       39.120       32.789       29.438     1530.370     1075.132      866.575        0.337        0.174       56.157       17.199        0.094      340.674       14.857      861.855
06/16/2013  03:46:00       10.881       37.719       -6.151       18.201       28.874       12.476      331.272      833.680      155.657        0.145        0.066       39.257       13.452        0.117      340.567       14.677      861.856
06/16/2013  03:47:00       44.984       34.601       -1.915       20.544       26.165       17.059      422.055      684.583      291.014        0.231        0.070       56.751       15.178        0.072      340.702       14.905      861.862
06/16/2013  03:48:00       44.542       -0.647       11.332       30.014       19.726       14.975      900.846      389.111      224.239        0.181        0.076       44.547       15.541        0.122      340.663       14.839      861.866
06/16/2013  03:49:00       47.156       12.583       16.332       42.251       26.124       21.036     1785.185      682.465      442.499        0.278        0.146       48.806       22.062        0.204      340.668       14.848      861.859
06/16/2013  03:50:00        6.866       16.447       35.505       15.557       21.225       12.885      242.023      450.483      166.035        0.122        0.043       17.822       13.618        0.584      340.623       14.772      861.865
06/16/2013  03:51:00       55.240      -21.603       10.485       21.572       26.322       14.002      465.331      692.840      196.056        0.249        0.068       59.314       11.022        0.035      340.947       15.319      861.874
06/16/2013  03:52:00        3.465      -12.360       17.172       14.957       20.408       11.820      223.699      416.492      139.718        0.062        0.039       12.836        7.664        0.356      340.798       15.069      861.874
06/16/2013  03:53:00       34.733        9.047       24.020       24.462       20.487       16.220      598.375      419.735      263.097        0.157        0.064       35.891       13.367        0.139      340.676       14.861      861.865
06/16/2013  03:54:00       27.221       14.248       25.861       30.364       17.958       20.193      921.943      322.500      407.741        0.163        0.083       30.724       17.564        0.327      340.733       14.958      861.858
06/16/2013  03:55:00       49.113       17.832        9.945       25.904       20.749       21.639      671.042      430.539      468.242        0.220        0.078       52.250       18.204        0.121      340.745       14.978      861.864
06/16/2013  03:56:00       20.977        8.171        2.744       15.679       20.304       18.104      245.827      412.257      327.742        0.075        0.049       22.512       10.625        0.223      340.679       14.867      861.866
06/16/2013  03:57:00       17.551       -0.152       10.257       19.165       20.242       11.819      367.289      409.753      139.683        0.066        0.046       17.552       11.770        0.450      340.680       14.869      861.871
06/16/2013  03:58:00       29.525       22.927        7.150       12.565        9.537       10.836      157.891       90.949      117.425        0.091        0.018       37.381        7.470        0.040      340.791       15.056      861.867
06/16/2013  03:59:00       12.388       11.991        4.986        7.916        6.401        9.163       62.659       40.975       83.952        0.025        0.009       17.241        5.705        0.110      340.741       14.971      861.866
06/16/2013  04:00:00       -2.218        5.716        1.728        7.691        4.885        3.737       59.157       23.861       13.967        0.007        0.005        6.131        2.367        0.149      340.677       14.863      861.864
06/16/2013  04:01:00       -8.744       -7.461        1.058        6.475        5.164        5.041       41.919       26.668       25.414        0.011        0.005       11.494        3.501        0.093      340.600       14.734      861.869
06/16/2013  04:02:00      -24.305       -9.021       -4.410       16.458        9.180        5.750      270.855       84.281       33.068        0.054        0.019       25.925        3.661        0.020      340.598       14.728      861.860
06/16/2013  04:03:00      -40.358      -14.991       -0.929       23.045       11.761        7.336      531.082      138.311       53.821        0.129        0.036       43.052        7.930        0.034      340.545       14.639      861.863
06/16/2013  04:04:00      -80.289      -53.436        1.249       26.016       26.092       17.018      676.847      680.804      289.626        0.547        0.082       96.446       15.057        0.024      340.485       14.539      861.896
06/16/2013  04:05:00       -7.231      -26.649        5.079       35.521       30.501       22.509     1261.731      930.315      506.640        0.174        0.135       27.613       13.053        0.223      340.432       14.448      861.930
06/16/2013  04:06:00        7.355       -3.354       15.598       21.798       37.974       15.465      475.172     1442.007      239.160        0.123        0.108        8.084       20.490        6.425      340.496       14.556      861.924
06/16/2013  04:07:00        6.152       30.604       47.028       20.829       24.711       17.971      433.849      610.650      322.945        0.228        0.068       31.216        8.997        0.083      340.465       14.505      861.923
06/16/2013  04:08:00        1.055       24.449       38.626       10.764       20.795       12.657      115.854      432.412      160.203        0.140        0.035       24.471       12.218        0.249      340.379       14.359      861.922
06/16/2013  04:09:00       22.698      -65.713       -5.168       18.901       40.737       13.333      357.259     1659.525      177.758        0.353        0.110       69.523       17.455        0.063      340.542       14.636      861.932
06/16/2013  04:10:00        2.231      -49.611      -14.397       16.350       29.863       13.827      267.337      891.806      191.197        0.201        0.068       49.661       11.939        0.058      340.669       14.848      861.948
06/16/2013  04:11:00        2.533       -7.464       11.377        9.974       24.991       12.199       99.472      624.567      148.822        0.053        0.044        7.882        9.932        1.588      340.595       14.723      861.939
06/16/2013  04:12:00      -19.557       31.441       41.464       12.034       19.543       17.306      144.818      381.919      299.483        0.196        0.041       37.027       13.126        0.126      340.526       14.608      861.940
06/16/2013  04:13:00       13.319       19.935       15.040       17.754       18.665       12.338      315.198      348.391      152.217        0.081        0.041       23.975        7.058        0.087      340.512       14.583      861.959
06/16/2013  04:14:00       63.110       36.278       16.662       27.854       16.773       11.723      775.827      281.317      137.428        0.339        0.060       72.794        9.783        0.018      340.372       14.350      861.954
06/16/2013  04:15:00       42.290       55.033       53.429       32.484       19.815       19.674     1055.181      392.618      387.080        0.475        0.092       69.405       11.645        0.028      340.408       14.408      861.926
06/16/2013  04:16:00      -12.948       17.074       48.514       13.045       34.074       24.784      170.180     1161.037      614.260        0.238        0.097       21.429       24.993        1.360      340.488       14.544      861.915
06/16/2013  04:17:00      -52.334       -0.946       -7.141       14.788       19.540       13.437      218.690      381.796      180.553        0.179        0.039       52.342        8.217        0.025      340.285       14.201      861.934
06/16/2013  04:18:00       16.372        9.582       -1.240       28.840       11.391       11.554      831.728      129.762      133.504        0.073        0.055       18.970       11.039        0.339      340.152       13.975      861.921
06/16/2013  04:19:00       47.483       13.909       13.110       46.796       29.025       23.869     2189.834      842.441      569.710        0.311        0.180       49.479       11.441        0.053      340.412       14.414      861.884
06/16/2013  04:20:00      -58.927       31.294       -8.972       41.796       39.698       19.559     1746.887     1575.916      382.572        0.412        0.185       66.721       19.794        0.088      340.221       14.090      861.911
06/16/2013  04:21:00      -77.121       28.941       -8.965       38.764       32.645       21.346     1502.613     1065.711      455.652        0.494        0.151       82.373       22.396        0.074      340.161       13.990      861.929
06/16/2013  04:22:00      -28.558      -25.145       -5.554       26.464       16.929       19.799      700.322      286.607      392.002        0.143        0.069       38.050       20.430        0.288      340.178       14.020      861.930
06/16/2013  04:23:00      -65.794      -18.081       -8.436       13.526       14.964        7.788      182.943      223.918       60.647        0.260        0.023       68.233        5.591        0.007      340.304       14.231      861.920
06/16/2013  04:24:00     -114.219      -16.808       -8.560       45.772       29.434       18.696     2095.095      866.382      349.554        0.836        0.166      115.449       16.804        0.021      340.081       13.854      861.940
06/16/2013  04:25:00      -88.709      -16.207      -12.793       28.461       20.056       12.360      810.022      402.242      152.772        0.483        0.068       90.177        9.347        0.011      339.888       13.532      861.959
06/16/2013  04:26:00      -80.916      -18.859       -5.203       30.077       20.915       16.935      904.625      437.436      286.784        0.428        0.081       83.084       14.545        0.031      339.818       13.413      861.950
06/16/2013  04:27:00      -33.119      -20.758        2.133       29.854       17.319       11.568      891.264      299.954      133.824        0.143        0.066       39.087       12.612        0.104      339.905       13.558      861.936
06/16/2013  04:28:00       15.327       -5.690       -1.475       22.549       18.053       10.553      508.460      325.924      111.356        0.061        0.047       16.350       11.030        0.455      340.042       13.791      861.931
06/16/2013  04:29:00      -41.864       28.864       -4.183       52.386       19.187       14.744     2744.339      368.157      217.381        0.297        0.166       50.850       23.159        0.207      340.104       13.895      861.946
06/16/2013  04:30:00     -118.091       39.772      -16.174       34.121       24.339       23.753     1164.252      592.367      564.188        0.905        0.116      124.609       20.126        0.026      339.853       13.471      861.977
06/16/2013  04:31:00      -73.561       21.760      -13.214       27.381       21.004       11.110      749.742      441.177      123.439        0.369        0.066       76.712        9.381        0.015      340.131       13.941      861.971
06/16/2013  04:32:00      -58.003       -5.716       -8.152       22.349       40.536       10.733      499.497     1643.187      115.189        0.286        0.113       58.284       14.174        0.059      340.223       14.095      861.972
06/16/2013  04:33:00      -93.784      -36.484       -6.486       34.816       30.277       17.096     1212.151      916.726      292.260        0.629        0.121      100.631       15.010        0.022      339.960       13.652      861.979
06/16/2013  04:34:00      -16.991       -3.625       -4.683       41.408       22.764       16.883     1714.604      518.187      285.048        0.142        0.126       17.373       18.468        1.130      339.816       13.409      861.964
06/16/2013  04:35:00        1.145       10.779       25.245       16.416       16.473       11.569      269.471      271.359      133.845        0.071        0.034       10.840        7.284        0.452      339.784       13.354      861.946
06/16/2013  04:36:00      -50.957      -13.348      -11.200       33.532       30.694       14.161     1124.373      942.123      200.522        0.258        0.113       52.676        8.483        0.026      339.951       13.637      861.958
06/16/2013  04:37:00      -83.935      -13.512        0.524       32.043       23.589       14.486     1026.765      556.454      209.836        0.451        0.090       85.016       13.680        0.026      339.787       13.360      861.983
06/16/2013  04:38:00      -73.286       13.996       -7.426       22.349       15.921       11.032      499.484      253.471      121.695        0.325        0.044       74.611        8.464        0.013      339.598       13.041      861.993
06/16/2013  04:39:00      -85.134        7.987       -9.189       21.376       15.454       11.451      456.940      238.814      131.116        0.411        0.041       85.508       10.094        0.014      339.853       13.473      862.015
06/16/2013  04:40:00      -89.148       19.494      -11.470       43.860       33.739       24.231     1923.681     1138.304      587.126        0.605        0.182       91.254       14.964        0.027      339.558       12.974      862.016
06/16/2013  04:41:00       -3.759       -2.992       -9.369       63.421       13.458       15.423     4022.187      181.107      237.876        0.228        0.222        4.805       26.752       31.002      339.653       13.135      861.993
06/16/2013  04:42:00       43.972       41.385        5.470       41.097       21.737       23.669     1688.954      472.495      560.221        0.320        0.136       60.384       15.545        0.066      339.939       13.616      861.967
06/16/2013  04:43:00      -41.208       13.560       15.383       22.235       19.429       26.501      494.378      377.471      702.290        0.185        0.079       43.382       22.485        0.269      339.778       13.346      861.965
06/16/2013  04:44:00     -118.166        7.667      -19.159       18.549       15.398        8.956      344.051      237.090       80.210        0.753        0.033      118.414        8.489        0.005      339.598       13.041      861.987
06/16/2013  04:45:00      -85.007      -30.597      -10.382       22.481       18.299       12.658      505.374      334.864      160.228        0.464        0.050       90.346        5.401        0.004      339.469       12.823      862.016
06/16/2013  04:46:00      -67.038       10.824       -9.514       41.169       30.734       18.739     1694.867      944.584      351.144        0.385        0.150       67.906       17.268        0.065      339.328       12.587      862.040
06/16/2013  04:47:00      -41.304       39.593       -9.977       24.638       19.542       15.104      607.047      381.872      228.116        0.229        0.061       57.215        7.782        0.019      339.568       12.990      862.037
06/16/2013  04:48:00      -52.305       -0.450       -9.191       29.850       30.315       10.371      891.043      919.003      107.563        0.237        0.096       52.307       11.911        0.052      339.649       13.127      862.044
06/16/2013  04:49:00      -41.183      -14.594        0.406       25.578       17.305       16.744      654.245      299.465      280.377        0.157        0.062       43.692       16.353        0.140      339.541       12.946      862.058
06/16/2013  04:50:00      -96.192      -21.496       -7.109       36.061       20.610       16.320     1300.406      424.774      266.354        0.588        0.100       98.565       15.485        0.025      339.582       13.015      862.068
06/16/2013  04:51:00     -180.150      -27.986       -9.842       66.912       36.328       29.986     4477.227     1319.723      899.153        2.001        0.335      182.311       30.280        0.028      339.304       12.543      862.091
06/16/2013  04:52:00     -148.324       35.896      -13.931       65.052       27.033       17.073     4231.779      730.779      291.488        1.437        0.263      152.606       19.100        0.016      339.397       12.703      862.130
06/16/2013  04:53:00       76.509       69.303       11.628       44.396       37.651       26.914     1971.027     1417.625      724.373        0.745        0.206      103.230       14.710        0.020      339.854       13.473      862.099
06/16/2013  04:54:00      137.771       63.467       28.436       38.212       28.193       33.143     1460.177      794.833     1098.486        1.358        0.168      151.686       26.347        0.030      339.871       13.502      862.063
06/16/2013  04:55:00       41.354       40.175        0.607       51.294       31.471       22.008     2631.077      990.436      484.371        0.371        0.205       57.655       20.028        0.121      340.099       13.885      862.091
06/16/2013  04:56:00      -93.082      -14.199      -19.827       42.879       47.216       20.514     1838.639     2229.384      420.807        0.687        0.224       94.158       10.668        0.013      339.483       12.846      862.117
06/16/2013  04:57:00     -171.440      -34.130       -7.323       51.004       49.249       29.798     2601.377     2425.470      887.944        1.826        0.296      174.805       23.578        0.018      339.351       12.623      862.134
06/16/2013  04:58:00      -52.092      -26.101       10.969       61.950       33.291       19.223     3837.774     1108.309      369.542        0.441        0.266       58.265       27.009        0.215      339.357       12.635      862.160
06/16/2013  04:59:00       15.302      -40.233        8.502       17.908       16.605       14.377      320.704      275.738      206.685        0.136        0.040       43.045       12.058        0.078      339.888       13.530      862.140
06/16/2013  05:00:00       -8.698      -12.171        6.529        8.501       16.058        9.621       72.266      257.844       92.560        0.034        0.021       14.960        6.125        0.168      339.889       13.531      862.133
06/16/2013  05:01:00      -43.760       19.931       -6.270       21.248       10.983        8.367      451.481      120.616       70.003        0.150        0.032       48.085        9.245        0.037      340.073       13.844      862.130
06/16/2013  05:02:00      -79.990       10.413      -12.937       12.543       13.317       10.527      157.316      177.344      110.819        0.356        0.022       80.665        7.064        0.008      339.871       13.501      862.137
06/16/2013  05:03:00      -34.143        0.275       -1.608       23.286        8.700        5.934      542.244       75.690       35.218        0.091        0.033       34.144        8.931        0.068      339.848       13.464      862.128
06/16/2013  05:04:00      -56.589      -15.566       -7.485       23.072       17.485       11.024      532.306      305.729      121.537        0.223        0.048       58.691        9.141        0.024      339.723       13.254      862.137
06/16/2013  05:05:00      -62.631      -28.581      -11.626       29.687       10.805        9.612      881.317      116.754       92.385        0.298        0.055       68.844        6.425        0.009      339.620       13.080      862.162
06/16/2013  05:06:00       -3.129      -20.542       -3.718        5.777       20.136        6.498       33.376      405.460       42.222        0.046        0.024       20.779        9.701        0.218      339.624       13.086      862.162
06/16/2013  05:07:00       -3.884        1.235       -7.002        6.699        5.437        4.490       44.882       29.560       20.157        0.008        0.005        4.075        3.145        0.596      339.641       13.113      862.156
06/16/2013  05:08:00      -54.495       -1.922       -7.189       36.486       12.290        8.175     1331.259      151.040       66.834        0.229        0.077       54.529        8.271        0.023      339.699       13.210      862.168
06/16/2013  05:09:00      -88.712       -3.867      -11.472       19.259        8.791       10.601      370.907       77.290      112.379        0.429        0.028       88.796        8.535        0.009      339.448       12.789      862.192
06/16/2013  05:10:00      -36.094        9.848       -9.198       13.176       12.869        7.178      173.601      165.624       51.527        0.094        0.020       37.413        5.556        0.022      339.411       12.725      862.182
06/16/2013  05:11:00      -65.866      -21.618      -10.472       36.017       18.894        8.284     1297.196      356.982       68.623        0.332        0.086       69.323        6.004        0.008      339.524       12.916      862.185
06/16/2013  05:12:00      -85.663      -62.345       -5.620       29.142       22.247       18.051      849.258      494.946      325.855        0.646        0.084      105.948       14.377        0.018      339.352       12.627      862.216
06/16/2013  05:13:00      -47.942      -27.883       -0.772       19.245       17.703       12.399      370.374      313.380      153.728        0.196        0.042       55.460       11.392        0.042      339.485       12.850      862.226
06/16/2013  05:14:00      -49.960       12.080       -1.520        7.352       10.009        4.418       54.047      100.174       19.519        0.141        0.009       51.400        3.101        0.004      339.703       13.217      862.223
06/16/2013  05:15:00      -49.891      -16.577      -12.273        7.530       12.597        7.394       56.696      158.685       54.666        0.159        0.014       52.573        3.275        0.004      339.575       13.003      862.231
06/16/2013  05:16:00      -38.390      -48.600      -12.944       21.718       18.498        8.456      471.686      342.172       71.511        0.244        0.044       61.933        8.277        0.018      339.580       13.010      862.251
06/16/2013  05:17:00      -40.627      -27.002       -4.993       15.103       12.053       10.170      228.098      145.284      103.435        0.144        0.024       48.781        7.865        0.026      339.660       13.145      862.259
06/16/2013  05:18:00      -12.262      -30.457        8.876       12.496        7.061        7.631      156.151       49.854       58.235        0.071        0.013       32.833        4.590        0.020      339.664       13.151      862.256
06/16/2013  05:19:00      -61.849      -10.702      -10.879        8.563        9.299        7.714       73.333       86.466       59.513        0.214        0.011       62.768        2.793        0.002      339.557       12.973      862.262
06/16/2013  05:20:00      -50.927       26.644      -11.870       19.161       21.495       11.426      367.130      462.039      130.546        0.220        0.048       57.476       11.173        0.038      339.417       12.737      862.280
06/16/2013  05:21:00      -48.298       13.212       -3.726       26.241       29.460       14.033      688.593      867.903      196.932        0.214        0.088       50.072        9.838        0.039      339.328       12.586      862.283
06/16/2013  05:22:00      -22.621      -10.705        5.742       42.186       20.984       20.132     1779.673      440.313      405.283        0.164        0.131       25.026       24.183        0.934      339.097       12.197      862.286
06/16/2013  05:23:00      -69.287      -47.725       -1.553       50.436       28.402       22.447     2543.825      806.655      503.876        0.547        0.193       84.133       18.571        0.049      339.069       12.150      862.307
06/16/2013  05:24:00      -63.565      -11.035       -6.677       28.531       30.341       15.230      813.996      920.599      231.938        0.309        0.098       64.515       13.631        0.045      338.969       11.981      862.333
06/16/2013  05:25:00      -21.363       -7.202       -4.119       28.047       17.209       15.713      786.636      296.159      246.884        0.093        0.066       22.544       12.922        0.329      338.984       12.008      862.326
06/16/2013  05:26:00       32.707       25.076       -2.292       15.635       14.243       14.327      244.464      202.869      205.275        0.118        0.033       41.213        8.864        0.046      339.252       12.458      862.304
06/16/2013  05:27:00        8.072      -17.498       -8.121       26.511       22.771       14.035      702.813      518.496      196.971        0.093        0.071       19.271       11.434        0.352      339.350       12.625      862.310
06/16/2013  05:28:00     -115.329      -19.160      -11.764       52.735       19.326       13.467     2781.014      373.491      181.360        0.857        0.167      116.909       14.630        0.016      339.116       12.230      862.340
06/16/2013  05:29:00     -176.020      -38.664       -6.650       52.954       36.288       26.520     2804.163     1316.840      703.310        1.867        0.241      180.216       27.673        0.024      338.889       11.848      862.373
06/16/2013  05:30:00      -95.279      -21.897       -8.104       36.875       29.787       15.514     1359.780      887.294      240.683        0.605        0.124       97.763        6.883        0.005      338.851       11.783      862.390
06/16/2013  05:31:00        1.905       24.812       -4.058       24.326       10.891        7.923      591.743      118.607       62.769        0.070        0.039       24.885        3.553        0.020      339.624       13.085      862.377
06/16/2013  05:32:00       15.819       -0.836        7.268       23.062       17.399       11.248      531.875      302.738      126.519        0.063        0.048       15.841       11.960        0.570      339.595       13.035      862.375
06/16/2013  05:33:00      -10.269        7.481       -0.044       19.992       11.418        7.697      399.695      130.379       59.249        0.038        0.029       12.705        8.297        0.426      339.569       12.993      862.382
06/16/2013  05:34:00      -52.631       -1.000       -4.453        9.425       13.984        6.534       88.836      195.551       42.699        0.156        0.016       52.640        5.761        0.012      339.458       12.805      862.394
06/16/2013  05:35:00      -20.666      -21.957       -2.498       14.291        9.001        6.472      204.228       81.016       41.885        0.062        0.016       30.153        5.762        0.037      339.317       12.567      862.406
06/16/2013  05:36:00      -26.312      -19.293        1.084       22.211       10.158        7.887      493.313      103.195       62.200        0.086        0.033       32.627        6.903        0.045      339.468       12.823      862.397
06/16/2013  05:37:00        4.755      -23.851        9.981       17.063       18.749       15.532      291.157      351.538      241.238        0.079        0.044       24.320        9.631        0.157      339.216       12.397      862.401
06/16/2013  05:38:00      -80.566      -35.834      -13.792       21.687       17.302       14.061      470.316      299.349      197.709        0.447        0.048       88.176       12.714        0.021      339.074       12.158      862.417
06/16/2013  05:39:00      -59.967       19.171      -11.252        8.133        9.009        6.464       66.149       81.165       41.789        0.214        0.009       62.957        3.101        0.002      339.192       12.355      862.422
06/16/2013  05:40:00      -81.160       13.641      -12.525       22.934       14.798        9.491      525.979      218.991       90.080        0.388        0.042       82.299        4.379        0.003      339.038       12.097      862.444
06/16/2013  05:41:00      -46.133       -0.523       -2.901       41.425       18.554       14.634     1716.046      344.246      214.153        0.221        0.114       46.135       12.577        0.074      338.876       11.825      862.460
06/16/2013  05:42:00      -49.924      -13.134       -6.978       27.718       21.069       14.295      768.313      443.921      204.343        0.206        0.071       51.622       15.439        0.089      338.934       11.925      862.465
06/16/2013  05:43:00      -87.152      -22.091       -1.335       14.298       22.260       15.406      204.422      495.516      237.353        0.451        0.047       89.908        6.893        0.006      338.892       11.852      862.495
06/16/2013  05:44:00      -32.791      -59.677        5.828       56.411       28.051       16.335     3182.233      786.850      266.836        0.445        0.212       68.093       23.143        0.116      338.810       11.715      862.500
06/16/2013  05:45:00        9.949      -27.100        5.037       19.284       16.530       14.053      371.860      273.233      197.494        0.085        0.042       28.868        9.949        0.119      338.997       12.030      862.489
06/16/2013  05:46:00       20.175       17.405        9.962       14.567       10.064       12.963      212.191      101.282      168.041        0.065        0.024       26.645        7.810        0.086      339.009       12.046      862.479
06/16/2013  05:47:00      -43.613       12.596       -6.589       26.010        6.955        5.348      676.498       48.366       28.596        0.143        0.038       45.396        7.520        0.027      339.175       12.328      862.506
06/16/2013  05:48:00      -93.194      -20.316      -13.190       22.578       29.260       15.101      509.746      856.127      228.037        0.543        0.080       95.383       12.821        0.018      338.825       11.739      862.540
06/16/2013  05:49:00      -15.844      -29.504       -3.569       38.263       24.770       14.164     1464.093      613.559      200.614        0.171        0.114       33.489       14.177        0.179      338.886       11.842      862.546
06/16/2013  05:50:00       -5.234       17.518       24.261       11.629       12.584       15.632      135.225      158.353      244.371        0.073        0.027       18.283       10.818        0.350      338.969       11.981      862.530
06/16/2013  05:51:00      -18.253      -26.564       -1.562       21.731       18.910       14.585      472.239      357.571      212.714        0.104        0.052       32.231        8.670        0.072      339.057       12.129      862.550
06/16/2013  05:52:00      -89.443       12.827      -11.514       37.132       24.018       18.227     1378.820      576.881      332.220        0.529        0.114       90.358       17.718        0.038      338.942       11.935      862.581
06/16/2013  05:53:00      -36.776       30.236       -6.798       31.778       33.696       20.429     1009.813     1135.441      417.336        0.244        0.128       47.610       20.262        0.181      338.803       11.703      862.582
06/16/2013  05:54:00      -52.584      -14.607      -11.288       18.853       15.265       12.913      355.450      233.026      166.742        0.193        0.038       54.575       10.954        0.040      338.850       11.781      862.583
06/16/2013  05:55:00      -74.519      -11.174       -9.170       19.714       17.376       12.352      388.649      301.921      152.575        0.330        0.042       75.352        9.639        0.016      338.895       11.858      862.609
06/16/2013  05:56:00       34.006       38.577       -5.042       64.185       30.362       16.728     4119.751      921.871      279.823        0.399        0.266       51.426       26.711        0.270      339.083       12.173      862.620
06/16/2013  05:57:00       93.461       36.743        8.105       62.216       44.279       24.950     3870.809     1960.590      622.512        0.830        0.323      100.424       17.173        0.029      339.158       12.299      862.588
06/16/2013  05:58:00     -113.683       -5.611       -9.994       61.094       46.510       32.321     3732.445     2163.186     1044.627        1.000        0.347      113.821       33.344        0.086      338.945       11.941      862.631
06/16/2013  05:59:00     -160.395      -18.403      -14.245       51.465       50.688       28.390     2648.676     2569.235      805.978        1.614        0.301      161.447       21.682        0.018      338.744       11.603      862.677
06/16/2013  06:00:00      -48.028       -4.794       -4.871       46.256       22.812       19.245     2139.616      520.397      370.374        0.269        0.152       48.266       23.095        0.229      338.932       11.920      862.685
06/16/2013  06:01:00       44.565       32.367        3.372       20.115       25.147       11.199      404.614      632.359      125.417        0.210        0.058       55.078       11.633        0.045      339.336       12.599      862.667
06/16/2013  06:02:00      118.585       89.808       34.951       25.212       16.874       17.043      635.627      284.728      290.462        1.228        0.061      148.755       11.979        0.006      339.415       12.732      862.650
06/16/2013  06:03:00       18.364       36.107       21.222       49.581       24.293       16.676     2458.228      590.171      278.103        0.271        0.166       40.508       21.752        0.288      339.290       12.523      862.679
06/16/2013  06:04:00       13.315       27.116        7.670       15.440       16.622       13.434      238.387      276.275      180.474        0.083        0.035       30.209        7.355        0.059      339.398       12.704      862.719
06/16/2013  06:05:00       34.338       46.958        6.685       23.504       14.365       12.382      552.440      206.357      153.312        0.217        0.046       58.173        7.442        0.016      339.376       12.668      862.723
06/16/2013  06:06:00      -12.432      106.517       -9.214       29.734       24.718       17.344      884.102      610.956      300.819        0.669        0.090      107.240       14.852        0.019      339.394       12.697      862.730
06/16/2013  06:07:00       47.600      115.777        1.176       78.241       24.907       23.241     6121.637      620.374      540.134        1.148        0.364      125.180       28.924        0.053      339.430       12.757      862.753
06/16/2013  06:08:00       87.801       66.396       24.557       65.991       46.268       37.989     4354.804     2140.750     1443.172        1.033        0.397      110.080       38.148        0.120      339.417       12.735      862.729
06/16/2013  06:09:00       47.972       45.375       23.402       27.464       31.124       24.436      754.288      968.708      597.121        0.361        0.116       66.032       13.094        0.039      339.383       12.679      862.763
06/16/2013  06:10:00       75.074       42.710       11.317       24.177       19.321       14.206      584.521      373.291      201.821        0.437        0.058       86.373        4.537        0.003      339.394       12.698      862.783
06/16/2013  06:11:00       41.998       40.332       19.027       12.005        9.859       14.657      144.117       97.206      214.817        0.210        0.023       58.228        6.160        0.011      339.443       12.781      862.807
06/16/2013  06:12:00       64.414       50.731       19.791       15.531       14.741       17.321      241.223      217.286      300.025        0.394        0.038       81.993       13.654        0.028      339.480       12.842      862.807
06/16/2013  06:13:00       58.371       37.278       -2.715       18.453       20.490       14.957      340.502      419.829      223.705        0.289        0.049       69.259        7.798        0.013      339.474       12.833      862.796
06/16/2013  06:14:00       60.524       39.856        8.064       21.815       12.094       17.304      475.873      146.276      299.438        0.312        0.046       72.469        7.509        0.011      339.465       12.818      862.792
06/16/2013  06:15:00       31.340       29.668       34.838       22.205       29.046       17.917      493.082      843.650      321.012        0.237        0.083       43.155       14.122        0.107      339.508       12.889      862.783
06/16/2013  06:16:00       43.751       46.138       36.099       30.382       28.597       24.257      923.076      817.767      588.381        0.384        0.116       63.584       16.457        0.067      339.532       12.928      862.778
06/16/2013  06:17:00       47.696       52.487       54.688       26.228       23.379       16.749      687.885      546.556      280.535        0.477        0.076       70.920        6.601        0.009      339.550       12.959      862.775
06/16/2013  06:18:00       58.634       51.920       25.127       30.805       31.169       23.091      948.929      971.494      533.183        0.461        0.123       78.317       16.687        0.045      339.501       12.877      862.780
06/16/2013  06:19:00       85.447       60.285       22.729       22.431       26.477       30.005      503.131      701.019      900.283        0.678        0.105      104.572       16.718        0.026      339.505       12.883      862.799
06/16/2013  06:20:00       80.684       63.605       14.101       24.685       26.372       23.801      609.336      695.491      566.487        0.631        0.094      102.740       12.015        0.014      339.458       12.804      862.801
06/16/2013  06:21:00       45.136       38.973        9.949       15.205       14.300       17.902      231.182      204.484      320.466        0.221        0.038       59.633        7.396        0.015      339.489       12.858      862.823
06/16/2013  06:22:00        4.538       28.978       -0.665       11.867       12.209       13.642      140.826      149.048      186.117        0.067        0.024       29.331       12.554        0.183      339.566       12.987      862.844
06/16/2013  06:23:00      -17.617       24.630       -0.464       14.532       19.738       11.566      211.170      389.574      133.779        0.083        0.037       30.282        8.393        0.077      339.428       12.753      862.853
06/16/2013  06:24:00       31.273       24.430        9.938       26.842       21.193       12.625      720.496      449.158      159.394        0.150        0.066       39.684       11.279        0.081      339.575       13.002      862.862
06/16/2013  06:25:00       89.018       67.850       28.894       14.386       27.640       23.964      206.966      763.992      574.271        0.745        0.077      111.928       21.064        0.035      339.396       12.700      862.853
06/16/2013  06:26:00       50.362       54.540       56.254       47.495       48.659       22.622     2255.765     2367.686      511.746        0.690        0.257       74.236       22.218        0.090      339.480       12.844      862.840
06/16/2013  06:27:00       -2.616      -24.105        6.220       11.244       16.823       13.637      126.426      282.998      185.971        0.061        0.030       24.247       10.732        0.196      339.596       13.037      862.865
06/16/2013  06:28:00       -1.972       -5.025       18.973        9.710        8.702        9.334       94.276       75.724       87.120        0.032        0.013        5.399        4.013        0.553      339.905       13.560      862.883
06/16/2013  06:29:00      -40.862      -26.800       -0.724       18.505       12.958       12.841      342.426      167.915      164.899        0.153        0.034       48.866        5.395        0.012      339.439       12.773      862.906
06/16/2013  06:30:00      -18.961      -19.301        0.990       17.535       11.094        9.525      307.492      123.077       90.733        0.063        0.026       27.057        8.265        0.093      339.575       13.002      862.921
06/16/2013  06:31:00       -1.220        3.078       18.910       15.079       13.956       17.244      227.368      194.777      297.363        0.054        0.036        3.311        9.639        8.475      339.932       13.604      862.913
06/16/2013  06:32:00        4.934       17.794       47.196       21.089       28.371       19.269      444.735      804.934      371.313        0.209        0.081       18.465       13.411        0.527      339.777       13.345      862.884
06/16/2013  06:33:00        3.541        4.485       36.130       25.255       41.718       25.909      637.799     1740.402      671.285        0.219        0.152        5.715       24.076       17.751      339.820       13.416      862.854
06/16/2013  06:34:00       44.220      -83.259      -16.568       41.521       37.433       29.794     1723.982     1401.206      887.674        0.659        0.201       94.273       25.465        0.073      339.861       13.486      862.879
06/16/2013  06:35:00       15.415      -33.371       16.261       25.532       46.291       24.268      651.870     2142.834      588.947        0.250        0.169       36.759       26.077        0.503      339.951       13.637      862.899
06/16/2013  06:36:00       -8.073        3.412       24.074       20.906       28.933       16.149      437.048      837.126      260.780        0.110        0.077        8.764       16.003        3.334      340.010       13.736      862.923
06/16/2013  06:37:00       11.815        9.505       17.047       28.031       25.972       24.608      785.731      674.552      605.551        0.129        0.103       15.164       12.943        0.729      339.965       13.661      862.947
06/16/2013  06:38:00       27.073       19.008       16.103       18.289       10.264       16.212      334.498      105.345      262.842        0.103        0.035       33.079        8.627        0.068      339.766       13.325      862.954
06/16/2013  06:39:00        6.984        8.998       10.810        8.221       11.962       12.023       67.579      143.090      144.541        0.030        0.018       11.391        9.349        0.674      340.091       13.873      862.933
06/16/2013  06:40:00       14.046      -12.883        1.095       16.285       35.632       19.579      265.196     1269.661      383.332        0.114        0.096       19.059        7.579        0.158      339.685       13.189      862.928
06/16/2013  06:41:00      -13.624       11.785       19.343       18.690       14.573       17.505      349.324      212.385      306.440        0.078        0.043       18.014        8.594        0.228      339.757       13.310      862.929
06/16/2013  06:42:00      -10.283        9.869        9.474       16.616       11.699       19.988      276.094      136.857      399.502        0.055        0.041       14.252       11.965        0.705      340.178       14.020      862.937
06/16/2013  06:43:00       -2.529       16.618       26.502       19.688       15.856       18.880      387.622      251.426      356.451        0.099        0.050       16.809        7.821        0.216      340.320       14.259      862.949
06/16/2013  06:44:00       -2.250       16.632       36.985       13.441       17.343       12.717      180.669      300.793      161.712        0.115        0.032       16.784        9.026        0.289      340.218       14.088      862.946
06/16/2013  06:45:00       -4.336       -5.060       27.919       23.466       25.482       17.855      550.634      649.339      318.801        0.117        0.076        6.663       12.380        3.452      339.975       13.677      862.971
06/16/2013  06:46:00      -28.056       -5.029       -0.987       26.063       17.459       14.011      679.299      304.821      196.320        0.100        0.059       28.503       11.048        0.150      339.985       13.694      862.976
06/16/2013  06:47:00      -50.341      -36.193        5.466       28.095       28.986       18.570      789.327      840.210      344.846        0.292        0.099       62.001       18.291        0.087      340.137       13.951      862.986
06/16/2013  06:48:00      -21.441      -17.587       10.069       25.705       15.087       17.486      660.773      227.622      305.758        0.103        0.060       27.731       16.242        0.343      340.288       14.206      862.986
06/16/2013  06:49:00      -16.022       -3.061       17.781       17.254       20.072       14.336      297.703      402.888      205.509        0.074        0.045       16.312       10.899        0.446      340.467       14.508      862.981
06/16/2013  06:50:00      -11.069       -5.275        8.430       13.956       17.257       13.169      194.770      297.793      173.418        0.044        0.033       12.261        4.280        0.122      340.251       14.144      862.980
06/16/2013  06:51:00      -10.883       19.652       17.978       15.596       16.623       19.610      243.227      276.317      384.552        0.087        0.045       22.464        9.683        0.186      340.305       14.234      862.973
06/16/2013  06:52:00       -6.485       34.366       62.991       18.021       27.977       17.527      324.759      782.719      307.182        0.330        0.071       34.972       15.560        0.198      340.540       14.631      862.965
06/16/2013  06:53:00        0.394       21.548       38.233       16.824       29.906       23.232      283.054      894.360      539.723        0.182        0.086       21.551       23.703        1.210      340.534       14.619      862.987
06/16/2013  06:54:00      -25.425       21.247       28.281       16.507       13.644       13.478      272.495      186.147      181.664        0.127        0.032       33.134       12.383        0.140      340.470       14.513      863.008
06/16/2013  06:55:00      -36.089       12.319        2.105       14.798       12.292        7.038      218.972      151.098       49.534        0.094        0.021       38.133        5.012        0.017      340.127       13.933      863.032
06/16/2013  06:56:00      -16.172        2.707        6.264       12.198        8.908       11.305      148.799       79.346      127.801        0.033        0.018       16.397        8.423        0.264      340.542       14.633      863.045
06/16/2013  06:57:00       -4.246        7.494       17.152       13.398       11.267       10.662      179.507      126.950      113.670        0.039        0.021        8.613        6.217        0.521      340.747       14.981      863.038
06/16/2013  06:58:00       -9.997       16.814       67.321       12.516       23.862       15.734      156.648      569.404      247.544        0.294        0.049       19.561       15.068        0.593      340.829       15.119      863.039
06/16/2013  06:59:00      -11.222       28.126       52.904       13.390       28.092       18.467      179.283      789.174      341.038        0.251        0.065       30.282       16.542        0.298      340.948       15.321      863.060
06/16/2013  07:00:00       17.574        9.535        7.672       22.632       13.447       16.148      512.192      180.830      260.759        0.071        0.048       19.994        8.080        0.163      340.653       14.822      863.071
06/16/2013  07:01:00       14.112       -0.590       18.700       17.710       15.847       16.026      313.649      251.141      256.843        0.069        0.041       14.125       12.293        0.757      341.156       15.673      863.077
06/16/2013  07:02:00       37.260       21.526       16.163       26.910       17.455       19.926      724.130      304.675      397.049        0.177        0.071       43.031       18.597        0.187      340.580       14.700      863.081
06/16/2013  07:03:00       44.046       22.158       -2.309       17.384       14.479       14.969      302.216      209.642      224.071        0.159        0.037       49.305       10.358        0.044      340.452       14.482      863.089
06/16/2013  07:04:00       47.255       24.405       17.303       21.096       17.012       17.764      445.032      289.398      315.556        0.209        0.052       53.185        7.528        0.020      340.638       14.798      863.094
06/16/2013  07:05:00       12.359       24.976       19.211       13.792       14.666       12.390      190.213      215.078      153.515        0.085        0.028       27.866        6.769        0.059      340.829       15.121      863.107
06/16/2013  07:06:00       21.899       15.707       16.230       23.894       12.387       13.721      570.931      153.440      188.265        0.095        0.046       26.949        8.416        0.098      340.949       15.323      863.131
06/16/2013  07:07:00       19.060       25.577       24.673       19.139       16.762       11.369      366.306      280.968      129.247        0.120        0.039       31.897        8.616        0.073      340.829       15.119      863.148
06/16/2013  07:08:00        0.330      -10.482       16.498        9.993       19.342       16.563       99.851      374.094      274.336        0.057        0.037       10.487        7.486        0.510      341.113       15.603      863.152
06/16/2013  07:09:00       -5.543        9.416       26.489       14.262       11.327       14.796      203.397      128.302      218.919        0.069        0.028       10.927       10.823        0.981      341.291       15.902      863.159
06/16/2013  07:10:00       33.287       55.048        7.779       24.673       31.967       20.083      608.749     1021.909      403.335        0.312        0.102       64.329       17.258        0.072      340.797       15.065      863.160
06/16/2013  07:11:00       23.483       27.488       11.324       36.265       23.665       21.657     1315.182      560.022      469.030        0.189        0.117       36.153       15.621        0.187      340.832       15.124      863.165
06/16/2013  07:12:00       60.938       30.688        3.894       27.869       26.327       18.353      776.690      693.124      336.847        0.324        0.090       68.229       11.026        0.026      340.658       14.830      863.162
06/16/2013  07:13:00       62.479       39.021       15.778       19.844       16.725       24.171      393.802      279.730      584.217        0.347        0.063       73.664       12.084        0.027      340.641       14.801      863.172
06/16/2013  07:14:00       33.873       22.286        3.163       26.520       18.371       22.925      703.332      337.491      525.568        0.161        0.078       40.547       10.485        0.067      340.600       14.733      863.188
06/16/2013  07:15:00       55.895       18.653       14.560       38.489       18.958       18.357     1481.378      359.407      336.970        0.293        0.109       58.925       19.395        0.108      340.664       14.840      863.198
06/16/2013  07:16:00       -1.446       11.541       16.176       16.758       18.912       21.908      280.821      357.675      479.969        0.076        0.056       11.632       16.940        2.121      341.249       15.831      863.202
06/16/2013  07:17:00       59.040       28.882       15.404       24.120       19.034       18.982      581.779      362.278      360.308        0.293        0.065       65.726        8.105        0.015      340.727       14.947      863.216
06/16/2013  07:18:00       51.667       31.239        6.436       31.233       32.407       24.070      975.497     1050.246      579.348        0.315        0.130       60.377       14.654        0.059      340.614       14.757      863.223
06/16/2013  07:19:00       26.313       39.154        1.957       14.335       23.440       21.514      205.502      549.441      462.853        0.172        0.061       47.174       16.861        0.128      340.728       14.949      863.222
06/16/2013  07:20:00       25.848       19.865       11.795       11.694       16.384       17.040      136.753      268.430      290.377        0.095        0.035       32.599       13.220        0.164      340.854       15.161      863.225
06/16/2013  07:21:00        7.314       19.172        5.909       12.609       14.326       17.030      158.974      205.224      290.024        0.055        0.033       20.520        9.156        0.199      341.244       15.824      863.235
06/16/2013  07:22:00       -3.342        7.350       16.928       22.838        8.657       12.400      521.560       74.940      153.750        0.055        0.038        8.074        6.077        0.566      341.089       15.560      863.253
06/16/2013  07:23:00      -12.090        5.319        7.249       16.498       13.237        9.173      272.197      175.217       84.152        0.038        0.027       13.209        5.454        0.170      340.931       15.292      863.266
06/16/2013  07:24:00      -19.641        0.350       -1.643       11.545        8.965        9.671      133.285       80.374       93.536        0.035        0.015       19.644        6.474        0.109      340.915       15.266      863.271
06/16/2013  07:25:00      -27.499       13.890        2.777       16.056       11.376       15.351      257.792      129.404      235.663        0.079        0.031       30.808       11.006        0.128      340.975       15.367      863.270
06/16/2013  07:26:00      -27.546       16.465      -12.209       18.906       18.035       14.281      357.450      325.271      203.946        0.103        0.044       32.092        8.667        0.073      340.833       15.126      863.279
06/16/2013  07:27:00       -8.175        5.203       16.313       20.987       15.639       13.786      440.458      244.580      190.052        0.062        0.044        9.690       12.512        1.667      341.463       16.193      863.287
06/16/2013  07:28:00       -2.380        2.744       16.965       14.996       12.663        9.001      224.874      160.358       81.020        0.038        0.023        3.632        5.595        2.373      341.441       16.157      863.290
06/16/2013  07:29:00      -14.435      -16.293       12.272       21.294       18.780       14.791      453.441      352.692      218.763        0.082        0.051       21.767       11.651        0.287      341.284       15.890      863.299
06/16/2013  07:30:00      -36.386      -31.858        2.503       13.270       13.079        6.010      176.096      171.067       36.125        0.136        0.019       48.362        5.406        0.012      340.852       15.158      863.301
06/16/2013  07:31:00       -9.632        3.503       31.780        9.714       11.335       16.287       94.365      128.486      265.267        0.080        0.024       10.250        6.641        0.420      342.468       17.900      863.308
06/16/2013  07:32:00       -1.449       -0.664       35.371        8.888        9.295        8.220       78.996       86.394       67.570        0.074        0.012        1.594        4.670        8.583      342.261       17.548      863.315
06/16/2013  07:33:00       -2.645       24.279       22.592       13.143       22.117       28.383      172.741      489.158      805.623        0.129        0.073       24.423       15.515        0.404      341.599       16.424      863.312
06/16/2013  07:34:00       20.164       28.510       17.126       15.670       12.627       13.673      245.549      159.448      186.951        0.105        0.030       34.920        7.141        0.042      341.033       15.464      863.314
06/16/2013  07:35:00        4.890       38.129       55.635       22.319       24.385       16.022      498.142      594.641      256.712        0.296        0.067       38.441       13.796        0.129      341.479       16.222      863.306
06/16/2013  07:36:00       -9.652        8.361       38.732        9.952       28.410       18.834       99.048      807.120      354.717        0.146        0.063       12.770       17.851        1.954      342.012       17.125      863.310
06/16/2013  07:37:00      -15.733      -17.626        1.771       10.970       10.019       14.432      120.339      100.379      208.290        0.050        0.021       23.626        8.021        0.115      341.227       15.795      863.323
06/16/2013  07:38:00       -4.990      -12.356       21.368       17.549       34.239       23.076      307.951     1172.329      532.500        0.132        0.101       13.326       23.045        2.991      341.709       16.610      863.323
06/16/2013  07:39:00        6.562       20.916       39.998       18.174       19.022       14.867      330.300      361.825      221.042        0.150        0.046       21.921       11.318        0.267      341.816       16.792      863.315
06/16/2013  07:40:00       -2.999       61.864       91.142       33.868       47.098       31.067     1147.051     2218.222      965.156        0.824        0.217       61.937       30.264        0.239      341.607       16.437      863.315
06/16/2013  07:41:00       60.420       54.959       50.709       38.334       36.324       25.900     1469.525     1319.447      670.823        0.635        0.173       81.676       19.973        0.060      341.228       15.796      863.331
06/16/2013  07:42:00       36.003       39.988       20.451       43.738       22.034       27.753     1912.994      485.499      770.228        0.324        0.158       53.807       26.102        0.235      341.191       15.732      863.348
06/16/2013  07:43:00       43.499       39.050       27.166       30.289       24.679       23.261      917.427      609.065      541.078        0.311        0.103       58.455       14.650        0.063      341.262       15.855      863.365
06/16/2013  07:44:00       60.067       22.399       16.443       38.970       38.474       20.800     1518.688     1480.262      432.638        0.391        0.172       64.108       10.957        0.029      341.364       16.026      863.372
06/16/2013  07:45:00       51.351       40.960       35.181       55.520       38.441       39.013     3082.438     1477.679     1522.045        0.582        0.304       65.686       28.073        0.183      341.389       16.067      863.376
06/16/2013  07:46:00       12.272       15.214       20.117       24.956       21.741       21.214      622.781      472.672      450.046        0.117        0.077       19.546       11.439        0.342      341.801       16.768      863.393
06/16/2013  07:47:00        0.374       12.335       35.941       14.781       25.125       11.617      218.484      631.276      134.961        0.121        0.049       12.341        9.239        0.560      342.130       17.325      863.410
06/16/2013  07:48:00       41.381       -5.816       25.484       36.063       34.758       29.046     1300.549     1208.091      843.666        0.287        0.168       41.787       23.396        0.313      341.617       16.456      863.418
06/16/2013  07:49:00       28.792      -15.369       22.205       36.940       51.322       40.614     1364.583     2633.926     1649.463        0.360        0.282       32.637       39.413        1.458      341.662       16.530      863.410
06/16/2013  07:50:00       -1.366       15.737       36.951       18.291       27.367       23.204      334.567      748.945      538.428        0.162        0.081       15.797       16.451        1.085      341.698       16.592      863.404
06/16/2013  07:51:00       20.212        3.889       42.016       28.239       36.936       22.320      797.418     1364.281      498.192        0.242        0.133       20.583       19.238        0.874      341.837       16.829      863.414
06/16/2013  07:52:00       25.900      -24.281       21.602       28.211       41.170       33.751      795.848     1694.940     1139.152        0.268        0.181       35.502       20.188        0.323      341.526       16.300      863.416
06/16/2013  07:53:00       50.731        4.710       33.845       37.224       27.701       29.160     1385.596      767.341      850.283        0.337        0.150       50.950       25.196        0.245      341.594       16.416      863.416
06/16/2013  07:54:00      -10.564       25.989       51.063       24.562       28.504       22.291      603.287      812.503      496.871        0.265        0.096       28.054       15.446        0.303      341.799       16.763      863.420
06/16/2013  07:55:00        5.360      -10.168       23.187       21.458       48.229       29.948      460.437     2326.025      896.860        0.218        0.184       11.494       26.894        5.474      341.590       16.409      863.424
06/16/2013  07:56:00       10.800      -17.968       38.063       19.598       42.371       18.148      384.068     1795.297      329.358        0.220        0.125       20.964       14.381        0.471      342.012       17.123      863.424
06/16/2013  07:57:00       13.952       26.483       17.648       25.664       31.981       20.339      658.658     1022.785      413.667        0.165        0.105       29.934       20.046        0.448      341.720       16.630      863.427
06/16/2013  07:58:00       82.626       85.712       15.100       29.521       29.345       20.174      871.501      861.104      406.974        0.827        0.107      119.053       11.726        0.010      341.216       15.775      863.431
06/16/2013  07:59:00       47.228       45.545       25.740       36.836       43.286       29.872     1356.905     1873.665      892.340        0.454        0.206       65.612       25.952        0.156      341.440       16.154      863.439
06/16/2013  08:00:00       39.140      -35.541       18.193       36.301       39.660       33.641     1317.752     1572.903     1131.734        0.357        0.201       52.868       27.881        0.278      341.320       15.950      863.450
06/16/2013  08:01:00        2.877       16.231       31.515       10.874       23.669       19.637      118.244      560.242      385.630        0.116        0.053       16.484       10.355        0.395      341.742       16.667      863.453
06/16/2013  08:02:00       -3.550      -39.614       20.659       15.993       39.046       24.580      255.780     1524.565      604.172        0.220        0.119       39.773       18.624        0.219      342.068       17.221      863.455
06/16/2013  08:03:00        4.360      -23.589       26.476       29.072       34.021       26.790      845.196     1157.425      717.729        0.200        0.136       23.989       12.333        0.264      342.030       17.156      863.445
06/16/2013  08:04:00       20.571        3.718       38.280       37.152       42.792       24.321     1380.306     1831.162      591.499        0.285        0.190       20.904       25.430        1.480      341.826       16.809      863.441
06/16/2013  08:05:00       49.625       56.445       54.670       45.759       57.678       30.371     2093.858     3326.778      922.405        0.749        0.317       75.157       12.126        0.026      341.622       16.464      863.441
06/16/2013  08:06:00       62.815       79.075       81.463       40.273       34.966       37.357     1621.935     1222.598     1395.511        1.054        0.212      100.988       18.566        0.034      341.480       16.222      863.441
06/16/2013  08:07:00       35.951       35.142       -0.070       21.971       19.763       14.628      482.711      390.571      213.968        0.181        0.054       50.273        9.462        0.035      341.537       16.318      863.459
06/16/2013  08:08:00       27.055       29.093        2.329       18.492       25.928       22.701      341.937      672.278      515.355        0.156        0.076       39.729       13.602        0.117      341.486       16.232      863.462
06/16/2013  08:09:00       41.672      -38.245        4.597       25.169       41.122       27.825      633.465     1690.997      774.232        0.316        0.155       56.562       14.776        0.068      341.524       16.298      863.452
06/16/2013  08:10:00       39.037      -32.115       19.387       45.946       53.548       37.430     2111.057     2867.341     1400.993        0.465        0.319       50.549       41.515        0.674      342.229       17.494      863.460
06/16/2013  08:11:00        2.748       23.807       38.349       23.270       26.410       20.402      541.479      697.481      416.245        0.185        0.083       23.965        8.676        0.131      342.525       17.997      863.466
06/16/2013  08:12:00       29.399       32.206       36.968       32.337       25.766       25.636     1045.657      663.873      657.187        0.282        0.118       43.606       12.697        0.085      341.841       16.835      863.473
06/16/2013  08:13:00       25.834       10.046       11.870       23.286       19.302       23.790      542.245      372.555      565.988        0.119        0.074       27.718       10.466        0.143      341.978       17.068      863.478
06/16/2013  08:14:00       19.841       14.781       37.976       26.545       30.291       22.931      704.616      917.566      525.845        0.210        0.107       24.742       16.167        0.427      342.257       17.540      863.479
06/16/2013  08:15:00       27.275       23.283       43.464       41.109       41.100       33.944     1689.958     1689.192     1152.215        0.385        0.227       35.862       25.296        0.498      342.039       17.169      863.484
06/16/2013  08:16:00       20.179        0.480       38.035       25.661       34.738       32.238      658.482     1206.750     1039.288        0.238        0.145       20.185       24.730        1.501      342.376       17.742      863.492
06/16/2013  08:17:00       12.883       16.940       43.889       34.099       27.187       23.910     1162.726      739.141      571.683        0.243        0.124       21.282       22.903        1.158      342.449       17.869      863.509
06/16/2013  08:18:00      115.384       50.698       31.325       44.437       47.587       36.260     1974.674     2264.540     1314.808        1.121        0.278      126.031       23.532        0.035      341.857       16.862      863.513
06/16/2013  08:19:00       50.209       26.767       12.479       38.264       23.203       34.772     1464.162      538.361     1209.098        0.330        0.161       56.898       22.519        0.157      342.407       17.795      863.526
06/16/2013  08:20:00       50.222       36.839       18.447       31.191       40.583       28.564      972.899     1646.966      815.894        0.383        0.172       62.284       14.345        0.053      342.402       17.788      863.540
06/16/2013  08:21:00       53.905       30.003       25.658       59.635       31.665       24.519     3556.284     1002.673      601.159        0.481        0.258       61.692       26.356        0.183      342.619       18.156      863.546
06/16/2013  08:22:00       25.186       15.927       24.556       41.918       30.488       21.953     1757.089      929.523      481.947        0.233        0.158       29.800       15.595        0.274      342.749       18.377      863.553
06/16/2013  08:23:00       55.075       28.561       41.909       41.834       59.962       35.244     1750.052     3595.459     1242.152        0.610        0.329       62.040       25.492        0.169      342.294       17.603      863.555
06/16/2013  08:24:00       49.316      -16.207       23.693       60.334       63.174       53.948     3640.223     3991.010     2910.341        0.690        0.527       51.911       48.627        0.877      342.379       17.748      863.570
06/16/2013  08:25:00       22.209       29.288       73.850       39.686       52.384       29.517     1574.962     2744.119      871.230        0.600        0.260       36.756       24.425        0.442      342.766       18.408      863.575
06/16/2013  08:26:00       35.665      -53.096       35.549       54.342       83.786       47.111     2953.042     7020.120     2219.443        0.877        0.610       63.963       41.305        0.417      342.508       17.968      863.584
06/16/2013  08:27:00       38.077      -23.367       23.012       53.065       74.929       52.505     2815.868     5614.375     2756.795        0.685        0.559       44.675       53.938        1.458      342.390       17.767      863.600
06/16/2013  08:28:00        7.490       24.852       57.571       35.224       42.200       28.392     1240.720     1780.874      806.085        0.391        0.191       25.956       31.271        1.451      342.365       17.723      863.604
06/16/2013  08:29:00       17.076      -13.287       37.244       42.471       45.309       36.233     1803.779     2052.906     1312.805        0.351        0.258       21.636       28.185        1.697      342.631       18.176      863.607
06/16/2013  08:30:00       20.046        2.661       44.120       38.172       47.917       39.566     1457.113     2296.052     1565.504        0.384        0.266       20.222       31.897        2.488      342.534       18.011      863.608
06/16/2013  08:31:00       18.543       28.176       53.310       30.606       30.356       22.506      936.710      921.486      506.500        0.317        0.118       33.730       18.021        0.285      342.263       17.550      863.620
06/16/2013  08:32:00      -12.101       19.035       50.073       25.060       40.998       29.977      627.984     1680.839      898.607        0.311        0.160       22.556       20.741        0.846      342.725       18.337      863.626
06/16/2013  08:33:00       14.753      -18.649       30.403       42.218       53.387       33.532     1782.320     2850.206     1124.423        0.362        0.288       23.779       34.542        2.110      342.729       18.344      863.630
06/16/2013  08:34:00       21.485       -0.732       29.658       36.789       33.293       27.394     1353.423     1108.428      750.441        0.228        0.161       21.498       24.318        1.280      342.461       17.887      863.639
06/16/2013  08:35:00       34.607      -44.160        2.912       36.526       53.590       40.518     1334.150     2871.835     1641.705        0.450        0.292       56.105       28.493        0.258      342.642       18.196      863.642
06/16/2013  08:36:00       18.002      -10.122       41.427       45.317       52.925       39.964     2053.590     2801.055     1597.104        0.430        0.323       20.653       31.334        2.302      342.826       18.508      863.657
06/16/2013  08:37:00       40.905       16.779       25.668       47.551       35.978       21.852     2261.051     1294.387      477.496        0.332        0.202       44.213       15.922        0.130      342.486       17.929      863.665
06/16/2013  08:38:00       23.941       34.586       42.267       46.613       38.131       29.071     2172.806     1453.942      845.099        0.401        0.224       42.064       18.866        0.201      342.723       18.332      863.675
06/16/2013  08:39:00       44.546       11.218       23.859       41.403       54.302       34.400     1714.174     2948.702     1183.386        0.426        0.292       45.936       20.610        0.201      342.716       18.322      863.670
06/16/2013  08:40:00      145.473       92.572       45.539       33.317       23.178       41.050     1110.055      537.237     1685.132        1.757        0.167      172.429       12.018        0.005      342.348       17.696      863.676
06/16/2013  08:41:00       71.559       55.812       24.955       42.332       32.395       31.865     1792.005     1049.441     1015.390        0.636        0.193       90.750       25.687        0.080      342.506       17.962      863.689
06/16/2013  08:42:00       26.311      -10.451       29.394       31.953       35.413       23.506     1021.006     1254.059      552.533        0.225        0.141       28.311       16.113        0.324      342.465       17.895      863.687
06/16/2013  08:43:00       14.275       21.929       18.971       25.705       23.239       28.264      660.763      540.069      798.860        0.152        0.100       26.166       15.705        0.360      342.727       18.340      863.696
06/16/2013  08:44:00       12.805       -1.737       22.246       35.352       32.007       27.890     1249.733     1024.446      777.856        0.186        0.153       12.922       22.316        2.983      343.176       19.105      863.695
06/16/2013  08:45:00       13.447       30.629       58.215       39.736       35.434       25.514     1578.987     1255.566      650.952        0.400        0.174       33.451       20.729        0.384      342.668       18.241      863.699
06/16/2013  08:46:00       25.069       38.549       54.513       44.546       46.475       33.417     1984.349     2159.933     1116.680        0.517        0.263       45.983       29.852        0.421      342.382       17.753      863.704
06/16/2013  08:47:00       50.767       12.887       21.518       25.370       27.848       25.309      643.645      775.501      640.560        0.263        0.103       52.377       13.489        0.066      342.377       17.745      863.710
06/16/2013  08:48:00       14.825      -18.848       18.148       23.337       28.218       24.859      544.606      796.237      617.971        0.143        0.098       23.980       17.135        0.511      342.738       18.359      863.711
06/16/2013  08:49:00       69.611      -43.706       13.104       65.080       74.136       44.504     4235.463     5496.076     1980.567        0.932        0.586       82.194       56.793        0.477      342.259       17.544      863.706
06/16/2013  08:50:00       52.315       21.094       36.746       52.971       56.325       39.366     2805.907     3172.457     1549.695        0.603        0.376       56.407       26.765        0.225      342.589       18.105      863.717
06/16/2013  08:51:00       22.250       43.534       52.309       39.334       39.927       24.619     1547.172     1594.155      606.101        0.444        0.187       48.890       15.726        0.103      343.092       18.961      863.718
06/16/2013  08:52:00      149.232       98.202       44.821       55.293       40.804       50.101     3057.361     1664.977     2510.107        2.058        0.362      178.644       29.941        0.028      342.314       17.636      863.722
06/16/2013  08:53:00      103.489       73.250       11.298       45.377       30.405       39.083     2059.072      924.449     1527.469        1.036        0.226      126.790       14.482        0.013      342.599       18.120      863.724
06/16/2013  08:54:00       62.000       54.631       15.031       36.737       32.963       33.672     1349.607     1086.539     1133.791        0.531        0.178       82.635       18.709        0.051      343.043       18.877      863.721
06/16/2013  08:55:00       50.822       39.522       13.517       35.511       24.718       25.181     1261.003      610.994      634.061        0.342        0.125       64.381       18.360        0.081      342.987       18.782      863.723
06/16/2013  08:56:00        9.157        8.372       45.111       18.137       15.365        9.868      328.949      236.073       97.375        0.143        0.033       12.407        6.704        0.292      343.697       19.993      863.725
06/16/2013  08:57:00       21.903      -17.251       22.268       35.847       35.206       31.663     1285.027     1239.431     1002.566        0.240        0.176       27.881       23.529        0.712      342.815       18.489      863.730
06/16/2013  08:58:00       21.221      -13.083       25.145       37.249       37.348       31.616     1387.519     1394.857      999.575        0.252        0.189       24.929       30.150        1.463      342.902       18.640      863.726
06/16/2013  08:59:00       29.988        4.510       52.121       56.623       61.722       44.485     3206.132     3809.566     1978.888        0.631        0.450       30.325       39.274        1.677      343.116       19.001      863.702
06/16/2013  09:00:00        2.153       23.603       64.050       37.947       55.438       38.578     1440.000     3073.357     1488.274        0.533        0.300       23.701       32.351        1.863      343.384       19.457      863.706
06/16/2013  09:01:00       14.483       81.789      102.039       43.435       66.373       48.673     1886.625     4405.346     2369.095        1.298        0.433       83.061       44.605        0.288      342.746       18.371      863.700
06/16/2013  09:02:00       -0.433       18.583       49.655       33.681       52.136       36.859     1134.426     2718.150     1358.604        0.401        0.261       18.588       33.699        3.287      343.017       18.833      863.717
06/16/2013  09:03:00      111.811      -87.730        5.177       57.412       60.551       50.505     3296.130     3666.426     2550.736        1.487        0.476      142.120       27.974        0.039      342.671       18.243      863.717
06/16/2013  09:04:00       36.986       -4.085       49.176       43.621       51.118       42.612     1902.828     2613.099     1815.777        0.507        0.317       37.211       33.513        0.811      343.235       19.205      863.720
06/16/2013  09:05:00       14.047      -78.490       10.722       46.029       45.822       48.584     2118.625     2099.677     2360.441        0.652        0.329       79.737       11.650        0.021      342.850       18.548      863.717
06/16/2013  09:06:00       -2.843       40.026       53.394       25.941       39.848       25.781      672.921     1587.836      664.666        0.369        0.146       40.127       15.398        0.147      343.284       19.288      863.704
06/16/2013  09:07:00       76.504       11.239       53.315       65.199       80.293       45.593     4250.851     6446.952     2078.725        1.080        0.639       77.325       43.974        0.323      343.016       18.830      863.718
06/16/2013  09:08:00       18.637       -2.430       28.689       37.076       40.635       26.823     1374.658     1651.193      719.482        0.246        0.187       18.794       14.318        0.580      343.682       19.968      863.706
06/16/2013  09:09:00        3.968      -17.495       15.652       31.902       54.444       34.814     1017.763     2964.127     1212.030        0.288        0.260       17.939       24.298        1.835      343.638       19.889      863.700
06/16/2013  09:10:00       24.197       22.041        8.293       35.917       59.026       35.771     1290.029     3484.028     1279.561        0.360        0.303       32.731       21.079        0.415      343.186       19.120      863.689
06/16/2013  09:11:00      118.900       63.286       15.737       38.805       37.327       29.648     1505.859     1393.306      878.998        1.108        0.189      134.694       15.285        0.013      343.080       18.941      863.694
06/16/2013  09:12:00      125.906       74.604       25.796       50.677       61.151       39.317     2568.127     3739.435     1545.851        1.497        0.393      146.350       21.073        0.021      343.121       19.009      863.686
06/16/2013  09:13:00      100.099       82.823       12.696       60.662       44.329       41.704     3679.923     1965.074     1739.196        1.221        0.369      129.921       29.212        0.051      343.134       19.032      863.666
06/16/2013  09:14:00      114.241       79.531       32.803       42.184       45.386       35.372     1779.494     2059.903     1251.193        1.277        0.255      139.199       20.234        0.021      343.080       18.939      863.661
06/16/2013  09:15:00       52.770       50.974       23.420       65.581       54.503       39.402     4300.855     2970.577     1552.484        0.738        0.441       73.369       20.386        0.077      343.570       19.775      863.649
06/16/2013  09:16:00      121.104      103.303        4.684       52.358       40.685       46.172     2741.362     1655.243     2131.873        1.594        0.326      159.178       27.162        0.029      343.175       19.102      863.644
06/16/2013  09:17:00       62.882       12.922        3.751       47.504       43.502       29.998     2256.648     1892.382      899.865        0.459        0.252       64.196       21.550        0.113      342.895       18.627      863.645
06/16/2013  09:18:00       73.222      -99.105      -10.119       42.057       27.998       23.916     1768.767      783.915      571.993        0.920        0.156      123.221       14.589        0.014      342.444       17.859      863.642
06/16/2013  09:19:00       29.376      -56.570       12.755       25.249       27.372       29.885      637.512      749.237      893.102        0.325        0.114       63.742       18.596        0.085      342.334       17.673      863.638
06/16/2013  09:20:00       31.133       15.100      -13.771       26.613       31.248       19.847      708.260      976.412      393.886        0.173        0.104       34.602        6.579        0.036      342.799       18.460      863.626
06/16/2013  09:21:00       45.309       24.376       12.365       40.539       35.581       28.055     1643.437     1265.978      787.089        0.325        0.185       51.450       15.063        0.086      343.152       19.064      863.625
06/16/2013  09:22:00       35.648       22.044       27.670       48.869       32.607       26.469     2388.209     1063.248      700.589        0.334        0.208       41.913       25.701        0.376      343.867       20.283      863.616
06/16/2013  09:23:00       27.531      -23.475       24.779       50.345       76.540       44.272     2534.594     5858.307     1960.041        0.614        0.518       36.180       49.331        1.859      343.864       20.277      863.609
06/16/2013  09:24:00       66.210      -79.689       -0.190       59.110       72.033       50.343     3493.971     5188.689     2534.419        1.097        0.561      103.605       52.402        0.256      343.657       19.924      863.611
06/16/2013  09:25:00       10.942        0.000       49.090       32.204       52.883       21.477     1037.074     2796.615      461.263        0.341        0.215       10.942       17.563        2.576      343.832       20.223      863.607
06/16/2013  09:26:00       20.831       25.559       42.276       37.855       34.501       28.523     1432.995     1190.286      813.546        0.315        0.172       32.973       24.824        0.567      343.412       19.506      863.608
06/16/2013  09:27:00       37.404      -52.388       30.620       41.172       66.113       38.682     1695.134     4370.987     1496.318        0.632        0.378       64.371       35.751        0.308      343.565       19.767      863.607
06/16/2013  09:28:00       14.573        9.206       40.619       39.825       57.228       43.864     1586.011     3275.052     1924.018        0.436        0.339       17.237       43.346        6.324      343.873       20.294      863.610
06/16/2013  09:29:00       15.770       34.794       60.063       31.167       52.826       33.611      971.370     2790.578     1129.731        0.498        0.245       38.201       20.073        0.276      343.581       19.795      863.604
06/16/2013  09:30:00       38.374       42.836       64.009       28.368       29.989       21.651      804.719      899.332      468.745        0.479        0.109       57.511        3.806        0.004      343.377       19.445      863.597
06/16/2013  09:31:00       22.527        1.708       28.922       38.751       57.582       34.435     1501.660     3315.665     1185.767        0.367        0.300       22.592       23.014        1.038      343.729       20.046      863.589
06/16/2013  09:32:00       23.880       -5.824       34.229       51.365       69.320       37.788     2638.333     4805.311     1427.921        0.532        0.444       24.580       35.979        2.143      343.677       19.957      863.573
06/16/2013  09:33:00       34.020      -13.223       16.961       44.888       52.455       51.869     2014.906     2751.515     2690.377        0.454        0.373       36.500       37.710        1.067      343.928       20.387      863.570
06/16/2013  09:34:00       68.889      -88.471        3.434       60.229       49.964       47.509     3627.550     2496.400     2257.062        1.048        0.419      112.129       45.970        0.168      343.699       19.996      863.567
06/16/2013  09:35:00       15.581       20.925       61.962       41.640       49.585       35.607     1733.899     2458.623     1267.851        0.499        0.273       26.089       28.379        1.183      344.117       20.708      863.567
06/16/2013  09:36:00       25.581       -8.999       28.946       56.146       47.588       36.400     3152.334     2264.633     1324.954        0.416        0.337       27.118       36.711        1.833      343.780       20.134      863.560
06/16/2013  09:37:00       -2.818      -15.135       23.180       38.674       51.194       28.321     1495.703     2620.817      802.085        0.285        0.246       15.395       27.269        3.137      343.797       20.164      863.555
06/16/2013  09:38:00       50.617     -132.601      -18.603       54.782       52.780       37.834     3001.044     2785.762     1431.398        1.385        0.361      141.933       31.814        0.050      343.658       19.924      863.557
06/16/2013  09:39:00       35.029      -42.558       10.031       37.411       54.780       41.151     1399.600     3000.863     1693.389        0.462        0.305       55.120       29.589        0.288      343.799       20.165      863.547
06/16/2013  09:40:00       31.315       14.906       40.636       36.990       26.419       31.386     1368.252      697.941      985.107        0.295        0.153       34.682       22.778        0.431      344.118       20.713      863.554
06/16/2013  09:41:00       70.489       45.932       32.744       39.947       36.804       33.961     1595.791     1354.539     1153.324        0.613        0.205       84.134       17.125        0.041      343.531       19.709      863.539
06/16/2013  09:42:00       62.264       61.989       46.095       58.518       63.858       37.348     3424.348     4077.790     1394.877        0.937        0.445       87.860       28.979        0.109      344.016       20.537      863.536
06/16/2013  09:43:00       82.920       50.306       29.528       59.075       41.214       47.276     3489.805     1698.609     2234.988        0.885        0.371       96.986       27.729        0.082      344.130       20.730      863.520
06/16/2013  09:44:00       57.204       46.720       -2.031       52.732       38.638       33.824     2780.715     1492.878     1144.034        0.544        0.271       73.858       23.021        0.097      344.059       20.610      863.526
06/16/2013  09:45:00       46.360       24.076       34.216       48.673       48.064       36.947     2369.104     2310.153     1365.088        0.497        0.302       52.239       23.929        0.210      344.422       21.231      863.511
06/16/2013  09:46:00       32.710      -35.015       23.504       79.523       63.554       46.530     6323.883     4039.101     2165.041        0.769        0.626       47.916       31.837        0.441      343.974       20.466      863.516
06/16/2013  09:47:00       35.240      -24.608       11.654       27.801       22.021       24.670      772.873      484.934      608.585        0.192        0.093       42.982       18.704        0.189      343.863       20.276      863.520
06/16/2013  09:48:00       10.963       -9.749       11.585       14.352       18.548       20.819      205.987      344.010      433.414        0.067        0.049       14.671       10.187        0.482      344.122       20.718      863.514
06/16/2013  09:49:00        8.267       -0.412       23.718       26.793       24.264       19.788      717.891      588.737      391.574        0.116        0.085        8.277       14.119        2.909      344.267       20.966      863.494
06/16/2013  09:50:00       -1.008      -13.289       22.550       20.082       12.363       14.581      403.280      152.834      212.620        0.073        0.038       13.328        5.494        0.170      344.448       21.275      863.488
06/16/2013  09:51:00      -12.303      -12.286       25.535       14.158       20.822       10.800      200.441      433.554      116.639        0.085        0.038       17.387        7.856        0.204      344.592       21.522      863.472
06/16/2013  09:52:00       40.364       16.040       23.551       44.514       20.184       21.876     1981.505      407.410      478.555        0.265        0.143       43.434       26.998        0.386      344.828       21.924      863.466
06/16/2013  09:53:00       26.321       -4.455        4.335       29.052       31.601       33.889      844.036      998.633     1148.460        0.186        0.150       26.695       18.438        0.477      344.356       21.119      863.444
06/16/2013  09:54:00       31.643      -45.369       -3.718       44.437       44.592       29.560     1974.616     1988.481      873.805        0.395        0.242       55.314       21.090        0.145      343.700       19.997      863.432
06/16/2013  09:55:00       43.731      -58.708       11.791       41.278       41.008       37.878     1703.900     1681.652     1434.740        0.516        0.241       73.205       32.536        0.198      343.710       20.015      863.412
06/16/2013  09:56:00        5.354       14.753       35.745       22.498       35.436       27.119      506.155     1255.731      735.425        0.201        0.125       15.694       21.263        1.836      344.290       21.004      863.409
06/16/2013  09:57:00       22.662      -73.488        9.296       43.208       52.371       35.935     1866.911     2742.688     1291.320        0.595        0.295       76.902       25.447        0.109      344.159       20.780      863.407
06/16/2013  09:58:00       30.123       14.112       38.589       33.079       26.980       30.290     1094.203      727.928      917.508        0.267        0.137       33.265       16.959        0.260      344.717       21.735      863.409
06/16/2013  09:59:00       42.570      -11.172       40.255       47.081       46.230       40.692     2216.658     2137.187     1655.863        0.478        0.300       44.012       33.820        0.590      344.561       21.468      863.405
06/16/2013  10:00:00       38.736        1.727       34.954       45.878       67.835       37.929     2104.803     4601.589     1438.600        0.543        0.407       38.775       38.380        0.980      344.423       21.232      863.396
06/16/2013  10:01:00       39.113     -101.512        6.715       34.170       73.324       34.577     1167.574     5376.464     1195.583        0.981        0.387      108.787       40.627        0.139      344.232       20.906      863.394
06/16/2013  10:02:00       33.115      -26.068       37.241       57.238       41.408       37.698     3276.139     1714.601     1421.155        0.479        0.321       42.144       28.194        0.448      344.771       21.827      863.389
06/16/2013  10:03:00       13.729       34.232       62.586       42.006       43.073       26.926     1764.476     1855.292      724.989        0.481        0.217       36.883       11.516        0.097      344.645       21.611      863.376
06/16/2013  10:04:00       57.328       78.442       74.125       70.838       46.339       28.657     5017.986     2147.292      821.196        1.146        0.399       97.158       19.289        0.039      344.502       21.368      863.393
06/16/2013  10:05:00      130.659       64.651       22.768       73.136       42.578       43.079     5348.807     1812.878     1855.832        1.539        0.451      145.779       27.701        0.036      344.196       20.842      863.387
06/16/2013  10:06:00       46.509       25.373       -4.573       37.460       29.139       31.595     1403.285      849.096      998.257        0.304        0.163       52.980       16.689        0.099      344.552       21.453      863.388
06/16/2013  10:07:00       58.637       32.672       36.047       59.974       44.606       36.142     3596.841     1989.703     1306.219        0.635        0.345       67.125       26.872        0.160      344.698       21.703      863.373
06/16/2013  10:08:00       19.574       40.763       -3.068       28.184       37.974       25.412      794.318     1441.993      645.790        0.247        0.144       45.219       15.857        0.123      344.732       21.760      863.354
06/16/2013  10:09:00       42.297       28.672       25.113       49.558       29.734       25.132     2456.018      884.110      631.624        0.361        0.199       51.100        8.016        0.025      345.268       22.680      863.347
06/16/2013  10:10:00       65.721       52.734        9.450       39.455       34.587       34.662     1556.708     1196.273     1201.469        0.557        0.198       84.262       20.769        0.061      344.502       21.368      863.324
06/16/2013  10:11:00       21.116       38.319       18.115       39.130       23.607       26.978     1531.192      557.269      727.830        0.253        0.141       43.752       16.972        0.150      345.317       22.763      863.326
06/16/2013  10:12:00       43.589       23.047       14.341       30.901       41.046       30.471      954.885     1684.751      928.511        0.310        0.178       49.307       20.539        0.174      344.596       21.529      863.321
06/16/2013  10:13:00      -15.113      -17.418       13.862       41.559       36.119       28.530     1727.115     1304.578      813.984        0.228        0.192       23.061       19.830        0.739      344.646       21.613      863.306
06/16/2013  10:14:00        5.310      -28.463       17.760       41.675       55.937       31.754     1736.813     3128.904     1008.339        0.351        0.294       28.954       29.708        1.053      345.043       22.293      863.300
06/16/2013  10:15:00       50.921        4.724       30.555       46.829       64.209       39.439     2192.935     4122.800     1555.421        0.571        0.394       51.140       34.892        0.466      344.753       21.797      863.293
06/16/2013  10:16:00       36.327      -22.143       13.254       41.209       32.158       26.815     1698.177     1034.155      719.028        0.272        0.173       42.543       19.236        0.204      344.529       21.413      863.299
06/16/2013  10:17:00       -0.458       11.147       29.694       37.276       32.789       29.823     1389.466     1075.140      889.421        0.218        0.168       11.156       12.760        1.308      345.125       22.434      863.288
06/16/2013  10:18:00       64.806      -78.076       15.146       64.008       79.731       54.438     4097.080     6357.002     2963.489        1.197        0.671      101.468       46.116        0.207      344.530       21.415      863.284
06/16/2013  10:19:00       61.217     -146.745       -1.496       62.537       90.239       52.779     3910.862     8143.075     2785.577        2.006        0.742      159.002       52.675        0.110      344.576       21.492      863.275
06/16/2013  10:20:00       73.521     -195.231      -17.170       38.308       36.676       31.858     1467.520     1345.106     1014.951        2.382        0.191      208.616       25.115        0.014      344.277       20.979      863.279
06/16/2013  10:21:00       56.096      -84.352        4.347       61.392       66.414       42.119     3768.931     4410.861     1774.016        1.012        0.498      101.302       44.824        0.196      344.805       21.885      863.270
06/16/2013  10:22:00       13.429      -59.391       33.623       42.693       59.957       42.489     1822.728     3594.868     1805.317        0.603        0.361       60.891       34.424        0.320      344.956       22.144      863.271
06/16/2013  10:23:00       43.333     -169.016      -21.654       61.050       60.694       50.631     3727.076     3683.793     2563.502        2.044        0.499      174.483       41.339        0.056      344.799       21.873      863.253
06/16/2013  10:24:00       35.617      -89.178       16.367       56.756       72.488       52.015     3221.265     5254.566     2705.536        1.033        0.559       96.028       49.588        0.267      345.050       22.304      863.255
06/16/2013  10:25:00       33.244       19.385       31.038       41.892       74.701       39.271     1754.904     5580.239     1542.204        0.566        0.444       38.483       37.268        0.938      344.840       21.944      863.258
06/16/2013  10:26:00       65.420      -40.798       34.163       72.433       75.927       56.812     5246.569     5764.905     3227.586        1.067        0.712       77.099       46.039        0.357      345.094       22.379      863.257
06/16/2013  10:27:00       51.576       61.566       94.244       77.569       85.981       56.532     6016.934     7392.695     3195.824        1.597        0.830       80.315       61.052        0.578      345.066       22.330      863.245
06/16/2013  10:28:00       48.460       42.165      109.072       73.081      111.501       79.918     5340.824    12432.402     6386.860        2.009        1.208       64.236       83.862        1.704      344.954       22.139      863.240
06/16/2013  10:29:00       61.415      -22.115       20.328       59.129       52.075       41.407     3496.200     2711.764     1714.569        0.630        0.396       65.275       28.680        0.193      344.689       21.687      863.277
06/16/2013  10:30:00       51.227      -25.062       35.323       44.351       48.723       40.508     1967.029     2373.901     1640.864        0.524        0.299       57.028       33.637        0.348      344.655       21.628      863.275
06/16/2013  10:31:00      143.745      100.601       13.074       50.620       27.329       32.923     2562.370      746.853     1083.921        1.767        0.220      175.451       22.193        0.016      344.419       21.225      863.272
06/16/2013  10:32:00       59.778       54.719       14.163       48.037       26.253       28.048     2307.585      689.239      786.677        0.528        0.189       81.041       14.012        0.030      344.549       21.448      863.282
06/16/2013  10:33:00       14.959       58.095       19.931       36.002       42.379       31.058     1296.117     1796.010      964.575        0.403        0.203       59.990       23.437        0.153      345.216       22.589      863.278
06/16/2013  10:34:00        8.997       45.267       22.184       41.777       73.958       38.560     1745.331     5469.826     1486.864        0.566        0.435       46.152       31.604        0.469      345.105       22.397      863.282
06/16/2013  10:35:00       17.226      -25.035        1.553       24.002       31.451       26.170      576.077      989.151      684.888        0.159        0.113       30.389       19.961        0.431      344.833       21.933      863.271
06/16/2013  10:36:00      -10.762      -15.483       14.874       40.823       34.154       32.419     1666.546     1166.476     1051.023        0.223        0.194       18.856       27.986        2.203      345.112       22.411      863.286
06/16/2013  10:37:00      -11.881      -15.430       14.994       41.560       29.712       32.545     1727.201      882.820     1059.154        0.214        0.183       19.474       23.003        1.395      345.161       22.496      863.281
06/16/2013  10:38:00       19.858      -59.355       -5.590       28.582       39.006       31.945      816.942     1521.448     1020.489        0.365        0.168       62.589       24.803        0.157      344.669       21.653      863.293
06/16/2013  10:39:00       45.175       -6.088       11.426       39.232       35.791       26.334     1539.141     1281.029      693.482        0.286        0.176       45.584       24.256        0.283      344.736       21.768      863.287
06/16/2013  10:40:00       12.276       59.898       94.436       55.350       52.466       45.326     3063.665     2752.685     2054.430        1.026        0.394       61.143       41.155        0.453      344.833       21.933      863.285
06/16/2013  10:41:00       28.728       -6.765       60.836       47.916       57.238       39.023     2295.965     3276.150     1522.763        0.583        0.355       29.514       34.790        1.390      345.177       22.523      863.282
06/16/2013  10:42:00       37.319       26.413       25.764       70.953       48.758       25.819     5034.304     2377.295      666.621        0.541        0.404       45.721       20.323        0.198      345.153       22.481      863.279
06/16/2013  10:43:00       -5.939        0.440       52.367       37.669       49.025       39.433     1418.952     2403.454     1554.978        0.408        0.269        5.955       27.525       21.364      345.512       23.095      863.291
06/16/2013  10:44:00       46.546       52.613       75.043       39.451       40.031       32.485     1556.378     1602.444     1055.306        0.739        0.211       70.247       19.232        0.075      344.951       22.135      863.296
06/16/2013  10:45:00       56.951       18.847       13.541       33.590       53.852       42.631     1128.263     2900.031     1817.423        0.481        0.292       59.989       25.081        0.175      345.098       22.385      863.306
06/16/2013  10:46:00       16.633       20.675       21.395       27.909       41.235       37.619      778.940     1700.320     1415.217        0.253        0.195       26.535       30.317        1.305      345.108       22.404      863.305
06/16/2013  10:47:00       12.583      -49.003       -5.099       27.161       48.539       38.992      737.730     2356.038     1520.394        0.360        0.231       50.593       31.977        0.399      345.315       22.759      863.307
06/16/2013  10:48:00       36.982      -15.292        5.832       46.676       43.064       30.783     2178.617     1854.515      947.589        0.331        0.249       40.019       22.471        0.315      345.125       22.434      863.295
06/16/2013  10:49:00        7.288      -33.404       28.629       38.103       62.150       32.992     1451.808     3862.669     1088.447        0.419        0.320       34.190       27.736        0.658      345.183       22.533      863.287
06/16/2013  10:50:00       33.925      -87.968        0.160       47.823       54.538       33.320     2287.048     2974.341     1110.221        0.763        0.319       94.283       32.274        0.117      345.113       22.413      863.287
06/16/2013  10:51:00      -49.308      -66.046       -7.707       35.837       61.345       31.259     1284.302     3763.250      977.109        0.644        0.301       82.422       29.803        0.131      345.074       22.347      863.281
06/16/2013  10:52:00       -3.995       -0.947        1.413       42.406       55.964       31.416     1798.268     3131.940      986.958        0.297        0.296        4.106       34.611       71.070      345.125       22.433      863.274
06/16/2013  10:53:00       46.080      -63.661        3.045       48.405       57.364       45.505     2343.092     3290.657     2070.698        0.694        0.385       78.588       40.407        0.264      345.044       22.294      863.276
06/16/2013  10:54:00        6.392      -11.007       33.988       22.632       41.977       33.787      512.209     1762.056     1141.591        0.237        0.171       12.729       27.925        4.813      345.970       23.883      863.270
06/16/2013  10:55:00      -44.981      -43.219        7.906       39.013       36.044       29.255     1522.032     1299.153      855.829        0.381        0.184       62.379       31.570        0.256      345.241       22.632      863.275
06/16/2013  10:56:00       -9.243       12.552       29.651       23.668       19.713       24.554      560.187      388.594      602.882        0.134        0.078       15.588       14.732        0.893      345.874       23.718      863.272
06/16/2013  10:57:00       -9.608      -43.261       26.384       50.158       27.957       28.714     2515.802      781.591      824.480        0.339        0.206       44.316       21.794        0.242      345.619       23.279      863.268
06/16/2013  10:58:00       55.386       42.280       35.294       43.640       54.254       45.940     1904.434     2943.519     2110.451        0.653        0.348       69.680       30.638        0.193      345.712       23.440      863.268
06/16/2013  10:59:00      141.135       69.163       26.872       61.816       54.732       36.793     3821.206     2995.567     1353.759        1.680        0.409      157.171       16.799        0.011      345.658       23.343      863.287
06/16/2013  11:00:00      168.227      129.428       10.100       78.447       71.042       62.849     6153.933     5046.965     3949.984        3.015        0.758      212.255       34.370        0.026      345.225       22.601      863.282
06/16/2013  11:01:00       28.654       65.909       44.386       63.670       72.227       66.303     4053.838     5216.806     4396.133        1.040        0.683       71.868       51.891        0.521      345.778       23.552      863.284
06/16/2013  11:02:00       63.126       50.616       67.536       61.540       47.793       35.851     3787.181     2284.204     1285.298        0.923        0.368       80.913       40.568        0.251      345.541       23.144      863.286
06/16/2013  11:03:00       26.189       41.923       34.084       56.987       62.103       45.575     3247.574     3856.721     2077.047        0.639        0.459       49.431       39.617        0.642      346.039       24.001      863.275
06/16/2013  11:04:00      138.745      104.620       63.487       76.660       56.802       65.742     5876.710     3226.457     4322.029        2.382        0.671      173.769       45.593        0.069      345.111       22.406      863.261
06/16/2013  11:05:00       67.726      106.554       89.547       71.131       66.219       56.918     5059.608     4384.899     3239.612        1.832        0.634      126.256       39.370        0.097      345.509       23.089      863.241
06/16/2013  11:06:00       21.075       -8.575       28.989       54.446       69.837       57.086     2964.332     4877.140     3258.842        0.623        0.555       22.753       53.839        5.599      345.931       23.815      863.232
06/16/2013  11:07:00       61.150     -100.322       16.930       65.259      109.666       69.400     4258.745    12026.580     4816.403        1.759        1.055      117.490       83.376        0.504      345.708       23.429      863.222
06/16/2013  11:08:00       97.420     -184.937      -30.453       51.528       43.652       29.489     2655.135     1905.473      869.586        2.502        0.272      209.028       14.898        0.005      345.183       22.530      863.228
06/16/2013  11:09:00        5.866        4.798       63.675       52.657       46.555       41.033     2772.751     2167.343     1683.737        0.537        0.331        7.578       34.788       21.072      346.320       24.482      863.209
06/16/2013  11:10:00       21.718       -1.801       58.444       42.225       58.180       44.151     1782.982     3384.931     1949.338        0.550        0.356       21.793       27.245        1.563      346.046       24.013      863.227
06/16/2013  11:11:00       32.065       21.908       74.545       47.548       80.455       39.141     2260.821     6472.976     1531.991        0.866        0.513       38.835       44.587        1.318      345.726       23.464      863.222
06/16/2013  11:12:00       21.476       93.584        2.911       50.484       41.818       36.677     2548.624     1748.715     1345.236        0.743        0.282       96.016       30.056        0.098      345.698       23.416      863.228
06/16/2013  11:13:00      -25.602       48.690       77.173       29.546       59.351       53.644      872.987     3522.596     2877.702        0.813        0.364       55.011       23.443        0.182      346.360       24.552      863.215
06/16/2013  11:14:00       -3.457       22.347       66.677       49.095       90.740       33.171     2410.316     8233.759     1100.324        0.835        0.587       22.612       32.309        2.042      345.948       23.844      863.211
06/16/2013  11:15:00       35.481       57.429       42.775       41.901       42.145       36.112     1755.698     1776.159     1304.098        0.561        0.242       67.505       26.341        0.152      345.878       23.724      863.215
06/16/2013  11:16:00       93.944       70.150       13.905       47.595       38.062       34.594     2265.306     1448.750     1196.743        0.942        0.246      117.245       18.003        0.024      345.458       23.003      863.215
06/16/2013  11:17:00       82.722       61.489       37.122       52.175       38.144       37.370     2722.251     1454.970     1396.528        0.879        0.279      103.072       29.925        0.084      345.799       23.588      863.205
06/16/2013  11:18:00       21.384      -54.955       -1.511       43.411       38.030       33.242     1884.534     1446.290     1105.029        0.396        0.222       58.969       22.118        0.141      345.699       23.417      863.192
06/16/2013  11:19:00       31.093      -26.180        0.663       37.313       35.246       30.449     1392.285     1242.263      927.125        0.261        0.178       40.647       18.565        0.209      345.593       23.234      863.192
06/16/2013  11:20:00       58.143       54.247       -5.431       52.053       40.772       32.790     2709.483     1662.377     1075.162        0.590        0.272       79.519       17.851        0.050      345.874       23.717      863.192
06/16/2013  11:21:00      106.902       72.198       19.189       77.273       54.415       44.490     5971.127     2961.019     1979.374        1.396        0.546      128.998       32.558        0.064      345.945       23.838      863.180
06/16/2013  11:22:00      108.544       84.215       13.815       92.054       63.755       46.118     8473.980     4064.652     2126.897        1.686        0.733      137.383       17.058        0.015      345.988       23.911      863.181
06/16/2013  11:23:00       99.594       81.202        7.673       39.423       28.519       36.015     1554.196      813.333     1297.100        1.012        0.183      128.502       17.800        0.019      345.227       22.606      863.178
06/16/2013  11:24:00       97.535       84.859        5.983       46.702       33.496       35.621     2181.044     1121.982     1268.861        1.066        0.229      129.283       25.319        0.038      345.217       22.591      863.172
06/16/2013  11:25:00       37.914       17.501       13.523       53.026       32.598       28.602     2811.805     1062.660      818.058        0.331        0.235       41.759       19.651        0.221      345.723       23.458      863.169
06/16/2013  11:26:00      -52.910       -0.769       -2.052       45.721       31.347       25.771     2090.369      982.653      664.126        0.327        0.187       52.916       15.978        0.091      345.781       23.557      863.167
06/16/2013  11:27:00     -126.967      -36.716       -3.775       77.891       45.314       32.816     6066.970     2053.386     1076.869        1.334        0.460      132.169       42.244        0.102      345.704       23.425      863.162
06/16/2013  11:28:00      -69.800      -48.232       -2.935       80.471       48.053       32.374     6475.570     2309.085     1048.061        0.852        0.492       84.843       36.134        0.181      345.537       23.137      863.174
06/16/2013  11:29:00      -72.173      -43.276       -7.852      101.841       32.707       34.319    10371.550     1069.779     1177.764        0.988        0.631       84.153       41.847        0.247      345.362       22.836      863.167
06/16/2013  11:30:00      -77.510      -52.402        3.733       55.393       48.480       27.810     3068.382     2350.283      773.412        0.748        0.310       93.561       29.287        0.098      345.579       23.210      863.162
06/16/2013  11:31:00     -109.550       45.200      -13.057       57.467       74.720       34.634     3302.508     5583.027     1199.509        1.215        0.504      118.509       15.980        0.018      345.763       23.525      863.169
06/16/2013  11:32:00     -301.307       28.630      -28.941      110.629       80.030       47.590    12238.686     6404.740     2264.781        5.667        1.045      302.665       55.826        0.034      345.613       23.265      863.164
06/16/2013  11:33:00     -258.110        2.302      -38.956       84.520       30.903       28.421     7143.652      954.984      807.736        3.852        0.445      258.120       33.565        0.017      345.099       22.383      863.194
06/16/2013  11:34:00      -44.288      -74.281       -2.325       45.924       62.232       17.617     2109.041     3872.788      310.344        0.689        0.315       86.482       19.462        0.051      345.311       22.752      863.171
06/16/2013  11:35:00        6.758     -113.694       -1.273       30.179       52.571       28.041      910.752     2763.749      786.326        0.872        0.223      113.895       13.438        0.014      345.473       23.030      863.143
06/16/2013  11:36:00      -44.739       13.480       -1.640       31.281       22.043       26.903      978.529      485.916      723.751        0.219        0.109       46.726       20.755        0.197      345.925       23.804      863.120
06/16/2013  11:37:00       29.849       79.616        1.194       49.086       51.662       38.269     2409.416     2668.945     1464.483        0.689        0.327       85.028       33.505        0.155      346.195       24.268      863.132
06/16/2013  11:38:00      -48.828       37.539        6.142       75.689       38.225       38.748     5728.786     1461.188     1501.398        0.626        0.435       61.590       22.577        0.134      345.839       23.656      863.123
06/16/2013  11:39:00      -11.681       17.823       31.408       39.480       29.768       33.030     1558.634      886.111     1091.000        0.249        0.177       21.310       14.570        0.467      346.347       24.530      863.119
06/16/2013  11:40:00      -37.139       50.595       -9.587       51.452       39.627       32.434     2647.345     1570.265     1051.967        0.465        0.263       62.762       32.310        0.265      346.117       24.136      863.105
06/16/2013  11:41:00       12.736       50.752       18.455       25.160       55.243       29.826      633.038     3051.800      889.580        0.383        0.229       52.325       27.612        0.278      346.562       24.900      863.094
06/16/2013  11:42:00       69.030       92.455        8.404       52.459       67.866       43.592     2751.969     4605.774     1900.242        1.132        0.463      115.383       43.411        0.142      345.824       23.631      863.086
06/16/2013  11:43:00      -35.567      203.520       -1.105       61.116       93.628       52.783     3735.123     8766.183     2785.993        2.898        0.764      206.604       47.994        0.054      345.907       23.771      863.100
06/16/2013  11:44:00       12.048      109.482       -5.803       32.108       63.962       36.976     1030.947     4091.149     1367.230        0.933        0.324      110.143       36.607        0.110      345.872       23.713      863.118
06/16/2013  11:45:00       62.545       27.502        1.393       44.269       29.389       27.932     1959.776      863.699      780.205        0.414        0.180       68.325       23.628        0.120      345.980       23.899      863.099
06/16/2013  11:46:00      -86.748       88.044      -19.434       71.780       81.751       51.649     5152.304     6683.253     2667.594        1.508        0.725      123.601       42.370        0.118      345.824       23.630      863.115
06/16/2013  11:47:00      -81.786       35.717       -5.184       66.360      105.974       44.192     4403.672    11230.387     1952.952        1.279        0.879       89.245       38.652        0.188      345.590       23.227      863.115
06/16/2013  11:48:00     -118.963      -17.121      -21.262       96.594      117.655       41.970     9330.404    13842.620     1761.485        1.991        1.247      120.188       58.656        0.238      345.286       22.705      863.121
06/16/2013  11:49:00      -33.221      -93.014       15.506       51.982       63.145       34.368     2702.109     3987.244     1181.158        0.893        0.394       98.768       31.153        0.099      345.535       23.134      863.094
06/16/2013  11:50:00       21.742      -37.478      -28.921       39.711       51.086       25.107     1576.945     2609.807      630.360        0.376        0.241       43.329       14.546        0.113      345.494       23.064      863.089
06/16/2013  11:51:00      -41.568      -47.198      -10.066       36.915       83.486       31.994     1362.698     6969.951     1023.628        0.670        0.468       62.893       27.804        0.195      345.390       22.887      863.072
06/16/2013  11:52:00       15.501       81.461       16.166       59.838       84.188       39.186     3580.557     7087.693     1535.561        0.967        0.610       82.923       35.400        0.182      346.165       24.217      863.032
06/16/2013  11:53:00       -6.024      191.101      -15.538       46.883       72.825       41.784     2198.053     5303.428     1745.884        2.302        0.462      191.196       39.112        0.042      346.049       24.015      863.024
06/16/2013  11:54:00        3.195      194.991      -19.734       33.052       42.620       29.717     1092.443     1816.473      883.080        2.111        0.190      195.017       23.264        0.014      345.670       23.365      863.014
06/16/2013  11:55:00       10.646      127.224       -9.378       38.708       68.809       34.415     1498.309     4734.659     1184.389        1.190        0.371      127.668       40.322        0.100      346.014       23.956      863.012
06/16/2013  11:56:00      -30.297      216.630      -17.738       51.476       67.918       36.204     2649.746     4612.828     1310.710        2.837        0.429      218.738       40.312        0.034      345.800       23.586      862.992
06/16/2013  11:57:00      -84.256      148.482       -8.827       57.736       91.233       45.148     3333.474     8323.416     2038.323        2.146        0.685      170.722       32.111        0.035      345.803       23.593      862.971
06/16/2013  11:58:00      -69.924       63.047        6.677       39.138       40.232       36.146     1531.772     1618.597     1306.519        0.668        0.223       94.150       26.093        0.077      346.214       24.303      862.939
06/16/2013  11:59:00      -33.070       82.734        9.538       72.828      101.285       41.231     5303.904    10258.720     1699.963        1.264        0.863       89.098       41.228        0.214      346.051       24.021      862.927
06/16/2013  12:00:00      -19.212      256.087      -14.005       77.988      123.155       58.612     6082.112    15167.068     3435.370        4.541        1.234      256.807       52.852        0.042      346.153       24.193      862.911
06/16/2013  12:01:00      -53.356      180.401      -12.006       78.004       61.137       45.730     6084.548     3737.712     2091.274        2.372        0.596      188.126       34.479        0.034      346.146       24.182      862.920
06/16/2013  12:02:00      -68.062       82.126      -15.344       54.672       57.201       33.445     2989.061     3271.969     1118.566        0.949        0.369      106.664       26.830        0.063      346.127       24.152      862.932
06/16/2013  12:03:00     -153.648       22.721      -16.193       58.726       55.825       25.320     3448.784     3116.379      641.112        1.579        0.360      155.319       24.859        0.026      345.917       23.790      862.925
06/16/2013  12:04:00     -157.305       -7.004      -16.804       41.731       48.857       28.330     1741.500     2387.047      802.579        1.500        0.247      157.461       16.755        0.011      345.722       23.456      862.923
06/16/2013  12:05:00       -3.236      -41.906       21.436       45.253       27.007       35.380     2047.809      729.351     1251.720        0.313        0.201       42.030       28.537        0.461      346.237       24.342      862.927
06/16/2013  12:06:00       37.357       16.196       23.430       52.037       34.839       39.041     2707.829     1213.764     1524.199        0.383        0.272       40.717       30.183        0.550      346.850       25.394      862.926
06/16/2013  12:07:00       24.565       29.253       51.266       44.173       43.027       34.417     1951.243     1851.287     1184.523        0.454        0.249       38.199       24.274        0.404      346.962       25.588      862.935
06/16/2013  12:08:00       70.521       25.169       52.052       44.218       39.995       30.439     1955.216     1599.603      926.518        0.640        0.224       74.878       25.566        0.117      346.470       24.741      862.935
06/16/2013  12:09:00       80.583       11.489       29.984       52.556       77.491       38.813     2762.106     6004.845     1506.416        0.890        0.514       81.398       33.064        0.165      345.716       23.446      862.924
06/16/2013  12:10:00      145.932     -155.991       -4.771       91.707      115.538       55.834     8410.091    13349.087     3117.412        3.526        1.244      213.610       61.526        0.083      346.235       24.334      862.887
06/16/2013  12:11:00       54.716     -132.945       -4.820      111.069       82.798       53.037    12336.353     6855.482     2812.871        2.134        1.100      143.765       43.428        0.091      346.642       25.034      862.875
06/16/2013  12:12:00       40.746     -111.685        7.702       65.234       97.091       61.075     4255.439     9426.627     3730.135        1.580        0.871      118.886       59.501        0.250      346.804       25.317      862.884
06/16/2013  12:13:00       60.532      -91.301      -20.490       88.009      110.348       42.915     7745.547    12176.777     1841.681        1.709        1.088      109.545       47.954        0.192      345.960       23.862      862.896
06/16/2013  12:14:00       38.714      -42.868       19.100       53.246       50.992       37.202     2835.115     2600.154     1383.972        0.526        0.341       57.762       32.025        0.307      346.366       24.562      862.872
06/16/2013  12:15:00       47.028      -17.520       60.899       60.676       84.953       43.008     3681.606     7217.090     1849.661        0.949        0.637       50.185       46.406        0.855      346.378       24.584      862.831
06/16/2013  12:16:00     -159.727      -94.667      -17.275       71.653       67.705       43.296     5134.128     4583.920     1874.512        2.318        0.580      185.673       35.751        0.037      345.866       23.701      862.834
06/16/2013  12:17:00      -58.493      -45.535        0.688       84.472       48.637       36.383     7135.456     2365.543     1323.729        0.816        0.541       74.127       31.450        0.180      346.094       24.094      862.809
06/16/2013  12:18:00       38.880        2.040       14.330       45.507       82.679       39.892     2070.932     6835.889     1591.395        0.611        0.525       38.933       23.006        0.349      346.165       24.217      862.780
06/16/2013  12:19:00       14.531      -39.457       -1.813       25.592       41.978       30.698      654.963     1762.134      942.382        0.256        0.168       42.048       31.403        0.558      346.152       24.195      862.765
06/16/2013  12:20:00       14.994       -0.717       13.199       46.540       37.005       27.547     2165.934     1369.387      758.834        0.235        0.215       15.011       16.537        1.214      346.391       24.605      862.722
06/16/2013  12:21:00       23.531        9.103       33.160       34.967       55.938       35.168     1222.695     3129.014     1236.814        0.366        0.279       25.230       35.124        1.938      346.170       24.226      862.702
06/16/2013  12:22:00        2.572      -16.937       17.646       19.119       43.806       36.790      365.521     1918.988     1353.508        0.212        0.182       17.131       37.838        4.878      346.828       25.358      862.697
06/16/2013  12:23:00       26.442       34.514       21.230       47.681       38.714       33.266     2273.466     1498.775     1106.630        0.361        0.244       43.479       27.057        0.387      346.041       24.005      862.687
06/16/2013  12:24:00      135.357       79.913       29.435      113.201       73.160       51.492    12814.551     5352.424     2651.416        2.319        1.041      157.187       43.028        0.075      346.554       24.884      862.680
06/16/2013  12:25:00      144.224       88.812       33.856       83.234       67.784       56.434     6927.911     4594.612     3184.821        2.227        0.735      169.376       49.465        0.085      346.398       24.614      862.683
06/16/2013  12:26:00       85.939       49.274       49.396       80.742       51.159       42.805     6519.192     2617.203     1832.305        1.161        0.548       99.063       40.289        0.165      346.996       25.644      862.704
06/16/2013  12:27:00       91.285       90.048       85.631       97.191       52.364       55.759     9446.098     2741.948     3109.077        1.953        0.765      128.225       55.119        0.185      346.449       24.703      862.706
06/16/2013  12:28:00      110.920       19.939       28.376       76.722      104.119       63.121     5886.242    10840.751     3984.224        1.710        1.036      112.698       53.117        0.222      346.159       24.205      862.689
06/16/2013  12:29:00       65.257       10.646       67.155       81.182       80.110       60.783     6590.544     6417.642     3694.515        1.279        0.835       66.119       53.742        0.661      346.716       25.164      862.688
06/16/2013  12:30:00      142.786       33.999       82.991      117.114      101.466       81.675    13715.796    10295.324     6670.826        2.955        1.534      146.778       78.392        0.285      346.273       24.400      862.681
06/16/2013  12:31:00       42.969      -33.982       54.152       94.213       89.347       55.635     8876.042     7982.862     3095.225        1.294        0.998       54.783       52.995        0.936      346.395       24.610      862.692
06/16/2013  12:32:00       74.705      -66.444       37.175       96.907      155.291       88.965     9390.887    24115.180     7914.705        2.639        2.071       99.979       91.295        0.834      346.587       24.940      862.704
06/16/2013  12:33:00      118.143     -183.945      -44.845      115.109      135.871       76.951    13249.984    18460.806     5921.530        4.371        1.882      218.618       87.769        0.161      346.105       24.111      862.723
06/16/2013  12:34:00       88.500     -122.507      -15.349       59.356       62.392       40.067     3523.149     3892.810     1605.363        1.605        0.451      151.129       35.329        0.055      346.077       24.064      862.761
06/16/2013  12:35:00      110.667     -115.383      -22.234       57.850       76.195       51.464     3346.571     5805.743     2648.545        1.893        0.590      159.877       51.898        0.105      346.258       24.374      862.761
06/16/2013  12:36:00       16.588        5.026       45.360       38.918       43.651       32.554     1514.641     1905.420     1059.761        0.342        0.224       17.333       30.591        3.115      346.522       24.830      862.768
06/16/2013  12:37:00       41.610       -8.177       30.372       34.910       40.014       37.872     1218.731     1601.138     1434.301        0.349        0.213       42.406       27.209        0.412      346.519       24.825      862.752
06/16/2013  12:38:00      -24.261      -32.247       -6.941       52.873       44.186       20.652     2795.519     1952.433      426.493        0.342        0.259       40.355       23.215        0.331      346.010       23.951      862.704
06/16/2013  12:39:00      -83.913       -2.470       -4.591       35.221       27.335       20.735     1240.496      747.183      429.932        0.474        0.121       83.949       12.030        0.021      346.201       24.278      862.685
06/16/2013  12:40:00      -77.213       22.524       -1.646       60.512       33.116       24.339     3661.643     1096.642      592.403        0.591        0.268       80.431       29.149        0.131      346.553       24.884      862.664
06/16/2013  12:41:00       10.120       31.959       19.040       21.625       27.526       40.051      467.632      757.673     1604.114        0.216        0.141       33.523       22.415        0.447      347.153       25.918      862.611
06/16/2013  12:42:00       29.752       38.028       34.455       55.140       45.891       33.593     3040.427     2105.999     1128.522        0.490        0.314       48.284       13.501        0.078      347.185       25.971      862.585
06/16/2013  12:43:00       92.799       83.381        7.750       82.880       83.585       46.637     6869.156     6986.397     2174.967        1.582        0.802      124.756       27.979        0.050      346.663       25.070      862.583
06/16/2013  12:44:00      -34.367       40.480       -2.988       43.818       40.706       29.787     1920.004     1656.975      887.247        0.365        0.223       53.101       21.628        0.166      346.883       25.449      862.562
06/16/2013  12:45:00       11.091       58.558       20.160       39.606       60.994       39.280     1568.621     3720.236     1542.904        0.539        0.342       59.599       40.088        0.452      347.336       26.232      862.531
06/16/2013  12:46:00       25.445      126.991        6.379       89.212      151.092       72.298     7958.797    22828.717     5226.948        2.641        1.801      129.516       52.787        0.166      346.986       25.628      862.509
06/16/2013  12:47:00        7.597      147.226       27.419       54.147      112.941       68.420     2931.920    12755.591     4681.326        2.142        1.018      147.422       65.416        0.197      347.236       26.058      862.469
06/16/2013  12:48:00       53.587      111.205        6.099       66.139      102.738       59.625     4374.406    10555.095     3555.190        1.688        0.924      123.443       52.569        0.181      347.168       25.941      862.456
06/16/2013  12:49:00      292.471      193.923       41.160       90.892       76.726       69.958     8261.273     5886.940     4894.085        7.194        0.952      350.921       36.532        0.011      347.176       25.952      862.423
06/16/2013  12:50:00      224.627      218.861      148.231      127.248       71.015      101.011    16191.928     5043.072    10203.323        7.588        1.572      313.620       89.089        0.081      347.202       25.995      862.392
06/16/2013  12:51:00       34.361       13.798       89.349       81.872      105.113       63.675     6703.034    11048.774     4054.519        1.558        1.090       37.028       63.241        2.917      347.600       26.686      862.448
06/16/2013  12:52:00      127.615      -82.799       47.197       87.163      118.391       84.130     7597.454    14016.476     7077.811        2.702        1.435      152.123       84.041        0.305      347.207       26.007      862.452
06/16/2013  12:53:00       94.358       17.094      142.393      113.189      151.093       89.876    12811.806    22829.023     8077.694        3.659        2.186       95.894      102.255        1.137      347.093       25.810      862.435
06/16/2013  12:54:00      118.965      -81.122       48.936       94.619       98.146       63.978     8952.777     9632.581     4093.169        2.290        1.134      143.991       55.297        0.147      347.009       25.666      862.465
06/16/2013  12:55:00       59.769      -93.532        9.889       94.760      132.303       77.088     8979.492    17504.165     5942.597        2.242        1.621      110.998       84.981        0.586      347.028       25.700      862.468
06/16/2013  12:56:00      113.703     -201.288       -5.809      117.190      152.992       75.717    13733.475    23406.430     5733.089        4.817        2.144      231.182       94.303        0.166      346.726       25.179      862.490
06/16/2013  12:57:00       99.221       18.180       92.459       79.066      125.273      106.718     6251.417    15693.268    11388.776        2.602        1.667      100.873      104.901        1.081      346.627       25.007      862.515
06/16/2013  12:58:00       59.219      -11.697       25.384       81.565       89.711       58.512     6652.860     8048.132     3423.696        1.120        0.906       60.363       46.163        0.585      346.710       25.153      862.503
06/16/2013  12:59:00       72.438       58.339      -30.274       45.802       32.554       40.795     2097.821     1059.740     1664.228        0.719        0.241       93.009       31.516        0.115      346.459       24.722      862.487
06/16/2013  13:00:00       28.727     -111.647        5.607       64.804      105.396       40.008     4199.570    11108.354     1600.618        1.511        0.845      115.283       38.132        0.109      346.882       25.448      862.495
06/16/2013  13:01:00      115.063     -236.239       -2.401       66.819      147.659       55.230     4464.782    21803.096     3050.315        4.918        1.466      262.771       66.264        0.064      346.419       24.651      862.504
06/16/2013  13:02:00      -18.490      -58.932        7.829       90.050       78.432       58.520     8109.048     6151.624     3424.593        1.078        0.884       61.764       57.541        0.868      347.063       25.762      862.514
06/16/2013  13:03:00     -154.415     -118.532       -0.069       90.359       53.365       46.424     8164.820     2847.770     2155.211        2.553        0.658      194.663       45.039        0.054      346.852       25.393      862.543
06/16/2013  13:04:00     -123.879     -120.953       15.959       97.712       83.941       49.261     9547.557     7046.151     2426.603        2.462        0.951      173.134       50.478        0.085      346.736       25.196      862.552
06/16/2013  13:05:00     -139.911     -195.457       -5.520       88.967      103.602       48.972     7915.136    10733.449     2398.231        3.942        1.052      240.372       45.490        0.036      346.508       24.803      862.544
06/16/2013  13:06:00     -131.247     -149.303      -23.845       91.150       66.612       48.941     8308.246     4437.103     2395.263        2.761        0.757      198.789       27.590        0.019      346.693       25.121      862.509
06/16/2013  13:07:00      -31.999      -69.159       19.893       45.998       57.411       35.313     2115.843     3296.036     1246.977        0.643        0.333       76.203       26.771        0.123      346.825       25.350      862.450
06/16/2013  13:08:00     -213.647      -92.414       -4.586      133.763       69.035       43.282    17892.674     4765.851     1873.348        3.936        1.227      232.778       30.427        0.017      346.812       25.326      862.421
06/16/2013  13:09:00     -294.343      -94.661      -10.928       88.014       57.491       38.222     7746.499     3305.241     1460.909        5.411        0.626      309.190       31.005        0.010      346.658       25.058      862.434
06/16/2013  13:10:00     -309.877     -175.600       -5.560      112.754       99.795       51.821    12713.573     9958.995     2685.427        7.612        1.268      356.173       49.888        0.020      346.824       25.346      862.422
06/16/2013  13:11:00     -378.931     -134.503      -23.829      112.731      120.119       57.072    12708.214    14428.513     3257.183        9.631        1.520      402.094       58.974        0.022      346.530       24.840      862.415
06/16/2013  13:12:00     -156.051     -133.352       -0.732      111.760      113.770       59.654    12490.209    12943.685     3558.603        3.556        1.450      205.267       62.349        0.092      346.966       25.593      862.437
06/16/2013  13:13:00     -277.997     -200.675      -21.973      128.592       93.465       52.569    16535.950     8735.727     2763.476        7.303        1.402      342.860       47.936        0.020      346.569       24.907      862.437
06/16/2013  13:14:00     -175.490      -29.006       -5.363      121.087      148.984       67.844    14662.028    22196.260     4602.775        3.656        2.073      177.871       64.570        0.132      346.910       25.494      862.410
06/16/2013  13:15:00     -101.367       19.577        3.932       74.079       73.257       38.680     5487.753     5366.518     1496.129        1.151        0.618      103.240       40.474        0.154      346.847       25.389      862.431
06/16/2013  13:16:00      -63.175       41.949       20.592       60.362       25.126       35.134     3643.546      631.320     1234.364        0.584        0.275       75.834       40.590        0.286      347.147       25.908      862.376
06/16/2013  13:17:00      -79.283       37.862        4.239       51.284       40.028       35.168     2630.099     1602.231     1236.814        0.660        0.273       87.859       33.948        0.149      347.122       25.862      862.373
06/16/2013  13:18:00      -71.478      -43.297        1.260       97.377      111.639       37.913     9482.288    12463.170     1437.363        1.518        1.169       83.569       34.361        0.169      347.222       26.033      862.380
06/16/2013  13:19:00     -213.535     -166.455       14.429      191.800      137.811       74.921    36787.352    18991.787     5613.118        6.744        3.070      270.748       82.949        0.094      347.067       25.766      862.390
06/16/2013  13:20:00     -252.599      -71.114      -16.058      116.477      116.893       53.716    13566.902    13663.967     2885.459        4.961        1.506      262.418       52.632        0.040      346.571       24.910      862.457
06/16/2013  13:21:00     -111.897      139.957      -33.615       49.018       62.999       30.068     2402.741     3968.834      904.067        2.026        0.364      179.189       27.265        0.023      346.416       24.646      862.463
06/16/2013  13:22:00        0.899      135.513       -3.469       48.111       63.973       43.798     2314.675     4092.542     1918.295        1.335        0.416      135.516       34.400        0.064      347.077       25.786      862.409
06/16/2013  13:23:00        3.403      180.758      -21.273       64.006       91.996       49.810     4096.754     8463.342     2481.058        2.409        0.752      180.790       49.832        0.076      346.820       25.341      862.349
06/16/2013  13:24:00       79.302      217.967      -29.069       73.661      112.289       62.723     5426.012    12608.847     3934.191        3.830        1.098      231.945       55.986        0.058      346.922       25.514      862.317
06/16/2013  13:25:00       81.197      158.247      -10.347       85.416      103.355       73.817     7295.886    10682.166     5448.942        2.758        1.171      177.863       64.808        0.133      346.912       25.499      862.314
06/16/2013  13:26:00      126.084      141.837       -4.249       81.136       85.384       62.684     6583.075     7290.350     3929.330        2.691        0.890      189.776       57.109        0.091      346.917       25.507      862.302
06/16/2013  13:27:00       82.569       51.593       -7.823       44.135       35.903       28.006     1947.911     1289.018      784.327        0.678        0.201       97.363       11.569        0.014      346.499       24.792      862.332
06/16/2013  13:28:00       18.523       37.772       22.945       22.547       21.094       17.429      508.356      444.956      303.773        0.178        0.063       42.070        8.810        0.044      346.792       25.294      862.341
06/16/2013  13:29:00      -86.147       27.027      -12.412       61.433       66.034       32.885     3774.017     4360.435     1081.446        0.876        0.461       90.287       32.239        0.128      346.933       25.537      862.351
06/16/2013  13:30:00     -195.830      -20.214      -13.176      114.469       67.921       41.881    13103.169     4613.217     1754.034        2.920        0.974      196.870       32.450        0.027      347.235       26.056      862.334
06/16/2013  13:31:00     -123.979      -83.557       20.789      132.066       68.856       55.228    17441.360     4741.195     3050.132        2.400        1.262      149.507       63.513        0.180      347.508       26.527      862.341
06/16/2013  13:32:00     -306.390     -117.612      -12.750      119.574      118.638       62.748    14297.839    14074.963     3937.339        7.008        1.616      328.188       68.915        0.044      347.127       25.868      862.337
06/16/2013  13:33:00     -399.014      -80.000       -5.122      193.830      130.340       74.118    37570.012    16988.428     5493.417       11.283        3.003      406.955       79.510        0.038      347.131       25.876      862.371
06/16/2013  13:34:00      -54.049       10.784       23.027       71.490       60.312       40.141     5110.764     3637.496     1611.289        0.696        0.518       55.114       38.099        0.478      347.897       27.199      862.392
06/16/2013  13:35:00     -222.123     -154.281        6.415      153.794       94.840       62.141    23652.690     8994.659     3861.533        5.484        1.825      270.446       61.460        0.052      347.146       25.902      862.382
06/16/2013  13:36:00     -190.506     -146.341        2.312      109.266       69.767       48.221    11938.994     4867.476     2325.308        3.842        0.957      240.225       47.282        0.039      346.725       25.177      862.401
06/16/2013  13:37:00      -59.196     -170.926       -1.826       58.788       69.954       40.382     3456.066     4893.538     1630.732        2.135        0.499      180.887       32.849        0.033      346.671       25.086      862.370
06/16/2013  13:38:00      -89.728      -83.440       18.105      114.665       71.675       57.537    13148.125     5137.264     3310.490        1.846        1.080      122.529       64.952        0.281      347.142       25.895      862.357
06/16/2013  13:39:00      -21.211      -50.692       21.614       88.942       71.654       53.714     7910.665     5134.335     2885.187        0.971        0.797       54.950       50.848        0.856      347.242       26.071      862.340
06/16/2013  13:40:00        1.346       53.772        1.573       38.211       83.292       36.822     1460.087     6937.587     1355.851        0.632        0.488       53.789        4.909        0.008      347.492       26.500      862.322
06/16/2013  13:41:00      -36.649      177.946      -22.270       67.779       75.064       46.009     4594.042     5634.545     2116.854        2.292        0.617      181.681       43.168        0.056      347.200       25.995      862.311
06/16/2013  13:42:00      -52.463      115.426        2.400       43.958       56.194       35.685     1932.292     3157.759     1273.420        1.122        0.318      126.789       32.103        0.064      347.304       26.177      862.302
06/16/2013  13:43:00      -31.764       60.472       13.147       41.230       47.940       30.582     1699.950     2298.239      935.267        0.489        0.247       68.306       30.024        0.193      347.403       26.346      862.286
06/16/2013  13:44:00       -8.253       37.284        6.394       23.655       42.946       29.106      559.557     1844.385      847.154        0.237        0.163       38.186       26.247        0.472      347.471       26.466      862.263
06/16/2013  13:45:00      -65.697       53.085       10.210       54.472       40.938       34.832     2967.232     1675.948     1213.295        0.655        0.293       84.464       34.105        0.163      347.339       26.237      862.244
06/16/2013  13:46:00      -56.488      -30.771        0.139       41.211       34.916       23.756     1698.328     1219.110      564.357        0.381        0.174       64.326       15.943        0.061      346.876       25.441      862.228
06/16/2013  13:47:00      -20.343       14.204        3.585       31.165       22.350       25.301      971.242      499.530      640.149        0.137        0.106       24.811       19.056        0.590      347.505       26.525      862.224
06/16/2013  13:48:00       -1.132       51.511       10.375       28.790       50.957       32.269      828.850     2596.614     1041.315        0.361        0.223       51.523       31.228        0.367      347.644       26.763      862.222
06/16/2013  13:49:00      -24.042      -15.707       12.250       73.153       29.204       30.153     5351.391      852.851      909.189        0.404        0.356       28.718       32.677        1.295      347.661       26.793      862.230
06/16/2013  13:50:00      -45.556      -49.155       15.411       52.917       58.375       40.945     2800.181     3407.583     1676.486        0.631        0.394       67.019       37.599        0.315      347.485       26.488      862.248
06/16/2013  13:51:00      -45.024       -3.628       17.562       60.259       50.678       29.249     3631.172     2568.250      855.508        0.470        0.353       45.170       27.538        0.372      347.767       26.975      862.229
06/16/2013  13:52:00        7.534        3.617       10.150       18.482       36.263       22.206      341.580     1315.012      493.109        0.116        0.107        8.357        7.520        0.810      348.065       27.490      862.195
06/16/2013  13:53:00      -60.933      -31.955      -21.099       65.270       53.944       22.868     4260.121     2909.921      522.956        0.643        0.385       68.804       14.255        0.043      347.491       26.501      862.203
06/16/2013  13:54:00      -63.843     -100.344        8.514       64.674       49.294       38.997     4182.760     2429.854     1520.783        1.117        0.407      118.932       31.507        0.070      347.354       26.262      862.189
06/16/2013  13:55:00     -138.710      -84.549      -12.522       77.889       69.864       40.163     6066.774     4880.922     1613.085        1.955        0.628      162.447       33.437        0.042      347.321       26.205      862.187
06/16/2013  13:56:00     -296.448     -137.206       -5.298      122.400      129.352       56.766    14981.724    16731.982     3222.400        7.083        1.747      326.660       62.002        0.036      347.293       26.152      862.217
06/16/2013  13:57:00     -272.996       50.558      -12.793      112.929      107.409       54.589    12753.053    11536.775     2979.934        5.225        1.363      277.638       54.392        0.038      347.195       25.985      862.207
06/16/2013  13:58:00     -478.240       65.289      -26.028      170.311      141.113       80.063    29005.951    19912.825     6410.111       14.448        2.766      482.676       71.073        0.022      347.398       26.336      862.171
06/16/2013  13:59:00     -254.523      -52.610       -9.040      104.674      119.163       66.348    10956.568    14199.784     4402.040        4.859        1.478      259.903       58.939        0.051      347.602       26.686      862.191
06/16/2013  14:00:00     -234.750       45.846       -1.581      128.103       79.021       53.502    16410.288     6244.313     2862.500        4.136        1.276      239.185       66.141        0.076      347.374       26.294      862.187
06/16/2013  14:01:00     -121.069      -59.788        9.414      138.801       93.234       48.491    19265.667     8692.519     2351.350        2.431        1.515      135.027       57.725        0.183      347.589       26.667      862.177
06/16/2013  14:02:00     -192.236     -148.839        8.489      161.082       80.520       57.329    25947.404     6483.456     3286.598        4.744        1.786      243.120       68.670        0.080      347.004       25.657      862.188
06/16/2013  14:03:00     -156.996      -79.976       15.902      173.289       96.695       43.053    30029.133     9349.939     1853.571        3.626        2.062      176.193       57.580        0.107      347.247       26.078      862.177
06/16/2013  14:04:00     -268.256      -88.274       -9.149       81.740       77.053       43.801     6681.495     5937.130     1918.571        4.718        0.727      282.406       35.877        0.016      346.974       25.604      862.159
06/16/2013  14:05:00     -121.651     -132.971       -5.410       72.517       68.221       39.721     5258.651     4654.097     1577.771        2.200        0.575      180.223       40.868        0.051      346.882       25.447      862.164
06/16/2013  14:06:00      -19.256     -103.056        2.457       55.857       48.519       32.275     3119.961     2354.080     1041.671        0.876        0.326      104.839       30.781        0.086      347.053       25.743      862.155
06/16/2013  14:07:00      -39.964     -110.169       -3.844       62.175       35.024       35.435     3865.701     1226.649     1255.658        1.005        0.317      117.194       27.473        0.055      347.086       25.801      862.151
06/16/2013  14:08:00      -87.283      -34.226       -4.483       60.027       49.941       35.445     3603.235     2494.127     1256.362        0.808        0.368       93.753       31.961        0.116      347.252       26.088      862.148
06/16/2013  14:09:00      -67.256      -85.019       12.190      104.244       66.793       43.243    10866.761     4461.270     1869.961        1.455        0.860      108.405       42.561        0.154      347.326       26.213      862.174
06/16/2013  14:10:00     -296.814     -221.944        5.051      215.377      156.726       92.212    46387.422    24563.117     8503.101       10.840        3.973      370.618      107.740        0.085      347.099       25.820      862.149
06/16/2013  14:11:00     -337.985     -285.667        7.338      229.739      160.769      106.550    52779.951    25846.585    11352.859       14.292        4.499      442.538      116.477        0.069      346.910       25.494      862.153
06/16/2013  14:12:00     -375.356     -240.989      -10.882      136.878      129.111       72.588    18735.462    16669.565     5269.040       11.987        2.034      446.058       67.461        0.023      346.826       25.348      862.181
06/16/2013  14:13:00     -142.845     -100.527        6.496      112.537       94.486       56.740    12664.532     8927.530     3219.378        2.768        1.241      174.672       50.792        0.085      346.881       25.445      862.192
06/16/2013  14:14:00     -412.640      -58.292      -25.515      147.858      113.525       68.275    21861.887    12887.828     4661.451       10.686        1.971      416.737       73.643        0.031      346.902       25.480      862.210
06/16/2013  14:15:00     -257.071      -18.936       -9.795      104.117       55.345       43.969    10840.264     3063.101     1933.273        4.119        0.792      257.768       47.233        0.034      346.943       25.552      862.175
06/16/2013  14:16:00     -139.925      -39.068       -9.922       59.596       49.093       19.404     3551.635     2410.156      376.504        1.377        0.317      145.276       22.584        0.024      346.933       25.536      862.141
06/16/2013  14:17:00     -101.332       -5.327       10.899       73.891       63.692       35.311     5459.862     4056.675     1246.845        1.059        0.538      101.472       37.896        0.139      347.280       26.136      862.140
06/16/2013  14:18:00      -74.770      -63.781       11.255       61.501       57.684       41.339     3782.370     3327.440     1708.889        0.930        0.441       98.278       43.114        0.192      347.189       25.980      862.117
06/16/2013  14:19:00       -4.368       -4.423       -2.197       22.005       36.261       20.169      484.241     1314.858      406.794        0.112        0.110        6.217       10.382        2.789      347.594       26.676      862.105
06/16/2013  14:20:00      -18.879     -112.479       15.664       78.036       68.327       44.089     6089.593     4668.598     1943.882        1.298        0.635      114.052       42.608        0.140      347.522       26.552      862.082
06/16/2013  14:21:00     -109.873      -15.599        4.794       74.489       65.548       39.948     5548.641     4296.507     1595.811        1.189        0.572      110.975       35.401        0.102      347.613       26.709      862.061
06/16/2013  14:22:00     -308.080     -152.330      -19.254      175.298      142.918       81.499    30729.532    20425.652     6642.027        8.813        2.890      343.683       66.406        0.037      347.632       26.738      862.060
06/16/2013  14:23:00     -245.901     -215.114       -9.626      192.446      174.005       78.656    37035.508    30277.669     6186.764        9.015        3.675      326.713       98.838        0.092      347.310       26.183      862.069
06/16/2013  14:24:00     -370.555     -153.047      -13.394      206.021      125.401       80.087    42444.757    15725.385     6413.993       11.274        3.229      400.916       99.712        0.062      347.434       26.398      862.097
06/16/2013  14:25:00     -164.441     -142.063       14.988      161.636      170.152       87.037    26126.035    28951.743     7575.487        5.504        3.133      217.308       93.929        0.187      347.244       26.070      862.134
06/16/2013  14:26:00     -120.492     -157.717      -15.030       74.806       83.896       44.148     5595.995     7038.564     1949.036        2.710        0.729      198.477       36.054        0.033      346.804       25.314      862.154
06/16/2013  14:27:00      -64.424      -94.435        5.742       49.950       41.363       26.900     2495.035     1710.872      723.600        0.901        0.246      114.317       22.753        0.040      346.918       25.512      862.116
06/16/2013  14:28:00      -10.145     -101.813       -0.039       52.117       62.509       37.634     2716.160     3907.324     1416.284        0.925        0.402      102.317       27.957        0.075      347.152       25.914      862.100
06/16/2013  14:29:00        1.728       29.951       12.045       38.061       34.632       33.156     1448.642     1199.351     1099.301        0.240        0.187       30.001       24.522        0.668      347.467       26.459      862.059
06/16/2013  14:30:00       56.204       86.294        2.195       48.915       55.493       37.995     2392.696     3079.434     1443.656        0.876        0.346      102.983       35.265        0.117      347.139       25.891      862.028
06/16/2013  14:31:00       72.249      155.621       -6.868       64.891       87.800       48.408     4210.890     7708.888     2343.347        2.187        0.713      171.574       50.824        0.088      347.099       25.822      862.022
06/16/2013  14:32:00       16.746       27.960       11.872       93.806       70.547       48.652     8799.504     4976.838     2367.000        0.867        0.807       32.591       28.596        0.770      347.408       26.355      862.012
06/16/2013  14:33:00      -77.189      -18.536       -2.174       55.598       31.553       33.543     3091.177      995.606     1125.151        0.576        0.261       79.384       21.969        0.077      347.418       26.373      862.018
06/16/2013  14:34:00     -120.348     -112.301        8.969       84.917       81.661       41.956     7210.870     6668.544     1760.342        2.140        0.782      164.606       36.505        0.049      347.198       25.992      862.012
06/16/2013  14:35:00     -225.858     -150.816       -6.087      121.414      113.485       56.132    14741.338    12878.919     3150.857        5.228        1.539      271.583       69.255        0.065      347.078       25.784      862.001
06/16/2013  14:36:00      -49.511      -53.660        3.752      107.514       65.786       42.094    11559.263     4327.782     1771.876        1.150        0.883       73.012       53.240        0.532      347.384       26.314      862.018
06/16/2013  14:37:00     -290.913     -169.768       12.070      141.117       96.310       60.547    19913.905     9275.648     3665.991        7.322        1.643      336.825       71.330        0.045      347.194       25.984      862.012
06/16/2013  14:38:00      -85.027     -206.502      -10.312      116.916      152.827       61.891    13669.400    23355.989     3830.556        4.541        2.043      223.322       65.224        0.085      347.210       26.011      861.996
06/16/2013  14:39:00      -77.443      -61.150        3.597       77.342       84.425       49.991     5981.763     7127.580     2499.094        1.268        0.780       98.675       43.580        0.195      347.383       26.311      861.948
06/16/2013  14:40:00     -208.435      -15.683       -2.926      119.885       91.641       56.281    14372.419     8398.156     3167.561        3.481        1.297      209.024       57.674        0.076      347.861       27.135      861.968
06/16/2013  14:41:00     -309.562       30.694      -33.859      146.133      137.911       72.227    21354.971    19019.390     5216.766        7.175        2.280      311.080       59.294        0.036      347.745       26.933      862.003
06/16/2013  14:42:00     -334.943     -194.397       -5.673      259.085      170.795       91.934    67124.890    29170.878     8451.791       12.736        5.237      387.268      114.074        0.087      347.575       26.641      862.022
06/16/2013  14:43:00     -291.813      -32.139       -3.337      196.812      105.325       89.038    38734.778    11093.398     7927.696        7.197        2.888      293.577       92.839        0.100      347.778       26.990      862.012
06/16/2013  14:44:00     -233.664     -144.876       -9.342      127.271       91.662       60.842    16198.033     8401.948     3701.752        5.198        1.415      274.933       58.600        0.045      347.778       26.989      862.039
06/16/2013  14:45:00     -267.386      -96.286        0.715      159.958       92.448       60.598    25586.431     8546.613     3672.123        5.928        1.890      284.194       63.792        0.050      347.694       26.845      862.037
06/16/2013  14:46:00     -272.418       -6.525        0.729      155.381      108.399       65.862    24143.382    11750.291     4337.848        5.724        2.012      272.496       61.947        0.052      347.763       26.964      862.051
06/16/2013  14:47:00     -130.415       21.572        4.615      121.395       79.252       54.399    14736.855     6280.912     2959.263        2.073        1.199      132.187       50.001        0.143      348.072       27.500      862.056
06/16/2013  14:48:00     -274.107      -62.830      -12.529      104.424       77.708       55.493    10904.275     6038.478     3079.500        4.963        1.001      281.216       60.780        0.047      347.266       26.107      862.065
06/16/2013  14:49:00     -124.141      -25.022        3.191      112.019       56.722       32.024    12548.312     3217.335     1025.510        1.642        0.840      126.638       48.320        0.146      347.516       26.542      862.052
06/16/2013  14:50:00     -124.901     -128.901       -3.975      112.326      120.233       55.271    12617.050    14456.061     3054.868        3.117        1.506      179.487       53.014        0.087      347.501       26.514      862.040
06/16/2013  14:51:00     -335.922       29.851      -20.959      166.475      124.448       53.534    27713.850    15487.298     2865.899        8.011        2.303      337.246       62.777        0.035      347.516       26.539      862.050
06/16/2013  14:52:00     -246.450      -68.687       10.279      205.740      178.747       73.703    42328.780    31950.655     5432.083        7.262        3.986      255.843       79.908        0.098      347.882       27.171      862.011
06/16/2013  14:53:00     -290.155     -113.003       -7.024      174.577      103.262       70.751    30477.178    10663.066     5005.637        7.157        2.307      311.384       87.745        0.079      347.965       27.313      862.035
06/16/2013  14:54:00     -212.207       66.947      -26.063      151.775      177.975       57.854    23035.660    31675.073     3347.119        5.411        2.903      222.516       39.354        0.031      347.513       26.533      862.036
06/16/2013  14:55:00     -126.246      144.172      -18.214       54.594       93.289       38.700     2980.459     8702.860     1497.665        2.512        0.659      191.634       32.084        0.028      347.316       26.196      862.002
06/16/2013  14:56:00      -91.280       73.989        0.463       75.954       63.129       53.645     5768.989     3985.280     2877.739        1.322        0.632      117.500       38.508        0.107      347.684       26.830      861.988
06/16/2013  14:57:00      -72.246      -77.098       10.789       95.857       81.421       42.980     9188.600     6629.387     1847.246        1.447        0.883      105.657       45.445        0.185      347.712       26.879      862.023
06/16/2013  14:58:00      -85.370      -89.349        3.883       94.484       86.835       37.473     8927.167     7540.234     1404.243        1.658        0.894      123.577       23.401        0.036      347.689       26.840      862.000
06/16/2013  14:59:00     -320.507     -204.724       -2.917      188.673      161.915       83.008    35597.573    26216.587     6890.343       10.666        3.435      380.312       85.847        0.051      347.708       26.868      861.961
06/16/2013  15:00:00     -438.410     -121.956        1.078      180.105      142.926       81.105    32437.813    20427.824     6577.986       13.325        2.972      455.056       93.961        0.043      347.582       26.653      861.992
06/16/2013  15:01:00     -477.994     -316.272       -6.793      210.104      196.929      100.521    44143.796    38781.146    10104.534       21.077        4.651      573.155      107.879        0.035      347.540       26.578      861.998
06/16/2013  15:02:00     -372.888     -269.893       -7.834      150.773      175.924       87.061    22732.347    30949.175     7579.603       13.659        3.063      460.312       79.688        0.030      347.575       26.640      862.037
06/16/2013  15:03:00     -472.418     -108.779      -41.717      204.328      204.250       88.165    41750.023    41717.941     7772.992       16.398        4.562      484.780       91.398        0.036      347.472       26.463      862.055
06/16/2013  15:04:00     -212.739      -79.600       12.049      241.927      179.573       95.898    58528.813    32246.550     9196.463        7.584        4.999      227.143      124.101        0.299      347.387       26.318      862.086
06/16/2013  15:05:00     -130.983      -47.560       38.648      141.692      123.397       73.025    20076.710    15226.917     5332.611        3.077        2.032      139.351       79.931        0.329      347.366       26.280      862.128
06/16/2013  15:06:00     -139.351       -1.622        6.388      162.464       92.081       71.287    26394.568     8478.971     5081.873        2.970        1.998      139.360       86.806        0.388      347.397       26.333      862.140
06/16/2013  15:07:00     -202.912       70.299      -24.019      125.202       99.336       56.913    15675.575     9867.597     3239.128        3.773        1.439      214.744       52.089        0.059      347.211       26.013      862.148
06/16/2013  15:08:00     -180.832       19.904        2.594       89.063      104.497       56.194     7932.255    10919.548     3157.733        2.755        1.100      181.924       49.679        0.075      347.352       26.257      862.136
06/16/2013  15:09:00     -412.134       17.254      -15.743      129.561      114.590       54.597    16786.099    13130.809     2980.844       10.164        1.645      412.495       54.051        0.017      347.116       25.849      862.147
06/16/2013  15:10:00     -329.836      -40.856      -28.757      167.375       92.261       58.991    28014.499     8512.078     3479.963        7.564        2.000      332.357       75.878        0.052      347.139       25.889      862.152
06/16/2013  15:11:00     -182.624      -38.266       -8.341      143.140       97.338       54.556    20488.974     9474.761     2976.326        3.391        1.647      186.590       69.014        0.137      347.203       26.000      862.145
06/16/2013  15:12:00     -106.596      -73.212        0.652       96.057       66.926       49.941     9227.031     4479.118     2494.085        1.646        0.810      129.316       43.173        0.111      347.302       26.172      862.136
06/16/2013  15:13:00     -112.622     -108.301        9.880       84.312       68.477       54.721     7108.535     4689.126     2994.414        1.965        0.740      156.246       56.374        0.130      347.286       26.144      862.117
06/16/2013  15:14:00     -161.142     -177.454       -2.651      118.602      109.141       47.118    14066.461    11911.767     2220.134        4.283        1.410      239.701       40.694        0.029      347.216       26.021      862.078
06/16/2013  15:15:00     -206.853      -76.674       -4.673      132.177      117.867       62.074    17470.774    13892.606     3853.231        4.195        1.761      220.606       56.544        0.066      347.650       26.770      862.113
06/16/2013  15:16:00     -106.641      -86.683       16.571       91.539      102.190       54.285     8379.430    10442.744     2946.839        2.046        1.088      137.427       56.437        0.169      347.709       26.873      862.097
06/16/2013  15:17:00     -121.606     -128.861        6.974      146.791      118.128       42.391    21547.497    13954.231     1796.968        3.436        1.865      177.181       57.999        0.107      347.837       27.094      862.068
06/16/2013  15:18:00     -341.751     -214.446      -13.512      163.472      148.674       75.119    26723.252    22103.941     5642.819       10.871        2.724      403.461       85.702        0.045      347.627       26.729      862.081
06/16/2013  15:19:00     -192.702     -115.280      -21.183      140.537       72.511       55.699    19750.691     5257.857     3102.404        3.949        1.406      224.552       43.450        0.037      347.139       25.890      862.110
06/16/2013  15:20:00     -215.563      -28.528       -8.395      107.155      125.139       53.184    11482.266    15659.775     2828.530        3.866        1.499      217.443       49.560        0.052      347.423       26.379      862.085
06/16/2013  15:21:00     -212.237       -3.485      -13.297      125.455      101.351       43.073    15738.970    10272.106     1855.286        3.654        1.393      212.265       53.863        0.064      347.705       26.866      862.040
06/16/2013  15:22:00     -235.714        5.014      -13.116      145.466      141.499       77.445    21160.229    20021.918     5997.689        5.146        2.359      235.767       67.891        0.083      347.750       26.943      862.035
06/16/2013  15:23:00     -201.195     -165.406       -0.029      166.389      138.429       60.226    27685.326    19162.572     3627.206        5.915        2.524      260.458       64.402        0.061      347.659       26.786      862.057
06/16/2013  15:24:00     -245.102     -178.443       11.227      152.766      139.563       77.139    23337.495    19477.940     5950.448        7.039        2.438      303.178       87.851        0.084      347.868       27.146      862.060
06/16/2013  15:25:00     -330.653     -219.466       -2.925      196.857      167.393       86.560    38752.541    28020.539     7492.607       11.587        3.713      396.858       95.386        0.058      347.549       26.596      862.028
06/16/2013  15:26:00     -320.215     -185.749       -8.067      208.384      173.306       76.517    43423.881    30035.127     5854.817       10.819        3.966      370.189      103.842        0.079      347.832       27.084      862.042
06/16/2013  15:27:00      -51.805      -50.696       12.865      110.917       84.532       49.981    12302.680     7145.609     2498.145        1.368        1.097       72.483       55.729        0.591      348.118       27.579      862.039
06/16/2013  15:28:00     -268.581      -14.737       -0.343      179.508      127.231       85.419    32223.132    16187.826     7296.381        6.402        2.785      268.985       76.886        0.082      348.011       27.393      862.060
06/16/2013  15:29:00     -377.399     -170.693       20.712      267.671      206.887       98.400    71648.003    42802.296     9682.612       14.804        6.207      414.206      118.877        0.082      347.553       26.604      862.022
06/16/2013  15:30:00     -701.856      -35.955      -61.831      247.786      191.581      105.740    61398.143    36703.435    11180.915       30.348        5.464      702.776      103.464        0.022      347.498       26.508      861.990
06/16/2013  15:31:00     -415.338      -40.717       -8.371      251.649      176.770       92.659    63327.360    31247.806     8585.649       13.868        5.158      417.329      113.655        0.074      347.775       26.984      862.002
06/16/2013  15:32:00     -461.560       -5.614      -22.077      262.547      200.211      101.778    68931.085    40084.313    10358.770       16.644        5.969      461.594      111.895        0.059      347.744       26.931      862.085
06/16/2013  15:33:00     -483.379     -204.107       -7.574      244.733      183.578      101.953    59894.332    33700.844    10394.413       18.966        5.199      524.704      123.562        0.055      347.412       26.361      862.064
06/16/2013  15:34:00     -435.846     -129.771       -2.488      283.828      176.555      112.964    80558.093    31171.779    12760.784       16.562        6.225      454.755      144.496        0.101      347.331       26.219      862.081
06/16/2013  15:35:00     -310.812      -83.263      -19.720      154.995      146.287       80.377    24023.580    21399.933     6460.433        7.789        2.594      321.771       73.040        0.052      347.458       26.440      862.075
06/16/2013  15:36:00     -353.142      -72.935      -45.961      108.708      122.392       62.872    11817.327    14979.889     3952.920        8.144        1.538      360.595       38.757        0.012      347.524       26.551      862.063
06/16/2013  15:37:00     -499.828      -23.703      -35.021      157.674      115.956       68.872    24861.021    13445.731     4743.322       14.732        2.153      500.390       67.274        0.018      347.477       26.472      862.089
06/16/2013  15:38:00     -397.300      -20.494      -42.678      126.484      107.504       55.423    15998.249    11557.113     3071.710        9.535        1.531      397.828       43.495        0.012      347.348       26.248      862.069
06/16/2013  15:39:00     -340.724     -112.083      -11.691      191.089      129.790       68.833    36514.911    16845.348     4737.943        9.343        2.905      358.686       65.055        0.033      347.585       26.658      862.054
06/16/2013  15:40:00     -337.187      -48.420      -19.858      177.698      136.955       65.547    31576.534    18756.542     4296.464        8.552        2.731      340.646       65.024        0.036      347.675       26.812      862.050
06/16/2013  15:41:00      -71.847       18.844       21.702      128.371       84.937       47.977    16479.198     7214.308     2301.783        1.599        1.300       74.277       42.925        0.334      347.900       27.202      862.053
06/16/2013  15:42:00     -340.078      -50.158      -16.863      211.159      118.519       63.094    44588.268    14046.643     3980.800        9.052        3.131      343.757       72.143        0.044      347.679       26.821      862.055
06/16/2013  15:43:00     -326.815      -79.847       -2.440      170.003      138.019       72.487    28901.026    19049.115     5254.315        8.319        2.660      336.428       73.445        0.048      347.692       26.843      862.028
06/16/2013  15:44:00     -201.281       10.594        6.231       97.920      123.516       67.828     9588.266    15256.244     4600.582        3.505        1.472      201.560       59.060        0.086      347.939       27.269      862.068
06/16/2013  15:45:00     -320.344      -55.160        3.637      214.871      175.888       93.731    46169.357    30936.686     8785.525        9.577        4.295      325.059      100.042        0.095      347.686       26.831      862.074
06/16/2013  15:46:00     -288.745     -116.391        3.111      176.930      151.628       79.972    31304.364    22991.156     6395.535        7.880        3.035      311.321       89.528        0.083      347.521       26.547      862.068
06/16/2013  15:47:00     -262.452     -234.742        8.850      185.783      159.842       93.167    34515.339    25549.526     8680.138        9.639        3.437      352.115      101.352        0.083      347.528       26.559      862.052
06/16/2013  15:48:00     -252.885       40.654        4.591      212.297      165.828       91.243    45069.986    27498.997     8325.308        7.324        4.045      256.132      101.707        0.158      347.726       26.901      862.063
06/16/2013  15:49:00     -272.248     -102.554      -20.634      194.903      166.247       85.422    37987.364    27638.005     7296.997        7.898        3.646      290.923       91.414        0.099      347.876       27.160      862.058
06/16/2013  15:50:00     -217.413      -79.403        8.225      156.595      163.814       76.189    24522.110    26834.998     5804.777        5.539        2.858      231.459       71.523        0.095      347.732       26.910      862.111
06/16/2013  15:51:00     -218.556     -125.640       -6.101      144.889       93.377       71.693    20992.884     8719.222     5139.958        4.921        1.743      252.095       79.165        0.099      347.575       26.640      862.126
06/16/2013  15:52:00     -338.697     -114.189      -13.088      163.487      153.005       78.710    26728.026    23410.535     6195.302        9.212        2.817      357.428       80.645        0.051      347.491       26.496      862.130
06/16/2013  15:53:00     -185.405      -74.581       15.240      131.569      104.890       63.978    17310.367    11001.924     4093.132        3.628        1.620      199.843       65.743        0.108      347.609       26.700      862.099
06/16/2013  15:54:00     -473.884     -158.451       -2.805      198.219      149.793       88.717    39290.957    22437.962     7870.766       15.963        3.480      499.673      104.049        0.043      347.562       26.617      862.079
06/16/2013  15:55:00     -439.072     -318.303        0.674      231.080      135.017       93.495    53397.784    18229.617     8741.289       18.722        4.018      542.311      118.401        0.048      347.053       25.741      862.095
06/16/2013  15:56:00     -358.745     -194.645        3.304      115.680      112.406       64.655    13381.848    12635.208     4180.286        9.839        1.510      408.148       67.040        0.027      347.192       25.978      862.071
06/16/2013  15:57:00     -152.730     -177.187        9.934      134.705      101.377       69.854    18145.340    10277.246     4879.627        4.405        1.665      233.927       81.124        0.120      347.303       26.172      862.082
06/16/2013  15:58:00      -62.428      -25.696       30.253      152.417       89.642       68.523    23230.992     8035.604     4695.424        2.071        1.798       67.510       77.184        1.307      347.794       27.020      862.083
06/16/2013  15:59:00     -170.517      -70.994        9.297      123.333      102.736       61.361    15210.936    10554.598     3765.196        3.186        1.477      184.705       55.163        0.089      347.747       26.938      862.078
06/16/2013  16:00:00     -355.827     -130.031      -33.820      165.997      101.760       71.031    27555.009    10355.125     5045.378        9.380        2.148      378.842       77.369        0.042      347.529       26.559      862.053
06/16/2013  16:01:00     -554.787     -138.345      -27.560      200.082      172.913       84.180    40033.004    29898.817     7086.252       20.234        3.851      571.777       92.596        0.026      347.423       26.378      862.056
06/16/2013  16:02:00     -442.015      -90.932      -32.461      129.060      131.169       61.631    16656.403    17205.181     3798.342       12.117        1.883      451.272       49.465        0.012      347.278       26.128      862.060
06/16/2013  16:03:00     -246.670      -42.901      -21.887       99.880       83.028       38.929     9976.005     6893.648     1515.443        4.077        0.919      250.373       35.390        0.020      347.160       25.924      862.023
06/16/2013  16:04:00     -164.854      -71.962       -3.004      138.672       94.975       62.686    19229.987     9020.184     3929.476        3.227        1.609      179.876       50.487        0.079      347.466       26.453      862.001
06/16/2013  16:05:00     -386.049       -7.232      -19.944      167.977      141.079       72.264    28216.225    19903.399     5222.124       10.140        2.667      386.116       67.870        0.031      347.607       26.695      862.021
06/16/2013  16:06:00     -342.114      -39.128       -1.505      218.343      128.764       69.228    47673.763    16580.110     4792.499        9.380        3.452      344.344       80.948        0.055      347.788       27.009      862.098
06/16/2013  16:07:00     -255.419      -48.490      -14.664      133.270      104.956       53.443    17760.928    11015.665     2856.147        4.971        1.582      259.981       52.659        0.041      347.461       26.445      862.090
06/16/2013  16:08:00     -171.293      -32.281       -6.022      148.924       75.544       49.638    22178.387     5706.937     2463.963        3.038        1.517      174.308       63.937        0.135      347.744       26.933      862.030
06/16/2013  16:09:00     -290.258       23.948      -26.413      111.172      105.193       57.351    12359.257    11065.659     3289.112        5.611        1.336      291.244       51.213        0.031      347.578       26.644      862.028
06/16/2013  16:10:00     -232.762      -77.076       -1.932      152.100      136.999       63.739    23134.272    18768.783     4062.712        5.304        2.298      245.192       53.433        0.047      347.475       26.468      862.011
06/16/2013  16:11:00      -75.778       15.853       23.775       93.577       85.268       61.038     8756.618     7270.696     3725.578        1.315        0.988       77.418       54.661        0.498      347.989       27.359      861.977
06/16/2013  16:12:00     -154.288       26.749       -2.516      100.130      164.673       61.261    10025.939    27117.242     3752.931        3.270        2.045      156.590       44.978        0.083      347.806       27.038      862.015
06/16/2013  16:13:00     -294.416       -1.037      -16.433      137.216       97.836       56.291    18828.341     9571.887     3168.728        5.925        1.578      294.418       46.039        0.024      347.517       26.540      862.013
06/16/2013  16:14:00     -266.242      -21.163      -23.479      131.334      112.891       58.998    17248.710    12744.377     3480.778        5.267        1.674      267.082       42.557        0.025      347.723       26.895      861.996
06/16/2013  16:15:00     -315.036       82.218      -11.295      169.196       97.078       68.545    28627.354     9424.088     4698.469        7.443        2.137      325.588       74.881        0.053      347.823       27.068      862.021
06/16/2013  16:16:00     -140.622      -73.598       -8.909       73.973       67.144       46.007     5472.056     4508.275     2116.642        1.868        0.605      158.717       36.203        0.052      348.054       27.468      862.068
06/16/2013  16:17:00     -142.162     -111.651        6.302      173.304      123.881       67.565    30034.363    15346.483     4564.973        4.132        2.497      180.764       61.951        0.117      347.950       27.289      862.046
06/16/2013  16:18:00     -153.938     -131.648       13.760      127.115      141.469       64.001    16158.130    20013.512     4096.158        4.073        2.013      202.554       78.336        0.150      347.881       27.170      862.029
06/16/2013  16:19:00     -138.409      -32.308       34.240      231.702      107.727       80.725    53685.791    11605.203     6516.586        4.658        3.590      142.130      108.532        0.583      348.162       27.655      862.014
06/16/2013  16:20:00     -366.198      -15.571      -27.716      212.109      155.250       62.876    44990.090    24102.510     3953.406       10.406        3.652      366.529       70.356        0.037      347.763       26.964      862.037
06/16/2013  16:21:00     -279.440       44.414      -51.248      152.801      164.362       74.308    23348.271    27014.799     5521.739        6.927        2.794      282.948       38.657        0.019      347.697       26.850      862.023
06/16/2013  16:22:00     -132.735       30.355      -10.355      108.503       95.995       51.504    11772.885     9215.120     2652.677        2.114        1.182      136.162       50.801        0.139      348.044       27.452      862.003
06/16/2013  16:23:00     -302.585      -47.336      -17.548      152.345      120.999       57.604    23209.088    14640.792     3318.270        6.763        2.058      306.265       60.933        0.040      347.465       26.451      861.988
06/16/2013  16:24:00     -208.144     -108.163       -9.747      142.250      102.885       83.395    20235.065    10585.343     6954.722        4.644        1.889      234.571       69.447        0.088      347.865       27.141      861.952
06/16/2013  16:25:00     -644.107      -59.348      -46.289      246.316      220.190       97.512    60671.415    48483.810     9508.653       26.958        5.933      646.835       88.991        0.019      347.609       26.698      861.934
06/16/2013  16:26:00     -596.309     -125.661      -28.548      267.375      180.803       88.926    71489.434    32689.679     7907.755       24.212        5.604      609.405      106.963        0.031      347.590       26.666      861.937
06/16/2013  16:27:00     -275.837     -182.563       11.622      216.069      172.160       91.427    46685.873    29639.013     8358.916        9.710        4.234      330.780       98.637        0.089      347.684       26.829      862.007
06/16/2013  16:28:00     -380.423      -91.840       -9.732      195.499      118.939       83.480    38219.894    14146.399     6968.951       10.628        2.967      391.351      102.955        0.069      347.578       26.645      862.027
06/16/2013  16:29:00     -470.687      -74.868      -26.830      178.655      171.254       82.342    31917.547    29327.815     6780.227       14.793        3.401      476.604       57.154        0.014      347.663       26.791      862.023
06/16/2013  16:30:00     -407.096     -173.030      -14.942      228.311      143.289       81.097    52125.761    20531.844     6576.684       13.755        3.962      442.342       93.485        0.045      347.489       26.491      862.029
06/16/2013  16:31:00     -289.916     -201.029      -16.835      185.420      130.400       78.449    34380.618    17004.171     6154.270        9.113        2.877      352.795       92.769        0.069      347.318       26.198      862.047
06/16/2013  16:32:00     -138.289     -206.107      -22.404      222.206      140.969       78.631    49375.447    19872.123     6182.861        6.875        3.772      248.202       76.126        0.094      347.293       26.155      862.012
06/16/2013  16:33:00      -21.891       -4.585      -20.513       81.330       89.284       41.763     6614.643     7971.587     1744.111        0.862        0.817       22.366       32.003        2.047      347.594       26.675      862.007
06/16/2013  16:34:00     -155.416     -129.194       17.325      236.200      180.190       90.054    55790.390    32468.314     8109.803        6.874        4.818      202.103       97.375        0.232      347.713       26.880      862.025
06/16/2013  16:35:00     -367.931      -47.778      -14.686      178.121      144.343       74.404    31727.079    20834.780     5535.896        9.797        2.905      371.020       86.879        0.055      347.844       27.104      862.025
06/16/2013  16:36:00     -535.121     -171.918      -38.959      213.983      179.709       96.501    45788.833    32295.254     9312.436       20.239        4.370      562.059       84.058        0.022      347.440       26.408      862.063
06/16/2013  16:37:00     -438.316     -128.871      -25.366      133.063      133.640       66.664    17705.668    17859.705     4444.151       12.468        2.000      456.869       60.682        0.018      347.296       26.160      862.063
06/16/2013  16:38:00     -236.869      -73.340        1.645      174.743      137.024       88.436    30534.959    18775.502     7821.002        5.930        2.857      247.963       89.523        0.130      347.563       26.621      862.078
06/16/2013  16:39:00     -271.838     -144.349      -20.840      186.535      115.473       73.388    34795.457    13334.018     5385.776        7.433        2.676      307.786       79.693        0.067      347.574       26.638      862.051
06/16/2013  16:40:00     -450.641     -164.761      -19.763      199.532      166.294       87.238    39812.898    27653.661     7610.534       15.283        3.754      479.817       80.897        0.028      347.474       26.467      862.071
06/16/2013  16:41:00     -340.383     -322.556        5.633      216.562      169.811      115.606    46899.044    28835.665    13364.855       15.450        4.455      468.938      122.657        0.068      347.323       26.206      862.061
06/16/2013  16:42:00     -374.564     -294.684       -0.143      220.852      161.119      107.535    48775.646    25959.433    11563.744       15.670        4.315      476.589      120.644        0.064      347.172       25.946      862.058
06/16/2013  16:43:00     -332.644     -210.317        0.791      226.075      178.974      102.060    51109.809    32031.608    10416.221       12.420        4.678      393.554      126.335        0.103      347.284       26.138      862.067
06/16/2013  16:44:00     -571.120     -270.841      -14.995      219.961      184.892       89.716    48382.808    34185.205     8049.014       24.517        4.531      632.086       91.597        0.021      347.237       26.057      862.046
06/16/2013  16:45:00     -482.388     -311.272      -21.806      230.336      157.851      104.944    53054.725    24916.800    11013.169       20.951        4.449      574.099      109.941        0.037      347.212       26.014      862.090
06/16/2013  16:46:00     -202.641     -139.202        4.574      191.529      123.519       67.555    36683.303    15256.822     4563.695        5.847        2.825      245.847       69.811        0.081      347.231       26.046      862.097
06/16/2013  16:47:00     -393.370     -169.714      -25.040      156.355      104.438       57.137    24446.917    10907.380     3264.586       11.139        1.931      428.419       64.979        0.023      347.122       25.859      862.030
06/16/2013  16:48:00     -285.310     -171.484        1.020      164.514      116.161       67.268    27064.804    13493.403     4525.026        7.794        2.254      332.879       77.145        0.054      347.337       26.229      862.035
06/16/2013  16:49:00     -381.277     -167.115       -3.547      235.487      180.163       92.761    55454.102    32458.596     8604.637       13.490        4.826      416.293      116.131        0.078      347.482       26.480      862.055
06/16/2013  16:50:00     -328.605      -14.573      -18.957      185.698      117.927       81.214    34483.890    13906.704     6595.697        8.176        2.749      328.928       85.972        0.068      347.409       26.353      862.075
06/16/2013  16:51:00     -143.702     -150.421        9.473      146.500      103.635       68.634    21462.282    10740.118     4710.594        4.013        1.846      208.031       75.642        0.132      347.510       26.528      862.054
06/16/2013  16:52:00     -236.884     -190.468        8.885      179.627      140.844       78.277    32265.781    19837.056     6127.318        7.534        2.912      303.960       81.265        0.071      347.175       25.950      862.032
06/16/2013  16:53:00     -376.461     -130.744      -19.097      222.883      160.442       89.501    49676.968    25741.662     8010.419       12.129        4.171      398.518      106.360        0.071      347.365       26.277      862.010
06/16/2013  16:54:00     -400.568     -203.181       -5.094      281.489      247.805      101.033    79236.272    61407.282    10207.759       17.628        7.543      449.152      103.578        0.053      347.375       26.294      862.022
06/16/2013  16:55:00     -299.490      -96.793      -17.863      168.715      166.645       60.884    28464.635    27770.489     3706.911        7.965        2.997      314.743       56.214        0.032      347.510       26.527      862.073
06/16/2013  16:56:00     -322.440     -157.778        2.061      199.649      164.923       85.731    39859.706    27199.451     7349.808       10.162        3.720      358.973       95.730        0.071      347.409       26.355      862.076
06/16/2013  16:57:00     -322.873      -54.577       -8.941      127.170      151.941       69.891    16172.125    23086.004     4884.736        7.572        2.207      327.453       66.835        0.042      347.428       26.385      862.077
06/16/2013  16:58:00     -454.639     -153.875      -20.659      160.045      179.612       97.948    25614.310    32260.305     9593.877       14.912        3.373      479.973       83.555        0.030      347.427       26.384      862.056
06/16/2013  16:59:00     -453.907      -27.369       -8.547      209.534      200.983      100.054    43904.614    40394.191    10010.737       15.056        4.715      454.732      103.949        0.052      347.484       26.483      862.071
06/16/2013  17:00:00     -506.200     -160.637      -15.822      266.196      136.845       84.370    70860.527    18726.477     7118.313       18.948        4.835      531.077      107.806        0.041      347.256       26.089      862.065
06/16/2013  17:01:00     -288.031      -80.799      -15.424      219.930      127.935       75.481    48369.219    16367.267     5697.376        8.007        3.522      299.150       80.995        0.073      347.525       26.553      862.056
06/16/2013  17:02:00     -498.736     -168.915      -13.449      193.396      142.659       83.134    37402.193    20351.650     6911.193       17.104        3.233      526.564       92.926        0.031      347.369       26.286      862.095
06/16/2013  17:03:00     -238.075     -150.568        6.481      150.120      144.736       84.063    22536.047    20948.650     7066.620        6.496        2.528      281.692       84.121        0.089      347.353       26.257      862.100
06/16/2013  17:04:00     -203.071      -42.791        2.350      114.005       92.909       50.608    12997.210     8632.115     2561.210        3.363        1.210      207.530       56.183        0.073      347.445       26.416      862.087
06/16/2013  17:05:00     -275.230      -89.114      -12.432      157.574      113.879       59.645    24829.442    12968.330     3557.471        6.259        2.068      289.297       69.931        0.058      347.515       26.538      862.059
06/16/2013  17:06:00     -333.344     -217.083        4.608      176.340      164.787       77.193    31095.936    27154.731     5958.745       11.122        3.210      397.798       80.294        0.041      347.535       26.570      862.087
06/16/2013  17:07:00     -351.647     -200.781        7.999      160.132      161.816       82.646    25642.207    26184.420     6830.407       11.133        2.933      404.931       81.502        0.041      347.413       26.360      862.101
06/16/2013  17:08:00     -362.004     -166.835       25.155      242.505      193.494      114.010    58808.483    37439.956    12998.325       13.436        5.462      398.599      128.222        0.103      347.457       26.438      862.091
06/16/2013  17:09:00     -466.261     -149.611       -0.983      190.921      169.183       83.823    36450.826    28622.992     7026.224       15.593        3.605      489.676       94.757        0.037      347.327       26.212      862.132
06/16/2013  17:10:00     -544.585      -70.476      -26.417      198.885      153.905       76.848    39555.283    23686.613     5905.617       18.568        3.457      549.126       91.003        0.027      347.361       26.270      862.127
06/16/2013  17:11:00     -402.280      -12.833      -14.808      181.649      162.979       82.168    32996.334    26562.253     6751.588       11.425        3.316      402.485       87.148        0.047      347.501       26.512      862.136
06/16/2013  17:12:00     -371.177      -23.545      -27.879      168.252      117.484       76.462    28308.708    13802.565     5846.408        9.352        2.398      371.923       75.550        0.041      347.529       26.562      862.149
06/16/2013  17:13:00     -390.653      -62.101      -19.518      200.747      136.932       85.048    40299.291    18750.456     7233.143       11.155        3.314      395.558       94.106        0.057      347.502       26.514      862.155
06/16/2013  17:14:00     -340.876     -248.812       -4.391      191.252      151.671       82.050    36577.481    23004.178     6732.135       12.221        3.316      422.023       86.403        0.042      347.127       25.866      862.135
06/16/2013  17:15:00     -326.298     -203.005       -1.902      200.642      137.937       73.208    40257.089    19026.686     5359.412       10.615        3.232      384.294       84.849        0.049      347.112       25.844      862.121
06/16/2013  17:16:00     -239.812     -157.886        9.358      148.054      102.275       61.194    21919.983    10460.158     3744.760        5.932        1.806      287.120       68.211        0.056      347.266       26.107      862.096
06/16/2013  17:17:00     -254.628     -175.728        0.324      171.246      122.088       72.565    29325.042    14905.527     5265.742        7.260        2.475      309.380       83.040        0.072      347.365       26.276      862.077
06/16/2013  17:18:00     -410.676      -48.784       -4.056      258.604      196.887       92.108    66875.785    38764.442     8483.855       14.256        5.706      413.563      111.369        0.073      347.446       26.417      862.096
06/16/2013  17:19:00     -233.672       54.729       -1.568      178.743      206.888       91.785    31948.989    42802.629     8424.480        7.037        4.159      239.996       91.466        0.145      347.695       26.847      862.052
06/16/2013  17:20:00     -223.849     -117.275      -12.239      143.274       85.355       55.118    20527.439     7285.478     3037.976        4.742        1.543      252.708       55.866        0.049      347.703       26.862      862.102
06/16/2013  17:21:00     -368.095      -59.076      -24.797      191.002      192.115       79.907    36481.602    36908.081     6385.131       10.967        3.989      372.805       73.290        0.039      347.550       26.596      862.114
06/16/2013  17:22:00     -647.802      103.069      -55.761      177.047      122.780       95.904    31345.540    15074.829     9197.649       24.449        2.781      655.950       96.176        0.021      347.254       26.086      862.089
06/16/2013  17:23:00     -562.115     -171.270      -20.271      160.079      168.770       80.396    25625.411    28483.229     6463.443       20.313        3.029      587.628       72.154        0.015      347.172       25.944      862.107
06/16/2013  17:24:00     -474.169      -95.664      -40.421      171.663      137.612       70.635    29468.306    18937.125     4989.343       14.450        2.670      483.723       75.070        0.024      347.244       26.069      862.092
06/16/2013  17:25:00     -214.988     -192.524       -7.491      179.155      146.935       84.976    32096.453    21589.949     7220.886        7.211        3.045      288.592      103.433        0.128      347.459       26.440      862.103
06/16/2013  17:26:00     -207.062     -137.463        1.085      150.905      101.634       70.330    22772.363    10329.492     4946.312        4.990        1.902      248.537       80.353        0.105      347.453       26.431      862.098
06/16/2013  17:27:00     -289.959      -66.431      -19.021      144.474      135.917       65.934    20872.690    18473.502     4347.328        6.626        2.185      297.471       68.462        0.053      347.554       26.602      862.117
06/16/2013  17:28:00     -304.422     -162.753      -31.425      196.941      171.383       85.608    38785.854    29371.965     7328.676        9.780        3.774      345.197       99.547        0.083      347.571       26.634      862.107
06/16/2013  17:29:00     -284.733     -170.740        5.657      218.675      167.722       99.471    47818.823    28130.735     9894.549        9.803        4.292      332.002      118.825        0.128      347.462       26.445      862.088
06/16/2013  17:30:00     -401.211     -206.861       -3.924      240.103      149.322       83.491    57649.363    22297.131     6970.737       14.533        4.346      451.400      102.692        0.052      347.413       26.362      862.103
06/16/2013  17:31:00     -242.046      -82.292        1.461      196.957      165.059       72.136    38792.237    27244.544     5203.540        6.829        3.562      255.653       91.423        0.128      347.363       26.275      862.103
06/16/2013  17:32:00     -331.826      -17.964      -19.483      181.336      116.707       82.820    32882.564    13620.585     6859.154        8.208        2.668      332.312       85.443        0.066      347.559       26.613      862.109
06/16/2013  17:33:00     -332.774      -78.021      -13.588      161.594      144.202       87.584    26112.585    20794.311     7670.925        8.578        2.729      341.798       75.770        0.049      347.495       26.502      862.135
06/16/2013  17:34:00     -422.959     -113.256      -24.413      177.758      199.528       88.289    31597.906    39811.397     7795.005       13.575        3.960      437.860       90.797        0.043      347.326       26.211      862.134
06/16/2013  17:35:00     -373.181      -31.188      -13.406      179.069      111.820       73.931    32065.864    12503.665     5465.792        9.522        2.502      374.482       87.293        0.054      347.200       25.994      862.126
06/16/2013  17:36:00     -322.586     -114.866       -3.785      171.081      141.032       78.852    29268.799    19889.979     6217.648        8.631        2.769      342.427       75.013        0.048      347.156       25.919      862.100
06/16/2013  17:37:00     -492.704     -139.619      -15.645      176.760      131.347       65.295    31244.227    17252.116     4263.396       15.762        2.638      512.104       65.310        0.016      347.294       26.155      862.119
06/16/2013  17:38:00     -323.352      -52.981       13.742      170.619      133.431       82.522    29110.968    17803.788     6809.865        8.063        2.686      327.663       85.233        0.068      347.376       26.297      862.120
06/16/2013  17:39:00     -260.858     -186.025        5.708      235.972      147.028       88.476    55682.686    21617.297     7828.015        9.389        4.256      320.394      100.449        0.098      347.386       26.313      862.132
06/16/2013  17:40:00     -462.830     -121.069      -24.821      236.276      145.826       83.908    55826.473    21265.283     7040.620       15.679        4.207      478.403       84.629        0.031      347.370       26.287      862.152
06/16/2013  17:41:00     -362.941      -37.578      -18.977      151.205      128.224       82.432    22862.843    16441.466     6795.085        8.979        2.305      364.881       83.688        0.053      347.143       25.895      862.178
06/16/2013  17:42:00     -461.458      -99.626       -6.800      184.433      112.781       78.324    34015.488    12719.654     6134.638       13.788        2.643      472.090       89.162        0.036      347.062       25.757      862.120
06/16/2013  17:43:00     -408.055     -190.683       -5.933      251.086      182.121      102.332    63044.228    33168.201    10471.809       15.477        5.334      450.410      124.348        0.076      347.216       26.021      862.115
06/16/2013  17:44:00     -382.607     -175.618       11.621      226.614      156.273       89.087    51353.834    24421.367     7936.409       13.052        4.186      420.987      104.968        0.062      347.252       26.083      862.131
06/16/2013  17:45:00     -428.745     -189.168      -38.722      260.146      137.328       89.173    67675.925    18859.073     7951.851       15.778        4.724      468.623      111.746        0.057      347.013       25.672      862.136
06/16/2013  17:46:00     -232.527     -172.289       -4.550      161.909      149.905       76.041    26214.517    22471.539     5782.223        6.911        2.723      289.399       85.689        0.088      347.328       26.213      862.114
06/16/2013  17:47:00     -419.686      -96.563       -0.282      253.037      147.079       92.934    64027.766    21632.232     8636.786       13.986        4.715      430.651      112.251        0.068      347.306       26.177      862.136
06/16/2013  17:48:00     -445.885      -61.793       -7.997      202.337      135.211       72.066    40940.104    18281.897     5193.577       13.354        3.221      450.146       86.723        0.037      347.256       26.090      862.140
06/16/2013  17:49:00     -241.523      -80.033       20.797      222.767      159.487      106.055    49625.345    25435.997    11247.647        7.572        4.315      254.438      104.421        0.168      347.422       26.376      862.161
06/16/2013  17:50:00     -365.424     -106.771       -2.681      144.884      131.007       69.574    20991.306    17162.827     4840.511        9.396        2.150      380.703       71.891        0.036      347.325       26.209      862.173
06/16/2013  17:51:00     -249.486      -52.897       12.180      139.795      116.769       70.329    19542.513    13635.088     4946.203        5.165        1.906      255.032       63.555        0.062      347.425       26.382      862.195
06/16/2013  17:52:00     -226.517     -170.492       -2.729      178.584      124.927       77.860    31892.255    15606.697     6062.204        6.696        2.678      283.509       81.097        0.082      347.169       25.941      862.185
06/16/2013  17:53:00     -263.406     -129.787       13.470      247.313      173.255      103.997    61163.575    30017.144    10815.277        9.418        5.100      293.645      107.963        0.135      347.308       26.180      862.174
06/16/2013  17:54:00     -475.573     -210.409      -41.950      194.001      150.433       83.882    37636.236    22630.001     7036.234       16.974        3.365      520.040       85.819        0.027      347.053       25.741      862.177
06/16/2013  17:55:00     -345.002     -269.518      -10.318      172.882      170.830       91.567    29888.108    29182.983     8384.508       12.960        3.373      437.797       92.318        0.044      347.087       25.799      862.172
06/16/2013  17:56:00     -322.018     -202.316       -3.808      269.367      168.134       99.708    72558.377    28268.974     9941.627       12.768        5.538      380.299      116.831        0.094      347.167       25.938      862.153
06/16/2013  17:57:00     -373.653     -246.015       -1.608      176.044      149.349       89.877    30991.376    22305.125     8077.965       13.075        3.069      447.370       96.406        0.046      347.160       25.924      862.169
06/16/2013  17:58:00     -222.331     -127.285       21.330      147.811      158.322       78.451    21848.207    25065.938     6154.623        5.957        2.653      256.188       80.876        0.100      347.206       26.003      862.179
06/16/2013  17:59:00     -357.529     -177.739       -9.736      230.196      175.915       85.535    52990.089    30946.135     7316.181       12.536        4.563      399.272       89.780        0.051      347.136       25.884      862.201
06/16/2013  18:00:00     -219.832     -127.031       13.223      209.255      155.284       96.577    43787.745    24113.132     9327.170        7.092        3.861      253.895      104.972        0.171      347.059       25.751      862.195
06/16/2013  18:01:00     -376.123      -43.216      -34.571      202.273      149.243       75.424    40914.187    22273.485     5688.716       10.669        3.444      378.598       90.099        0.057      347.140       25.890      862.213
06/16/2013  18:02:00     -339.138      -97.018      -17.243      270.480      148.880       74.465    73159.409    22165.311     5544.969       11.278        5.043      352.742       91.427        0.067      347.191       25.977      862.210
06/16/2013  18:03:00     -491.669     -125.625      -28.992      144.973      174.224       82.528    21017.033    30354.055     6810.828       15.826        2.909      507.464       71.492        0.020      346.998       25.645      862.194
06/16/2013  18:04:00     -511.668      -97.085      -26.506      201.114      179.130       85.735    40446.894    32087.595     7350.445       17.589        3.994      520.797       82.211        0.025      347.008       25.663      862.177
06/16/2013  18:05:00     -518.455     -129.572      -21.696      242.617      189.795       91.652    58863.005    36022.230     8400.174       19.465        5.164      534.401       97.294        0.033      347.113       25.845      862.174
06/16/2013  18:06:00     -514.542     -123.536      -26.372      244.647      168.600       82.688    59851.917    28425.916     6837.263       18.789        4.756      529.164       98.396        0.035      347.056       25.744      862.173
06/16/2013  18:07:00     -534.484      -52.576      -41.471      172.856      143.573       83.053    29879.165    20613.129     6897.815       17.376        2.870      537.064       85.739        0.025      346.989       25.630      862.209
06/16/2013  18:08:00     -475.869       12.012      -20.421      207.420      182.066       90.577    43022.995    33148.133     8204.280       15.568        4.219      476.020       89.216        0.035      347.053       25.739      862.200
06/16/2013  18:09:00     -513.208      -77.085      -30.226      200.320      109.295       76.504    40128.159    11945.319     5852.881       16.407        2.896      518.965       89.531        0.030      347.121       25.856      862.232
06/16/2013  18:10:00     -441.876      -91.623      -21.734      206.784      151.542       79.035    42759.647    22965.036     6246.584       13.803        3.599      451.275       99.289        0.048      347.034       25.709      862.248
06/16/2013  18:11:00     -171.864      -42.931       -0.797      163.070      117.492       79.006    26591.846    13804.437     6241.874        3.900        2.332      177.145       98.936        0.312      347.171       25.945      862.234
06/16/2013  18:12:00      -72.631      -57.241        6.362      122.617       86.461       61.135    15034.984     7475.486     3737.457        1.741        1.312       92.476       55.572        0.361      347.147       25.904      862.217
06/16/2013  18:13:00     -240.198      -87.509       12.946      159.871      190.102       79.714    25558.868    36138.658     6354.349        6.677        3.403      255.642       78.113        0.093      347.083       25.791      862.225
06/16/2013  18:14:00     -365.217      -31.924      -18.562      184.820      151.863       77.286    34158.419    23062.345     5973.162        9.896        3.160      366.610       76.938        0.044      347.119       25.854      862.217
06/16/2013  18:15:00     -559.116     -104.974      -17.705      164.295      182.802       85.942    26992.691    33416.486     7385.980       19.586        3.390      568.885       87.664        0.024      347.007       25.661      862.213
06/16/2013  18:16:00     -412.331     -177.915      -14.255      245.680      147.803       96.071    60358.787    21845.690     9229.633       14.664        4.572      449.077      108.344        0.058      347.060       25.753      862.222
06/16/2013  18:17:00     -492.213      -14.081      -18.294      149.205      163.014       80.596    22262.213    26573.509     6495.680       14.906        2.767      492.415       81.003        0.027      346.998       25.645      862.235
06/16/2013  18:18:00     -271.927     -161.288        1.805      187.056      163.116       91.654    34989.922    26606.734     8400.544        8.497        3.500      316.161      103.174        0.106      347.060       25.753      862.226
06/16/2013  18:19:00     -193.718      -85.676       17.974      186.681      137.139       90.126    34849.699    18806.983     8122.717        5.347        3.089      211.818      110.841        0.274      347.180       25.960      862.238
06/16/2013  18:20:00     -406.452      -76.404      -23.243      242.651      182.017       94.089    58879.488    33130.139     8852.782       13.620        5.043      413.571      112.571        0.074      347.063       25.757      862.249
06/16/2013  18:21:00     -447.938      -94.000      -20.529      182.508      176.114       79.472    33309.236    31016.213     6315.789       14.026        3.532      457.694       81.635        0.032      347.045       25.725      862.244
06/16/2013  18:22:00     -459.475       22.222      -10.328      252.349      165.295       86.038    63680.090    27322.346     7402.482       15.504        4.920      460.012      104.966        0.052      346.958       25.576      862.292
06/16/2013  18:23:00     -324.301      -40.822        2.514      154.302      140.495       82.168    23809.024    19738.832     6751.606        7.856        2.515      326.860       70.027        0.046      347.029       25.699      862.291
06/16/2013  18:24:00     -529.570     -145.227      -18.565      228.602      170.559       93.446    52258.656    29090.380     8732.216       19.596        4.504      549.123      107.278        0.038      346.927       25.524      862.313
06/16/2013  18:25:00     -417.341      -49.413      -16.979      170.030      154.446       76.122    28910.345    23853.570     5794.580       11.772        2.928      420.257       82.921        0.039      346.948       25.559      862.323
06/16/2013  18:26:00     -216.486        5.172        9.555      156.320      116.251       62.367    24435.932    13514.235     3889.643        4.440        2.092      216.548       58.249        0.072      347.115       25.849      862.327
06/16/2013  18:27:00     -127.973      -82.294       18.855      141.115      140.962       71.825    19913.454    19870.201     5158.866        3.421        2.247      152.149       80.784        0.282      347.139       25.889      862.334
06/16/2013  18:28:00     -391.386     -163.479      -16.104      191.846      139.151       76.786    36804.837    19363.002     5896.149       12.110        3.103      424.156       63.976        0.023      346.947       25.558      862.351
06/16/2013  18:29:00     -370.791     -167.731      -18.556      215.304      193.670       94.141    46355.638    37508.119     8862.546       12.933        4.636      406.964      110.184        0.073      346.860       25.407      862.350
06/16/2013  18:30:00     -153.763      -51.698       19.191      176.929      108.039       77.722    31303.844    11672.488     6040.659        3.784        2.451      162.222       90.823        0.313      347.006       25.662      862.348
06/16/2013  18:31:00     -234.816     -115.239        8.625      187.567      182.288       89.105    35181.566    33228.944     7939.776        7.241        3.818      261.569      104.173        0.159      346.954       25.572      862.366
06/16/2013  18:32:00     -348.877     -178.031      -15.880      157.020      152.750       75.904    24655.417    23332.646     5761.362       10.370        2.687      391.676       78.015        0.040      346.819       25.337      862.397
06/16/2013  18:33:00     -345.298     -106.481      -32.801      214.500      131.064       79.422    46010.049    17177.830     6307.892       10.056        3.475      361.343       96.464        0.071      346.821       25.342      862.394
06/16/2013  18:34:00     -246.685     -239.380        3.016      200.780      153.149       91.213    40312.605    23454.527     8319.867        9.511        3.604      343.739       97.561        0.081      346.781       25.274      862.397
06/16/2013  18:35:00     -298.301     -106.663        6.306      233.659      134.460       92.194    54596.469    18079.373     8499.665        9.077        4.059      316.797      110.133        0.121      346.886       25.454      862.397
06/16/2013  18:36:00     -341.760     -225.614        4.264      236.006      209.541      120.941    55698.972    43907.443    14626.702       14.095        5.712      409.514      127.710        0.097      346.777       25.264      862.387
06/16/2013  18:37:00     -391.244      -66.297      -15.598      198.763      195.657       92.037    39506.547    38281.744     8470.758       12.197        4.313      396.821       96.555        0.059      346.787       25.281      862.374
06/16/2013  18:38:00     -482.584      -51.226      -22.188      259.254      137.279       82.370    67212.423    18845.482     6784.888       16.440        4.642      485.295       97.958        0.041      346.769       25.251      862.406
06/16/2013  18:39:00     -487.394       -3.213      -16.047      219.345      145.047       98.568    48112.258    21038.598     9715.718       15.833        3.943      487.405      117.727        0.058      346.746       25.213      862.404
06/16/2013  18:40:00     -559.518     -119.963      -15.877      289.242      239.352      113.737    83660.927    57289.245    12936.138       24.076        7.694      572.234      147.155        0.066      346.719       25.164      862.411
06/16/2013  18:41:00     -598.949     -210.100      -29.818      275.379      225.564      112.693    75833.659    50879.228    12699.643       27.156        6.971      634.730      136.893        0.047      346.629       25.009      862.436
06/16/2013  18:42:00     -394.109     -132.129        3.392      224.565      200.163       80.517    50429.443    40065.326     6482.966       13.487        4.849      415.668       95.349        0.053      346.703       25.137      862.440
06/16/2013  18:43:00     -202.733      -44.440       -2.639      145.317      112.797       64.221    21117.131    12723.268     4124.297        4.052        1.898      207.547       73.523        0.125      346.886       25.453      862.459
06/16/2013  18:44:00     -246.457     -103.205        0.210      143.762       83.374       64.858    20667.398     6951.155     4206.544        5.160        1.591      267.193       68.053        0.065      346.838       25.370      862.451
06/16/2013  18:45:00     -237.602      -90.362      -18.628      113.161      100.939       51.186    12805.504    10188.647     2620.053        4.529        1.281      254.205       52.608        0.043      346.914       25.501      862.458
06/16/2013  18:46:00     -274.720      -58.417        9.273      185.005      164.571       80.410    34226.673    27083.508     6465.802        7.336        3.389      280.862       72.554        0.067      346.892       25.462      862.478
06/16/2013  18:47:00     -405.108      -73.637      -27.217      176.506      114.183       79.146    31154.366    13037.761     6264.066       11.036        2.523      411.746       85.535        0.043      346.755       25.226      862.479
06/16/2013  18:48:00     -289.132      -51.936        4.597      203.092      150.640       78.530    41246.483    22692.268     6167.026        7.820        3.505      293.760       84.766        0.083      346.815       25.330      862.471
06/16/2013  18:49:00     -439.454      -40.835      -19.181      215.439      135.265       94.963    46413.847    18296.707     9017.898       13.443        3.686      441.347      109.216        0.061      346.719       25.164      862.484
06/16/2013  18:50:00     -167.482      -88.798       12.180      137.669      107.337       61.281    18952.804    11521.160     3755.383        3.515        1.711      189.566       54.815        0.084      346.842       25.376      862.486
06/16/2013  18:51:00     -313.200     -209.607       -6.114      170.676      145.576       82.574    29130.219    21192.436     6818.512        9.959        2.857      376.867       82.155        0.048      346.698       25.130      862.482
06/16/2013  18:52:00     -231.218     -176.768       -1.024      212.438      163.543       93.033    45129.906    26746.354     8655.121        8.260        4.027      291.047      101.356        0.121      346.735       25.193      862.483
06/16/2013  18:53:00     -275.947     -172.829       -4.038      151.819      154.762       68.054    23049.085    23951.321     4631.383        7.882        2.582      325.601       66.830        0.042      346.652       25.051      862.482
06/16/2013  18:54:00     -319.474      -52.468        2.219      181.871      122.293       86.467    33077.197    14955.465     7476.543        8.015        2.775      323.754       98.933        0.093      346.727       25.180      862.509
06/16/2013  18:55:00     -382.961      -84.388      -13.143      206.044      164.646       80.346    42454.256    27108.276     6455.521       11.497        3.801      392.149       98.127        0.063      346.656       25.056      862.528
06/16/2013  18:56:00     -335.664     -245.083       -8.129      189.294      139.159       91.216    35832.256    19365.268     8320.358       11.815        3.176      415.615       91.207        0.048      346.553       24.882      862.525
06/16/2013  18:57:00      -88.895     -124.584       15.792      142.408       97.926       62.560    20279.933     9589.432     3913.731        2.872        1.689      153.047       76.156        0.248      346.739       25.201      862.540
06/16/2013  18:58:00     -332.514      -53.258       -1.931      193.862      174.432       79.968    37582.459    30426.580     6394.955        9.389        3.720      336.752       90.946        0.073      346.663       25.070      862.546
06/16/2013  18:59:00     -368.921     -102.338      -22.838      214.029      136.395       86.284    45808.498    18603.676     7444.977       10.946        3.593      382.852       65.927        0.030      346.562       24.896      862.542
06/16/2013  19:00:00     -555.272      -36.635      -41.534      249.089      195.714       89.260    62045.353    38303.991     7967.295       20.983        5.416      556.479      105.131        0.036      346.469       24.736      862.542
06/16/2013  19:01:00     -291.409     -112.750       -1.849      201.384      169.979       85.339    40555.347    28892.777     7282.774        8.717        3.837      312.461      108.210        0.120      346.579       24.924      862.566
06/16/2013  19:02:00     -280.410      -14.940      -16.963      162.006      122.092       68.917    26245.960    14906.487     4749.548        6.251        2.295      280.808       78.302        0.078      346.549       24.874      862.576
06/16/2013  19:03:00     -302.157     -105.773       -0.350      142.148      138.198       64.122    20206.131    19098.563     4111.595        7.294        2.171      320.136       68.618        0.046      346.580       24.926      862.583
06/16/2013  19:04:00     -258.006      -40.802       13.903      144.330      142.888       80.793    20831.120    20417.106     6527.506        5.809        2.389      261.212       77.375        0.088      346.599       24.960      862.602
06/16/2013  19:05:00     -122.007      -67.000       -0.840      115.817       92.434       54.456    13413.480     8544.116     2965.461        2.214        1.246      139.193       61.740        0.197      346.679       25.098      862.603
06/16/2013  19:06:00     -224.096     -121.676       -7.260      167.128      136.937       74.693    27931.905    18751.703     5579.053        5.866        2.613      254.998       92.593        0.132      346.610       24.979      862.627
06/16/2013  19:07:00     -266.140     -180.890        2.452      189.741      136.001       84.692    36001.721    18496.255     7172.752        8.260        3.084      321.795       83.568        0.067      346.546       24.870      862.621
06/16/2013  19:08:00     -445.856     -289.512      -12.428      247.573      161.262      101.479    61292.373    26005.507    10297.981       19.016        4.880      531.606      116.316        0.048      346.445       24.695      862.612
06/16/2013  19:09:00     -435.571     -168.927      -23.382      281.015      166.370       86.893    78969.287    27678.896     7550.436       16.648        5.710      467.182      107.300        0.053      346.415       24.642      862.622
06/16/2013  19:10:00     -324.359     -260.777        1.711      286.477      205.914      102.267    82068.915    42400.484    10458.599       15.404        6.746      416.189      141.969        0.116      346.447       24.698      862.604
06/16/2013  19:11:00     -169.543     -182.932       11.362      191.940      140.031       95.567    36841.077    19608.625     9132.958        6.395        3.279      249.418      104.122        0.174      346.474       24.746      862.638
06/16/2013  19:12:00     -138.998      -88.781       27.659      186.471      156.595       95.751    34771.395    24522.085     9168.254        4.820        3.423      164.932      108.210        0.430      346.473       24.744      862.662
06/16/2013  19:13:00     -557.656     -141.273      -41.691      234.181      164.084       84.928    54840.541    26923.652     7212.811       21.081        4.449      575.273       84.210        0.021      346.352       24.534      862.655
06/16/2013  19:14:00     -373.923      -63.010        3.516      199.045      183.695       97.122    39618.920    33743.780     9432.694       11.328        4.140      379.195      113.418        0.089      346.396       24.609      862.660
06/16/2013  19:15:00     -570.753     -186.228      -27.197      229.569      176.762       96.383    52701.985    31244.640     9289.764       22.719        4.662      600.366      105.131        0.031      346.261       24.375      862.680
06/16/2013  19:16:00     -347.626     -126.749      -12.657      216.143      165.762      100.750    46717.686    27477.166    10150.662       11.069        4.217      370.012      119.453        0.104      346.329       24.496      862.681
06/16/2013  19:17:00     -417.226      -79.964      -23.174      228.556      143.250       86.219    52237.838    20520.452     7433.783       13.058        4.010      424.820      108.332        0.065      346.324       24.485      862.672
06/16/2013  19:18:00     -186.660       -8.157       18.882      158.178      108.857       90.320    25020.338    11849.769     8157.722        4.014        2.251      186.838       95.935        0.264      346.412       24.639      862.675
06/16/2013  19:19:00     -276.663      -84.360       -5.479      201.573      150.826       79.342    40631.741    22748.594     6295.183        7.667        3.484      289.238       94.738        0.107      346.384       24.590      862.692
06/16/2013  19:20:00     -310.368     -104.990        6.593      211.832      189.240      101.293    44872.602    35811.727    10260.218        9.915        4.547      327.645      110.909        0.115      346.335       24.506      862.694
06/16/2013  19:21:00     -207.916      -88.856        7.691      186.647      141.768       81.134    34837.204    20098.160     6582.721        5.634        3.076      226.107       87.839        0.151      346.412       24.638      862.703
06/16/2013  19:22:00     -316.013      -88.357      -10.463      155.090      200.776       67.807    24052.888    40311.083     4597.792        8.836        3.448      328.133       68.420        0.043      346.295       24.436      862.727
06/16/2013  19:23:00     -470.410      -81.010      -22.772      204.277      190.827       91.525    41728.944    36414.983     8376.861       15.743        4.326      477.335      108.844        0.052      346.248       24.354      862.731
06/16/2013  19:24:00     -368.150     -163.192       -0.669      194.162      201.295       89.128    37698.757    40519.501     7943.755       12.415        4.308      402.698       96.965        0.058      346.231       24.326      862.731
06/16/2013  19:25:00     -450.219      -42.386      -38.124      184.642      124.966       82.506    34092.731    15616.616     6807.292       13.122        2.826      452.210       94.826        0.044      346.238       24.338      862.756
06/16/2013  19:26:00     -367.543       -2.286      -18.303      214.143      134.776       81.299    45857.225    18164.568     6609.580       10.302        3.532      367.550       96.391        0.069      346.293       24.433      862.756
06/16/2013  19:27:00     -235.764     -155.623        6.614      202.377      151.492       97.337    40956.308    22949.791     9474.503        7.660        3.669      282.494      114.468        0.164      346.272       24.397      862.752
06/16/2013  19:28:00     -339.294     -197.425       -8.420      250.624      186.277       93.449    62812.328    34699.067     8732.686       13.018        5.312      392.552      106.571        0.074      346.158       24.202      862.759
06/16/2013  19:29:00     -284.020       -2.448        3.371      262.646      221.206      105.454    68982.711    48931.966    11120.495       10.483        6.452      284.030      115.647        0.166      346.182       24.242      862.747
06/16/2013  19:30:00     -334.715     -119.482        2.094      186.996      161.894       73.963    34967.476    26209.679     5470.556        9.647        3.332      355.401       88.465        0.062      346.193       24.260      862.777
06/16/2013  19:31:00     -350.355      -70.487      -12.687      160.510      114.021       70.814    25763.593    13000.775     5014.641        8.582        2.189      357.375       78.198        0.048      346.224       24.314      862.778
06/16/2013  19:32:00     -265.823      -87.742        5.697      211.822      124.070       73.576    44868.722    15393.480     5413.480        7.202        3.284      279.929      101.900        0.133      346.257       24.371      862.776
06/16/2013  19:33:00     -473.710      -69.692      -17.445      200.291      128.700       80.208    40116.502    16563.602     6433.397       14.633        3.156      478.809       75.768        0.025      346.106       24.110      862.779
06/16/2013  19:34:00     -311.675      -88.465       -7.466      136.631      116.129       60.887    18668.148    13486.046     3707.226        7.044        1.793      323.986       69.190        0.046      346.116       24.128      862.796
06/16/2013  19:35:00     -426.467      -76.072      -14.185      204.420      147.149       80.042    41787.526    21652.874     6406.775       12.884        3.492      433.199       92.008        0.045      346.077       24.062      862.789
06/16/2013  19:36:00     -291.779      -90.812      -13.682      131.484      126.429       62.865    17287.980    15984.232     3951.953        6.539        1.861      305.584       61.567        0.041      346.144       24.176      862.789
06/16/2013  19:37:00     -354.171     -134.402       -7.889      177.063      147.875       85.243    31351.151    21866.900     7266.343       10.201        3.024      378.815       93.443        0.061      346.106       24.111      862.798
06/16/2013  19:38:00     -400.819     -159.738       -3.621      166.512      164.553       80.380    27726.126    27077.796     6460.914       12.371        3.063      431.477       85.641        0.039      346.052       24.017      862.806
06/16/2013  19:39:00     -337.324      -61.337      -22.574      168.795      149.837       65.429    28491.661    22451.175     4280.920        8.663        2.761      342.855       72.162        0.044      346.097       24.096      862.814
06/16/2013  19:40:00     -358.388      -19.079      -22.859      136.118      114.973       61.667    18528.020    13218.884     3802.841        8.243        1.777      358.895       73.040        0.041      346.057       24.026      862.827
06/16/2013  19:41:00     -386.444      -22.048      -19.307      165.106      133.033       78.364    27260.057    17697.681     6140.980       10.064        2.555      387.072       86.690        0.050      346.069       24.046      862.831
06/16/2013  19:42:00     -276.360      -67.691      -20.532      165.088      142.286       72.491    27253.934    20245.438     5254.903        6.706        2.638      284.529       73.357        0.066      346.026       23.973      862.826
06/16/2013  19:43:00     -235.792      -22.895       -2.918      126.086      100.376       62.439    15897.575    10075.276     3898.673        4.300        1.494      236.901       61.373        0.067      346.053       24.021      862.841
06/16/2013  19:44:00     -303.822      -16.479       -9.432      131.527      148.613       64.983    17299.244    22085.716     4222.761        6.813        2.180      304.269       63.717        0.044      346.011       23.949      862.860
06/16/2013  19:45:00     -402.072      -78.204      -14.599      206.465      141.551       81.701    42627.770    20036.576     6675.079       11.865        3.467      409.606       95.810        0.055      345.990       23.912      862.866
06/16/2013  19:46:00     -399.502     -115.115      -13.399      159.209      113.389       71.273    25347.626    12857.114     5079.772       10.815        2.164      415.756       85.373        0.042      345.948       23.840      862.866
06/16/2013  19:47:00     -458.143     -115.924      -49.770      105.841      145.253       69.993    11202.361    21098.390     4899.020       13.150        1.860      472.582       40.517        0.007      345.983       23.902      862.887
06/16/2013  19:48:00     -411.194     -150.178      -26.448      195.938      123.123       84.143    38391.677    15159.349     7080.064       12.647        3.032      437.760       99.882        0.052      345.947       23.837      862.896
06/16/2013  19:49:00     -310.004      -87.218       -4.181      144.412      104.698       59.185    20854.775    10961.600     3502.848        6.952        1.766      322.039       61.112        0.036      345.947       23.837      862.905
06/16/2013  19:50:00     -461.132      -67.423      -17.765      193.677      159.278       85.641    37510.616    25369.332     7334.365       14.385        3.511      466.035       91.541        0.039      345.923       23.797      862.909
06/16/2013  19:51:00     -276.663     -111.331       -9.655      153.782       98.506       70.740    23648.755     9703.442     5004.197        6.369        1.918      298.223       80.742        0.073      345.919       23.791      862.929
06/16/2013  19:52:00     -399.450     -147.939      -12.112      236.064      188.789       96.982    55726.161    35641.161     9405.526       14.116        5.039      425.965      105.824        0.062      345.866       23.700      862.935
06/16/2013  19:53:00     -374.790      -53.694       -8.354      195.406      180.928       88.046    38183.672    32734.832     7752.181       11.103        3.934      378.617       86.861        0.053      345.863       23.693      862.930
06/16/2013  19:54:00     -409.139      -24.651      -28.210      233.807      134.598       88.325    54665.744    18116.709     7801.300       12.467        4.029      409.881       99.495        0.059      345.841       23.656      862.925
06/16/2013  19:55:00     -240.005      -65.172       -2.814      114.847      117.632       54.743    13189.947    13837.267     2996.811        4.593        1.501      248.696       51.998        0.044      345.817       23.616      862.947
06/16/2013  19:56:00     -433.278      -64.070      -12.013      160.445      124.289       72.298    25742.691    15447.648     5226.963       11.919        2.321      437.989       77.060        0.031      345.785       23.562      862.944
06/16/2013  19:57:00     -395.137      -84.687      -30.404      184.203      148.231       74.039    33930.871    21972.502     5481.838       11.280        3.069      404.110       73.045        0.033      345.772       23.540      862.944
06/16/2013  19:58:00     -443.181       21.201       -4.533      228.781      145.221       92.841    52340.635    21089.241     8619.505       13.945        4.102      443.688      110.151        0.062      345.768       23.530      862.944
06/16/2013  19:59:00     -258.701      -98.653        5.730      152.397      109.834       68.317    23224.908    12063.425     4667.217        5.832        1.998      276.873       70.312        0.064      345.774       23.541      862.970
06/16/2013  20:00:00     -339.792      -37.027       -6.040      209.420      115.529       83.308    43856.607    13346.949     6940.305        9.049        3.207      341.803       74.343        0.047      345.745       23.493      862.975
06/16/2013  20:01:00     -362.844        9.992      -26.809      130.896      117.893       64.723    17133.835    13898.707     4189.011        8.384        1.761      362.982       77.751        0.046      345.718       23.446      862.969
06/16/2013  20:02:00     -304.678        4.446       12.890      191.344      119.340       78.609    36612.593    14242.053     6179.402        7.501        2.852      304.710       80.883        0.070      345.728       23.463      862.965
06/16/2013  20:03:00     -260.841      -83.694        9.947      212.594      164.836       69.366    45196.402    27171.068     4811.582        7.615        3.859      273.940       86.340        0.099      345.673       23.370      862.973
06/16/2013  20:04:00     -331.292     -140.628        2.264      177.339      149.546       66.149    31449.127    22364.068     4375.645        9.385        2.909      359.904       62.394        0.030      345.664       23.351      862.985
06/16/2013  20:05:00     -450.557      -47.046      -22.432      198.599      118.678       67.046    39441.562    14084.481     4495.153       13.186        2.901      453.007       74.511        0.027      345.674       23.369      862.994
06/16/2013  20:06:00     -382.662      -76.320      -20.689      215.515      207.176       85.331    46446.829    42921.908     7281.464       12.465        4.833      390.198       91.287        0.055      345.656       23.340      862.976
06/16/2013  20:07:00     -276.790      -18.907      -18.215      174.027      124.401       70.241    30285.413    15475.520     4933.780        6.399        2.535      277.435       47.390        0.029      345.665       23.353      862.996
06/16/2013  20:08:00     -400.458      -24.823      -20.422      198.711      153.931       68.708    39485.996    23694.822     4720.802       11.464        3.395      401.226       86.977        0.047      345.636       23.304      862.995
06/16/2013  20:09:00     -310.762       -8.867      -20.383      159.987      123.465       69.581    25595.992    15243.726     4841.542        7.137        2.284      310.889       75.106        0.058      345.614       23.266      863.011
06/16/2013  20:10:00     -264.663      -82.845       -0.974      190.987      117.439       70.991    36476.125    13791.905     5039.754        6.610        2.765      277.326       80.223        0.084      345.604       23.249      862.988
06/16/2013  20:11:00     -250.580     -153.773        1.959      164.545      130.609       76.278    27075.151    17058.614     5818.267        6.819        2.498      294.001       86.642        0.087      345.570       23.192      862.977
06/16/2013  20:12:00     -343.431      -33.511      -26.357      123.682      109.784       70.730    15297.146    12052.490     5002.758        7.605        1.618      345.062       57.857        0.028      345.569       23.188      862.997
06/16/2013  20:13:00     -287.380      -18.306        3.931      129.085       97.290       69.041    16662.905     9465.256     4766.612        5.691        1.545      287.962       72.237        0.063      345.555       23.166      863.008
06/16/2013  20:14:00     -287.332      -96.664        2.765      126.893      135.961       72.136    16101.712    18485.434     5203.657        6.584        1.990      303.156       67.529        0.050      345.570       23.191      862.989
06/16/2013  20:15:00     -257.735      -63.347      -14.578      147.444      116.943       62.239    21739.751    13675.655     3873.632        5.496        1.964      265.405       76.882        0.084      345.515       23.096      863.015
06/16/2013  20:16:00     -483.739        6.094      -36.773      199.271      180.673       76.534    39709.005    32642.659     5857.440       15.678        3.910      483.777       93.425        0.037      345.522       23.108      863.020
06/16/2013  20:17:00     -356.642      -54.373       -9.570      183.554      128.522       85.526    33692.243    16517.978     7314.728        9.387        2.876      360.763      100.771        0.078      345.500       23.071      863.022
06/16/2013  20:18:00     -395.176     -179.236      -19.683      135.891      122.663       65.271    18466.298    15046.093     4260.256       11.322        1.889      433.923       56.040        0.017      345.500       23.070      863.016
06/16/2013  20:19:00     -272.396      -42.728       -4.964      132.925       90.074       60.562    17668.951     8113.382     3667.806        5.274        1.473      275.727       73.604        0.071      345.440       22.966      863.043
06/16/2013  20:20:00     -314.129      -64.736      -12.475      151.804      123.592       72.015    23044.596    15274.898     5186.139        7.326        2.175      320.730       76.395        0.057      345.426       22.944      863.045
06/16/2013  20:21:00     -231.246      -10.323       -6.950      106.178       85.341       59.364    11273.872     7283.030     3524.137        3.785        1.104      231.477       55.194        0.057      345.418       22.932      863.038
06/16/2013  20:22:00     -289.193      -65.059      -18.660      115.915       91.202       58.638    13436.354     8317.791     3438.379        5.670        1.260      296.421       49.063        0.027      345.406       22.908      863.045
06/16/2013  20:23:00     -334.514       -1.265      -22.777      146.104       85.990       52.063    21346.313     7394.242     2710.555        7.193        1.573      334.517       55.159        0.027      345.389       22.883      863.037
06/16/2013  20:24:00     -333.410     -156.177       -5.206      115.973      105.821       57.982    13449.793    11198.029     3361.950        8.179        1.400      368.176       58.381        0.025      345.384       22.872      863.048
06/16/2013  20:25:00     -264.870      -96.749       -2.724      124.793       97.615       51.024    15573.388     9528.742     2603.488        5.361        1.385      281.987       53.812        0.036      345.348       22.809      863.061
06/16/2013  20:26:00     -312.276     -136.860        2.158      138.183       86.610       60.209    19094.631     7501.321     3625.079        7.323        1.511      340.950       67.555        0.039      345.305       22.737      863.055
06/16/2013  20:27:00     -211.944     -112.731       -7.954       81.277       63.807       38.242     6605.984     4071.303     1462.434        3.491        0.607      240.059       35.793        0.022      345.306       22.737      863.066
06/16/2013  20:28:00     -203.613      -56.885       -7.799      132.863       55.467       36.712    17652.515     3076.594     1347.759        3.341        1.104      211.410       45.025        0.045      345.268       22.677      863.068
06/16/2013  20:29:00     -248.770      -73.195        0.246       87.335       75.848       40.832     7627.381     5752.849     1667.287        4.114        0.752      259.315       39.821        0.024      345.267       22.672      863.053
06/16/2013  20:30:00     -332.190     -120.006      -47.947       96.109       78.675       45.982     9236.911     6189.728     2114.347        7.229        0.877      353.202       19.390        0.003      345.267       22.670      863.048
06/16/2013  20:31:00     -303.080      -93.436      -33.463       96.972       53.118       43.164     9403.474     2821.511     1863.130        5.789        0.704      317.156       38.759        0.015      345.233       22.612      863.051
06/16/2013  20:32:00     -300.457      -78.372      -21.337       92.038       61.246       44.263     8471.051     3751.094     1959.245        5.552        0.709      310.510       32.838        0.011      345.219       22.588      863.072
06/16/2013  20:33:00     -250.541      -25.175      -21.529      125.795       92.963       55.574    15824.454     8642.179     3088.475        4.571        1.378      251.802       62.163        0.061      345.182       22.527      863.063
06/16/2013  20:34:00     -277.935      -61.395        1.158      113.659       92.686       61.912    12918.391     8590.650     3833.129        5.318        1.267      284.635       66.778        0.055      345.132       22.440      863.073
06/16/2013  20:35:00     -231.189      -67.319      -15.036       89.214       60.150       39.567     7959.180     3618.059     1565.513        3.567        0.657      240.790       44.852        0.035      345.126       22.431      863.062
06/16/2013  20:36:00     -126.879       51.212        4.456       99.000       68.140       44.594     9801.004     4643.076     1988.647        1.758        0.822      136.825       43.331        0.100      345.083       22.361      863.074
06/16/2013  20:37:00     -202.544        2.797      -12.171       79.894       45.547       36.724     6382.989     2074.493     1348.650        2.549        0.490      202.564       38.046        0.035      345.155       22.482      863.074
06/16/2013  20:38:00     -303.630       14.577      -25.185       70.490       89.850       42.961     4968.813     8073.053     1845.677        5.396        0.744      303.980       39.458        0.017      345.113       22.407      863.071
06/16/2013  20:39:00     -252.457      -43.297      -18.634      108.553       74.429       46.050    11783.737     5539.728     2120.612        4.270        0.972      256.143       46.385        0.033      345.092       22.375      863.072
06/16/2013  20:40:00     -232.078     -104.011      -18.998       63.647       68.734       37.202     4050.924     4724.347     1383.958        3.760        0.508      254.320       30.713        0.015      345.060       22.318      863.082
06/16/2013  20:41:00     -285.472       40.438      -21.938      112.749       72.788       42.432    12712.397     5298.163     1800.487        5.171        0.991      288.322       43.030        0.022      345.061       22.320      863.079
06/16/2013  20:42:00     -258.522       15.566      -14.303       87.229      124.463       44.959     7608.884    15490.920     2021.324        4.620        1.256      258.990       53.188        0.042      345.054       22.306      863.078
06/16/2013  20:43:00     -305.116      -59.908        3.377      120.212      110.023       59.772    14450.834    12104.958     3572.742        6.341        1.506      310.942       64.651        0.043      345.016       22.244      863.089
06/16/2013  20:44:00     -313.687     -124.191      -11.937      215.211      132.006       82.273    46315.591    17425.560     6768.883        9.222        3.526      337.377       98.776        0.086      345.027       22.262      863.074
06/16/2013  20:45:00     -234.737      -27.936       -9.201      118.240       76.295       49.058    13980.638     5820.895     2406.672        3.908        1.110      236.393       44.951        0.036      345.011       22.235      863.083
06/16/2013  20:46:00     -433.511     -109.242      -20.505      184.996      101.955       65.509    34223.560    10394.898     4291.464       12.459        2.445      447.063       70.963        0.025      344.983       22.187      863.083
06/16/2013  20:47:00     -205.705      -63.641       -4.614      116.529      104.295       59.140    13579.046    10877.382     3497.574        3.716        1.398      215.324       56.197        0.068      344.926       22.087      863.091
06/16/2013  20:48:00     -278.885     -126.938       -7.301      177.728      117.555       63.411    31587.371    13819.243     4020.962        7.168        2.471      306.415       74.489        0.059      344.963       22.152      863.104
06/16/2013  20:49:00     -265.353      -73.520      -12.901      109.060       74.662       47.058    11894.002     5574.390     2214.436        4.783        0.984      275.350       47.091        0.029      344.939       22.109      863.118
06/16/2013  20:50:00     -348.614     -164.556       -9.395      172.413      132.849       76.964    29726.315    17648.727     5923.410       10.099        2.665      385.500       84.482        0.048      344.941       22.114      863.103
06/16/2013  20:51:00     -340.513     -123.476      -11.161      159.022      115.261       63.948    25288.056    13285.030     4089.316        8.698        2.133      362.209       73.378        0.041      344.901       22.045      863.112
06/16/2013  20:52:00     -285.388      -53.715        4.690      133.217      124.951       69.301    17746.715    15612.740     4802.600        6.125        1.908      290.399       68.277        0.055      344.882       22.012      863.116
06/16/2013  20:53:00     -387.009      -60.700       -9.994      149.469      128.161       69.434    22340.957    16425.304     4821.107        9.857        2.179      391.741       70.375        0.032      344.891       22.028      863.138
06/16/2013  20:54:00     -240.575      -46.051       -0.676      128.376      107.135       61.089    16480.495    11477.982     3731.821        4.584        1.585      244.943       65.090        0.071      344.854       21.968      863.146
06/16/2013  20:55:00     -230.667      -92.359       25.004      171.836      117.250       68.993    29527.767    13747.514     4760.077        5.519        2.402      248.470       76.362        0.094      344.816       21.901      863.130
06/16/2013  20:56:00     -230.851      -67.854       -2.064      127.525       96.784       63.964    16262.654     9367.175     4091.453        4.380        1.486      240.617       64.004        0.071      344.843       21.946      863.126
06/16/2013  20:57:00     -326.393      -61.188      -15.014      177.604      122.216       66.600    31543.050    14936.675     4435.517        8.070        2.546      332.078       74.453        0.050      344.810       21.891      863.139
06/16/2013  20:58:00     -386.567     -156.482      -36.698      155.375      166.408       71.710    24141.255    27691.458     5142.339       11.611        2.849      417.038       54.974        0.017      344.819       21.904      863.148
06/16/2013  20:59:00     -292.915     -125.361       -1.199      153.277      121.873       72.103    23493.919    14852.970     5198.826        7.252        2.177      318.614       68.922        0.047      344.765       21.811      863.162
06/16/2013  21:00:00     -219.023      -39.452       12.300      153.604      123.233       71.358    23594.097    15186.296     5091.995        4.677        2.194      222.548       79.258        0.127      344.791       21.858      863.148
06/16/2013  21:01:00     -267.227      -86.716       -1.691      151.919      109.988       63.627    23079.460    12097.458     4048.353        5.907        1.961      280.944       64.832        0.053      344.751       21.789      863.163
06/16/2013  21:02:00     -399.027      -35.816      -12.921      190.839      132.157       75.238    36419.532    17465.387     5660.750       11.010        2.977      400.631       88.998        0.049      344.707       21.714      863.153
06/16/2013  21:03:00     -276.777      -79.172       -4.822      128.056      100.397       62.555    16398.433    10079.470     3913.162        5.664        1.520      287.877       55.263        0.037      344.720       21.736      863.171
06/16/2013  21:04:00     -260.761      -94.307        4.776      132.720      150.134       79.635    17614.718    22540.292     6341.756        6.170        2.325      277.290       81.120        0.086      344.697       21.696      863.169
06/16/2013  21:05:00     -144.194       -8.616       24.359      132.021       83.370       53.260    17429.455     6950.542     2836.648        2.433        1.361      144.451       68.244        0.223      344.656       21.628      863.174
06/16/2013  21:06:00     -267.964      -19.157      -16.697      146.840      113.878       72.044    21562.130    12968.107     5190.303        5.608        1.986      268.648       68.574        0.065      344.642       21.602      863.183
06/16/2013  21:07:00     -253.611      -60.028       -2.461       98.897       94.996       58.294     9780.651     9024.332     3398.174        4.506        1.110      260.618       46.227        0.031      344.641       21.599      863.184
06/16/2013  21:08:00     -513.871     -122.107      -19.544      213.821      151.939       81.713    45719.448    23085.568     6676.964       17.740        3.774      528.180       99.182        0.035      344.649       21.613      863.179
06/16/2013  21:09:00     -447.367     -103.541      -26.817      180.984      118.732       66.819    32755.091    14097.243     4464.821       13.144        2.566      459.193       71.035        0.024      344.638       21.594      863.177
06/16/2013  21:10:00     -333.126      -70.920      -12.882      177.164      113.107       76.212    31386.965    12793.256     5808.207        8.307        2.499      340.591       91.247        0.072      344.583       21.501      863.192
06/16/2013  21:11:00     -476.564     -148.248      -31.480      140.585      136.620       74.367    19764.210    18665.078     5530.379       14.701        2.198      499.090       73.142        0.021      344.592       21.516      863.193
06/16/2013  21:12:00     -233.295      -54.827        5.605      171.068      116.219       68.269    29264.431    13506.936     4660.614        5.244        2.372      239.651       79.616        0.110      344.584       21.503      863.196
06/16/2013  21:13:00     -325.724     -170.241       -2.863      220.189      120.114       80.372    48482.992    14427.372     6459.701       10.221        3.469      367.530       93.310        0.064      344.564       21.470      863.206
06/16/2013  21:14:00     -257.497      -64.953        0.057      147.735       95.282       67.443    21825.734     9078.706     4548.601        5.298        1.773      265.562       74.843        0.079      344.533       21.417      863.215
06/16/2013  21:15:00     -396.841      -36.851       -8.675      146.430      125.785       74.012    21441.704    15821.929     5477.733       10.082        2.137      398.548       75.061        0.035      344.526       21.404      863.221
06/16/2013  21:16:00     -429.151      -43.898      -24.072      179.569      128.419       73.044    32245.140    16491.334     5335.444       12.036        2.704      431.390       74.638        0.030      344.511       21.378      863.227
06/16/2013  21:17:00     -426.943      -84.082      -15.023      164.725      108.996       72.790    27134.421    11880.125     5298.417       11.694        2.216      435.143       83.095        0.036      344.490       21.342      863.249
06/16/2013  21:18:00     -250.921      -98.855       10.932      168.509      149.055       72.755    28395.145    22217.448     5293.241        6.437        2.795      269.692       78.382        0.084      344.477       21.322      863.251
06/16/2013  21:19:00     -282.343      -77.995        5.229      165.501      112.315       59.568    27390.640    12614.588     3548.309        6.468        2.178      292.918       65.475        0.050      344.443       21.263      863.264
06/16/2013  21:20:00     -430.039     -131.249       -8.090      159.541      122.333       76.019    25453.410    14965.384     5778.844       12.420        2.310      449.622       78.077        0.030      344.459       21.290      863.274
06/16/2013  21:21:00     -170.443      -28.553        9.681      137.596      126.596       70.773    18932.557    16026.640     5008.760        3.496        1.998      172.818       62.978        0.133      344.430       21.240      863.270
06/16/2013  21:22:00     -368.876       10.993      -14.270      183.869      152.633       83.032    33807.748    23296.807     6894.232       10.018        3.200      369.040       96.821        0.069      344.442       21.259      863.268
06/16/2013  21:23:00     -329.364      -94.140      -11.553      134.871      107.347       66.062    18190.142    11523.420     4364.215        7.577        1.704      342.553       65.248        0.036      344.450       21.274      863.276
06/16/2013  21:24:00     -295.173     -116.464      -24.469       99.192      114.358       58.094     9839.029    13077.854     3374.885        6.379        1.315      317.318       37.417        0.014      344.457       21.285      863.262
06/16/2013  21:25:00     -261.862     -128.703       -6.396      162.270      138.483       72.119    26331.451    19177.447     5201.092        6.793        2.535      291.781       74.725        0.066      344.433       21.244      863.292
06/16/2013  21:26:00     -296.574     -149.819       -0.201      211.034      175.483       86.115    44535.199    30794.338     7415.752        9.656        4.137      332.268      102.112        0.094      344.420       21.224      863.309
06/16/2013  21:27:00     -324.305     -123.219       -3.180      182.152      161.429       76.595    33179.391    26059.332     5866.841        9.272        3.255      346.925       85.630        0.061      344.419       21.220      863.328
06/16/2013  21:28:00     -357.531     -162.714       -1.520      212.633      166.316       93.108    45212.932    27661.087     8669.077       11.791        4.077      392.816      107.816        0.075      344.430       21.241      863.341
06/16/2013  21:29:00     -219.700        9.078       20.026      177.048      106.163       81.931    31346.040    11270.681     6712.656        4.903        2.466      219.888       93.642        0.181      344.403       21.193      863.340
06/16/2013  21:30:00     -147.679      -31.429       -8.214      136.577       83.235       57.565    18653.267     6928.146     3313.687        2.587        1.445      150.986       48.172        0.102      344.397       21.185      863.369
06/16/2013  21:31:00     -317.350     -131.872      -26.767      184.511      175.276       85.993    34044.139    30721.572     7394.777        9.547        3.608      343.659       89.759        0.068      344.379       21.152      863.388
06/16/2013  21:32:00     -385.675     -151.632      -26.068      151.227      127.489       67.763    22869.616    16253.435     4591.786       10.806        2.186      414.412       69.261        0.028      344.371       21.139      863.402
06/16/2013  21:33:00     -313.221     -137.293        0.172      177.897      142.162       75.077    31647.196    20210.057     5636.603        8.721        2.875      341.989       76.601        0.050      344.369       21.137      863.437
06/16/2013  21:34:00     -350.453      -55.518       -9.915      217.939      118.160       74.233    47497.228    13961.857     5510.533        9.647        3.348      354.824       97.394        0.075      344.352       21.108      863.443
06/16/2013  21:35:00     -250.483      -61.139        8.191      167.821      129.337       78.504    28164.032    16728.054     6162.825        5.879        2.553      257.836       92.265        0.128      344.321       21.055      863.454
06/16/2013  21:36:00     -317.575     -113.289       -6.881      221.798      179.495       97.851    49194.403    32218.438     9574.841       10.234        4.549      337.177      116.566        0.120      344.364       21.128      863.456
06/16/2013  21:37:00     -453.200     -124.566      -24.501      162.626      143.933       88.944    26447.146    20716.750     7911.031       13.828        2.754      470.008       78.546        0.028      344.335       21.076      863.466
06/16/2013  21:38:00     -412.643     -104.640      -14.869      199.077      173.845       93.962    39631.786    30221.985     8828.899       13.005        3.934      425.704       98.053        0.053      344.327       21.064      863.481
06/16/2013  21:39:00     -428.001     -173.781      -31.318      211.766      170.543       89.531    44844.674    29084.777     8015.763       14.814        4.097      461.936       94.170        0.042      344.322       21.055      863.495
06/16/2013  21:40:00     -343.244     -108.303       -4.423      144.411      148.162       79.482    20854.605    21951.831     6317.464        8.933        2.456      359.925       76.252        0.045      344.266       20.961      863.516
06/16/2013  21:41:00     -269.267     -146.091       -0.138      194.170      139.846       78.643    37701.990    19556.862     6184.700        7.863        3.172      306.345       85.549        0.078      344.256       20.943      863.536
06/16/2013  21:42:00     -348.053     -134.231      -18.175      191.724      167.710       69.293    36758.006    28126.707     4801.526       10.457        3.484      373.040       73.880        0.039      344.257       20.945      863.558
06/16/2013  21:43:00     -378.146     -106.812        1.298      194.185      157.399       84.073    37707.697    24774.479     7068.270       11.196        3.478      392.942       90.008        0.052      344.257       20.945      863.558
06/16/2013  21:44:00     -423.510     -215.761      -15.028      167.595      137.773       80.323    28088.041    18981.497     6451.844       13.982        2.676      475.303       74.760        0.025      344.277       20.977      863.546
06/16/2013  21:45:00     -316.103     -111.565       -8.070      164.884       99.916       62.751    27186.791     9983.115     3937.629        7.676        2.055      335.213       67.571        0.041      344.256       20.942      863.553
06/16/2013  21:46:00     -344.627      -51.873      -24.638      174.574      112.113       71.308    30476.053    12569.314     5084.810        8.509        2.407      348.509       84.023        0.058      344.234       20.906      863.559
06/16/2013  21:47:00     -328.275     -111.820      -17.956      143.236      125.419       61.675    20516.545    15730.012     3803.851        8.031        2.003      346.797       65.415        0.036      344.240       20.914      863.564
06/16/2013  21:48:00     -351.477      -61.899      -14.999      124.801       88.492       64.539    15575.362     7830.792     4165.347        7.758        1.379      356.886       51.889        0.021      344.199       20.845      863.569
06/16/2013  21:49:00     -168.623      -69.037       10.850      121.756       91.052       56.981    14824.441     8290.421     3246.866        2.983        1.318      182.209       62.039        0.116      344.196       20.840      863.574
06/16/2013  21:50:00     -261.669      -17.596      -11.595      104.454      125.752       55.656    10910.723    15813.547     3097.619        4.936        1.491      262.260       41.723        0.025      344.147       20.756      863.584
06/16/2013  21:51:00     -284.336      -35.358      -17.156      135.863       91.114       52.199    18458.733     8301.818     2724.774        5.593        1.474      286.526       49.717        0.030      344.118       20.707      863.620
06/16/2013  21:52:00     -390.401      -13.859      -23.670      149.291      103.976       65.845    22287.845    10811.089     4335.591        9.529        1.872      390.647       67.425        0.030      344.176       20.806      863.614
06/16/2013  21:53:00     -347.425     -184.442      -22.467      147.540      120.012       72.529    21768.061    14402.940     5260.443        9.832        2.072      393.348       82.216        0.044      344.190       20.829      863.648
06/16/2013  21:54:00     -261.794     -100.671        8.664      158.530      150.038       76.344    25131.821    22511.487     5828.340        6.610        2.674      280.483       73.845        0.069      344.188       20.827      863.657
06/16/2013  21:55:00     -257.856      -59.923      -14.116       92.848       68.666       41.764     8620.722     4715.070     1744.204        4.268        0.754      264.728       27.691        0.011      344.147       20.756      863.689
06/16/2013  21:56:00     -257.626     -150.226       -9.038      120.675       71.556       53.698    14562.541     5120.242     2883.443        5.579        1.128      298.226       58.838        0.039      344.120       20.711      863.684
06/16/2013  21:57:00     -247.859       22.039       -6.415      180.753      108.931       65.926    32671.612    11865.913     4346.302        5.541        2.444      248.837       83.132        0.112      344.087       20.655      863.687
06/16/2013  21:58:00     -327.990      -43.366      -29.521      138.309       86.547       60.146    19129.289     7490.407     3617.551        7.028        1.512      330.844       64.955        0.039      344.106       20.686      863.693
06/16/2013  21:59:00     -177.073       24.979      -15.631       99.841       59.090       44.207     9968.299     3491.629     1954.288        2.382        0.771      178.826       47.382        0.070      344.055       20.602      863.718
06/16/2013  22:00:00     -253.227      -74.785       -5.412      158.253       95.821       68.773    25043.930     9181.683     4729.699        5.434        1.948      264.039       89.082        0.114      344.073       20.630      863.717
06/16/2013  22:01:00     -346.921     -164.333      -17.604      175.648      120.215       65.784    30852.238    14451.735     4327.546        9.864        2.482      383.874       84.668        0.049      344.104       20.682      863.727
06/16/2013  22:02:00     -123.908      -87.338       15.582      137.792      110.111       72.496    18986.589    12124.397     5255.659        2.979        1.818      151.595       75.820        0.250      344.066       20.619      863.737
06/16/2013  22:03:00     -123.626     -142.255        1.082      135.015      118.341       78.318    18229.076    14004.518     6133.696        3.694        1.918      188.467       81.231        0.186      344.064       20.614      863.753
06/16/2013  22:04:00     -166.089      -55.083        0.670      105.399       67.652       48.469    11108.875     4576.753     2349.259        2.432        0.902      174.985       46.335        0.070      344.041       20.577      863.789
06/16/2013  22:05:00     -157.865      -46.818        4.423      101.169       84.223       41.679    10235.165     7093.505     1737.121        2.310        0.953      164.661       38.595        0.055      344.040       20.573      863.822
06/16/2013  22:06:00     -199.000     -180.029      -14.248      116.940       99.760       60.906    13674.942     9952.095     3709.497        4.977        1.367      268.350       53.163        0.039      344.072       20.628      863.846
06/16/2013  22:07:00     -258.662      -84.414      -22.059      105.144      114.988       46.963    11055.174    13222.299     2205.538        5.050        1.324      272.088       55.801        0.042      344.052       20.593      863.843
06/16/2013  22:08:00      -85.558     -102.188       12.104      119.229       88.177       59.326    14215.448     7775.096     3519.573        2.170        1.276      133.276       68.326        0.263      343.992       20.493      863.866
06/16/2013  22:09:00     -120.891     -109.389        5.683      100.016       67.840       42.006    10003.241     4602.250     1764.475        2.149        0.818      163.035       48.606        0.089      343.981       20.474      863.894
06/16/2013  22:10:00      -68.659      -51.735        2.973       54.977       41.722       26.721     3022.425     1740.744      714.017        0.644        0.274       85.968       30.145        0.123      344.034       20.567      863.913
06/16/2013  22:11:00     -214.832      -85.599      -17.965      142.331       79.280       48.624    20257.981     6285.246     2364.312        4.135        1.445      231.257       66.866        0.084      344.012       20.528      863.954
06/16/2013  22:12:00     -199.364     -244.817       -8.015      110.191      101.919       55.765    12141.986    10387.466     3109.685        6.269        1.282      315.724       56.501        0.032      344.002       20.508      863.959
06/16/2013  22:13:00     -209.371     -185.367       -6.890      127.067      109.810       67.177    16146.069    12058.223     4512.719        5.547        1.636      279.638       73.884        0.070      343.962       20.439      863.993
06/16/2013  22:14:00     -153.621     -105.800        9.457      163.481      114.835       59.522    26726.081    13187.074     3542.840        3.916        2.173      186.529       79.890        0.183      343.939       20.402      864.010
06/16/2013  22:15:00     -143.724      -96.294        8.668      106.271       85.813       51.932    11293.519     7363.927     2696.937        2.568        1.068      173.000       51.945        0.090      343.922       20.373      864.044
06/16/2013  22:16:00     -197.454      -69.617       -1.601      123.927       71.240       48.376    15357.931     5075.148     2340.276        3.330        1.139      209.367       57.735        0.076      343.952       20.423      864.071
06/16/2013  22:17:00     -304.041     -141.540      -16.606      140.531      123.729       69.491    19748.841    15308.954     4828.954        7.631        1.994      335.372       73.914        0.049      343.933       20.391      864.083
06/16/2013  22:18:00     -231.357     -107.044       -4.719      109.898       98.172       60.912    12077.516     9637.655     3710.265        4.521        1.271      254.921       61.169        0.058      343.926       20.378      864.117
06/16/2013  22:19:00     -154.675     -146.224      -12.306       84.692      117.507       45.867     7172.796    13808.011     2103.772        3.427        1.154      212.852       38.400        0.033      343.947       20.415      864.128
06/16/2013  22:20:00     -144.437     -136.611      -12.440       91.565       80.326       48.926     8384.185     6452.337     2393.755        2.845        0.862      198.808       48.741        0.060      343.939       20.402      864.151
06/16/2013  22:21:00     -270.120      -30.969       -6.086      151.333      107.904       61.681    22901.561    11643.193     3804.570        5.615        1.917      271.890       61.097        0.050      343.881       20.303      864.160
06/16/2013  22:22:00     -179.830      -78.647        3.551       76.636       67.539       44.022     5873.047     4561.520     1937.935        2.545        0.619      196.276       41.417        0.045      343.877       20.296      864.169
06/16/2013  22:23:00     -161.987       -0.540       -7.558       93.898       66.332       37.697     8816.847     4399.943     1421.039        2.046        0.732      161.988       41.701        0.066      343.807       20.177      864.181
06/16/2013  22:24:00     -402.619       54.819      -42.284      108.420       95.220       44.153    11754.808     9066.894     1949.485        9.483        1.139      406.334       32.303        0.006      343.911       20.352      864.160
06/16/2013  22:25:00     -285.512      -17.017      -42.587       53.671       49.325       37.868     2880.545     2432.966     1433.977        4.518        0.337      286.018       30.403        0.011      343.871       20.284      864.193
06/16/2013  22:26:00     -232.928      -52.735       -3.200      112.731       84.530       57.590    12708.273     7145.286     3316.644        4.010        1.159      238.823       65.326        0.075      343.827       20.209      864.192
06/16/2013  22:27:00     -165.577      -58.308       -5.910      110.570       69.181       40.127    12225.831     4786.001     1610.166        2.473        0.931      175.544       31.902        0.033      343.828       20.211      864.227
06/16/2013  22:28:00     -138.597        9.439      -16.934       71.899       60.993       32.115     5169.528     3720.099     1031.389        1.475        0.496      138.918       21.916        0.025      343.798       20.162      864.249
06/16/2013  22:29:00     -270.108      -34.624      -20.124      111.369       54.163       46.871    12403.065     2933.650     2196.878        4.604        0.877      272.319       47.315        0.030      343.813       20.185      864.267
06/16/2013  22:30:00     -130.051        4.748      -11.988       68.134       62.186       33.444     4642.176     3867.052     1118.470        1.335        0.481      130.138       29.363        0.051      343.792       20.154      864.278
06/16/2013  22:31:00      -64.465       73.769        8.913       58.354       48.108       42.487     3405.146     2314.367     1805.162        0.860        0.376       97.967       32.121        0.108      343.824       20.207      864.281
06/16/2013  22:32:00     -133.426       99.799      -22.846       60.147      108.928       40.340     3617.672    11865.369     1627.309        2.269        0.856      166.620       39.828        0.057      343.861       20.270      864.301
06/16/2013  22:33:00      -40.199       31.982       13.163       50.799       46.354       29.609     2580.534     2148.702      876.679        0.421        0.280       51.369       25.038        0.238      343.771       20.118      864.333
06/16/2013  22:34:00      -43.515      -56.817       -0.424       99.940       86.528       38.593     9988.089     7487.071     1489.446        1.204        0.948       71.567       36.414        0.259      343.851       20.253      864.341
06/16/2013  22:35:00     -186.136       15.322       18.443      162.464       98.083       62.367    26394.565     9620.182     3889.608        3.755        1.995      186.765       75.831        0.165      343.870       20.283      864.329
06/16/2013  22:36:00     -143.402      -32.727      -10.082       59.849       82.402       39.813     3581.935     6790.033     1585.070        1.684        0.598      147.089       30.547        0.043      343.837       20.228      864.376
06/16/2013  22:37:00     -185.487      -56.540      -22.052       95.474       80.512       49.382     9115.242     6482.182     2438.565        2.806        0.902      193.913       53.089        0.075      343.922       20.371      864.375
06/16/2013  22:38:00      -67.934      -39.116        3.894       58.195       69.925       27.818     3386.680     4889.461      773.855        0.760        0.452       78.390       24.810        0.100      343.836       20.229      864.370
06/16/2013  22:39:00     -127.347      -97.438       -1.773       90.150       65.766       45.191     8127.088     4325.222     2042.253        2.010        0.725      160.348       45.505        0.081      343.839       20.231      864.396
06/16/2013  22:40:00     -121.385      -65.522       -9.766       58.685       35.374       23.337     3443.971     1251.290      544.635        1.218        0.262      137.940       17.883        0.017      343.830       20.218      864.411
06/16/2013  22:41:00      -86.885      -28.694        0.895       43.720       45.795       17.180     1911.469     2097.161      295.147        0.634        0.215       91.500       17.235        0.035      343.744       20.071      864.442
06/16/2013  22:42:00      -60.884       19.893      -11.591       38.624       39.533       14.731     1491.815     1562.888      217.016        0.375        0.164       64.052        8.382        0.017      343.727       20.043      864.457
06/16/2013  22:43:00      -37.815      -19.226        3.108       44.127       37.205       22.609     1947.158     1384.188      511.150        0.283        0.192       42.422       17.222        0.165      343.793       20.156      864.468
06/16/2013  22:44:00     -117.513      -70.598        0.589       56.140       53.390       25.554     3151.708     2850.453      653.000        1.272        0.333      137.089       25.813        0.035      343.757       20.094      864.491
06/16/2013  22:45:00      -62.356      -15.593      -10.019       29.314       21.031       21.319      859.295      442.317      454.503        0.299        0.088       64.276        6.677        0.011      343.848       20.249      864.486
06/16/2013  22:46:00      -28.325        5.772        3.681       33.507       12.740       11.507     1122.712      162.308      132.418        0.113        0.071       28.907       12.286        0.181      343.754       20.089      864.485
06/16/2013  22:47:00       46.470       14.778        8.305       36.449       16.277       14.194     1328.534      264.953      201.463        0.212        0.090       48.763       17.510        0.129      343.681       19.965      864.488
06/16/2013  22:48:00      -21.510       -4.400       12.520       13.932       17.309       11.308      194.113      299.590      127.877        0.063        0.031       21.956        6.699        0.093      343.572       19.778      864.517
06/16/2013  22:49:00      -69.684       -1.329        1.399       34.968       39.100       18.896     1222.770     1528.840      357.053        0.398        0.155       69.696       12.535        0.032      343.740       20.065      864.539
06/16/2013  22:50:00      -36.391       54.219       -6.593       46.070       26.331       22.289     2122.424      693.320      496.792        0.381        0.166       65.299       17.360        0.071      343.703       20.001      864.545
06/16/2013  22:51:00     -181.613        2.671      -15.263       24.164       38.242       14.586      583.876     1462.451      212.743        1.774        0.113      181.633       14.956        0.007      343.721       20.030      864.552
06/16/2013  22:52:00     -118.071      -23.395        4.951       63.355       51.862       33.582     4013.801     2689.717     1127.763        1.117        0.392      120.366       32.430        0.073      343.606       19.836      864.570
06/16/2013  22:53:00     -135.987      -43.169       -8.710       67.197       54.167       26.854     4515.482     2934.043      721.124        1.430        0.409      142.674       23.623        0.027      343.645       19.901      864.585
06/16/2013  22:54:00     -147.659      -43.207       -7.286       39.488       33.880       20.319     1559.306     1147.859      412.851        1.342        0.156      153.851       13.478        0.008      343.662       19.931      864.603
06/16/2013  22:55:00     -136.698      -37.282      -12.922       28.566       23.574       17.296      816.039      555.711      299.137        1.096        0.084      141.691       12.150        0.007      343.747       20.077      864.609
06/16/2013  22:56:00     -141.441      -60.150      -14.857       35.188       24.289       17.658     1238.185      589.949      311.802        1.299        0.107      153.699       13.874        0.008      343.689       19.979      864.623
06/16/2013  22:57:00     -171.258      -35.738      -12.738       40.995       40.796       29.288     1680.629     1664.308      857.780        1.748        0.210      174.947       16.198        0.009      343.617       19.856      864.642
06/16/2013  22:58:00      -50.101      -55.792        7.041      107.028       43.976       43.000    11454.970     1933.922     1849.016        1.045        0.762       74.986       49.250        0.431      343.749       20.080      864.629
06/16/2013  22:59:00      -40.895       20.149       -7.861       37.818       27.087       18.094     1430.202      733.690      327.395        0.232        0.125       45.589       16.258        0.127      343.828       20.215      864.619
06/16/2013  23:00:00      -84.372       37.645      -12.610       26.875       29.052       13.824      722.258      844.033      191.103        0.523        0.088       92.389        9.748        0.011      343.883       20.309      864.623
06/16/2013  23:01:00     -115.434      154.974      -23.353       79.212       76.400       35.354     6274.595     5836.916     1249.900        2.562        0.668      193.241       35.605        0.034      343.825       20.209      864.616
06/16/2013  23:02:00     -200.901      116.147      -22.475       79.148       74.572       44.430     6264.348     5560.954     1974.038        3.408        0.690      232.059       39.601        0.029      343.902       20.338      864.597
06/16/2013  23:03:00     -274.258      115.090      -41.360       92.868      112.712       52.195     8624.427    12703.957     2724.346        5.711        1.203      297.427       45.604        0.024      343.936       20.398      864.599
06/16/2013  23:04:00     -187.006       67.887      -34.098      101.860       97.685       47.633    10375.511     9542.389     2268.862        3.146        1.109      198.947       69.979        0.124      343.956       20.431      864.576
06/16/2013  23:05:00     -311.889       12.073      -36.320       71.333       64.935       39.423     5088.326     4216.589     1554.198        5.480        0.543      312.123       37.753        0.015      343.887       20.311      864.534
06/16/2013  23:06:00     -281.842      -92.251      -13.025       88.780       68.195       38.961     7881.914     4650.514     1517.974        5.108        0.703      296.556       40.640        0.019      343.786       20.140      864.506
06/16/2013  23:07:00     -311.060     -158.175      -21.785       94.522       75.297       43.726     8934.334     5669.672     1911.977        6.938        0.826      348.966       28.502        0.007      343.795       20.155      864.486
06/16/2013  23:08:00     -285.648     -103.192      -18.304      108.243       93.764       55.022    11716.574     8791.717     3027.375        5.805        1.177      303.716       42.327        0.019      343.636       19.884      864.477
06/16/2013  23:09:00     -387.330     -130.901      -12.718      151.410      111.687       59.950    22925.123    12473.971     3593.973       10.315        1.950      408.851       66.886        0.027      343.697       19.986      864.465
06/16/2013  23:10:00     -442.039      -62.958      -13.804      194.013      130.379       69.102    37641.121    16998.643     4775.028       12.947        2.971      446.500       83.529        0.035      343.774       20.118      864.425
06/16/2013  23:11:00     -391.429      -79.148      -12.057      155.685      107.613       74.198    24237.836    11580.454     5505.373       10.047        2.066      399.350       75.435        0.036      343.848       20.245      864.425
06/16/2013  23:12:00     -255.771     -101.158        1.927      136.715      114.854       69.014    18691.010    13191.380     4762.915        5.614        1.832      275.049       75.470        0.075      343.788       20.142      864.410
06/16/2013  23:13:00     -302.488      -88.689       -9.135      101.980      103.273       57.725    10399.830    10665.322     3332.202        6.192        1.220      315.222       53.522        0.029      343.765       20.103      864.404
06/16/2013  23:14:00     -264.035      -83.023      -12.613       97.239       84.374       52.882     9455.469     7119.011     2796.491        4.806        0.969      276.781       53.907        0.038      343.700       19.992      864.398
06/16/2013  23:15:00     -349.701      -76.135      -18.428      138.788      102.407       66.359    19262.103    10487.142     4403.456        8.128        1.708      357.893       71.434        0.040      343.752       20.082      864.398
06/16/2013  23:16:00     -321.077     -113.224      -17.072      116.843       79.737       58.439    13652.307     6358.030     3415.156        6.981        1.171      340.455       54.244        0.025      343.748       20.077      864.396
06/16/2013  23:17:00     -245.881      -72.671       -3.152      101.116       81.484       56.897    10224.347     6639.622     3237.312        4.292        1.005      256.395       51.913        0.041      343.739       20.059      864.382
06/16/2013  23:18:00     -289.519      -38.900       -9.793      108.669       80.434       51.843    11808.964     6469.603     2687.704        5.319        1.048      292.121       57.560        0.039      343.747       20.073      864.379
06/16/2013  23:19:00     -322.022      -48.229      -27.458       91.089       75.670       51.025     8297.149     5725.926     2603.580        6.170        0.831      325.614       47.181        0.021      343.776       20.121      864.363
06/16/2013  23:20:00     -207.944      -92.958       -6.416       95.927       76.964       43.736     9201.957     5923.462     1912.824        3.448        0.852      227.776       34.708        0.023      343.681       19.961      864.352
06/16/2013  23:21:00     -389.978      -72.381      -33.607       96.507      108.694       55.649     9313.555    11814.313     3096.827        9.133        1.211      396.639       46.600        0.014      343.644       19.897      864.345
06/16/2013  23:22:00     -315.190      -90.252       -9.439       89.147       84.685       42.613     7947.144     7171.539     1815.903        6.225        0.847      327.857       44.863        0.019      343.591       19.806      864.338
06/16/2013  23:23:00     -263.860      -40.921      -11.936       92.289       65.094       47.123     8517.337     4237.251     2220.609        4.320        0.749      267.014       50.272        0.035      343.524       19.693      864.331
06/16/2013  23:24:00     -243.041      -49.050      -17.295       80.798       73.561       45.811     6528.259     5411.260     2098.625        3.790        0.702      247.941       42.914        0.030      343.483       19.622      864.336
06/16/2013  23:25:00     -307.529      -67.201      -14.425      113.278      105.294       55.274    12831.940    11086.798     3055.190        6.313        1.349      314.786       62.635        0.040      343.547       19.732      864.346
06/16/2013  23:26:00     -216.924       -0.688        0.154       91.085       79.484       53.319     8296.424     6317.664     2842.912        3.225        0.873      216.925       53.598        0.061      343.507       19.665      864.354
06/16/2013  23:27:00     -308.257      -53.309      -16.556       85.934       97.685       43.795     7384.629     9542.263     1917.997        5.849        0.942      312.832       35.471        0.013      343.524       19.692      864.374
06/16/2013  23:28:00     -184.196       -5.549       -9.430       89.289       72.878       43.838     7972.488     5311.268     1921.779        2.462        0.760      184.279       30.191        0.027      343.446       19.561      864.387
06/16/2013  23:29:00     -220.683      -43.543      -21.399       85.999       80.373       41.761     7395.853     6459.739     1743.953        3.332        0.780      224.937       36.911        0.027      343.547       19.732      864.412
06/16/2013  23:30:00     -217.783      -48.469      -19.637       93.500       67.093       40.821     8742.188     4501.532     1666.345        3.253        0.746      223.111       28.328        0.016      343.504       19.660      864.433
06/16/2013  23:31:00     -192.642      -26.474      -14.079       82.107       55.316       42.230     6741.585     3059.821     1783.335        2.480        0.579      194.453       40.821        0.044      343.496       19.647      864.454
06/16/2013  23:32:00     -109.429       -9.427        8.390       85.611       52.691       44.141     7329.293     2776.390     1948.421        1.209        0.603      109.834       41.223        0.141      343.365       19.426      864.465
06/16/2013  23:33:00     -148.089       17.739      -16.218       71.880       65.889       36.440     5166.700     4341.352     1327.861        1.667        0.542      149.148       36.194        0.059      343.321       19.350      864.471
06/16/2013  23:34:00     -144.070       41.118      -15.379       61.826       43.128       35.051     3822.494     1860.042     1228.591        1.480        0.346      149.823       27.397        0.033      343.322       19.351      864.488
06/16/2013  23:35:00      -92.063       82.809      -14.218       69.343       78.861       31.221     4808.401     6219.039      974.737        1.377        0.600      123.826       22.957        0.034      343.227       19.189      864.488
06/16/2013  23:36:00     -138.563       56.464      -14.277       63.988       47.981       31.944     4094.516     2302.147     1020.391        1.500        0.371      149.625       29.768        0.040      343.267       19.257      864.507
06/16/2013  23:37:00     -183.006      -37.705      -19.603       59.466       48.003       50.234     3536.147     2304.285     2523.500        2.183        0.418      186.849       42.922        0.053      343.295       19.304      864.517
06/16/2013  23:38:00     -233.322      -41.516      -24.004       96.856       70.341       40.814     9381.119     4947.795     1665.778        3.636        0.800      236.987       36.607        0.024      343.368       19.428      864.515
06/16/2013  23:39:00     -151.630      -38.487      -18.417       48.329       56.960       32.377     2335.716     3244.435     1048.257        1.572        0.331      156.438       25.058        0.026      343.304       19.321      864.519
06/16/2013  23:40:00     -116.964      -18.084      -31.038       65.487       55.347       30.250     4288.484     3063.237      915.043        1.162        0.413      118.353       31.679        0.072      343.385       19.460      864.527
06/16/2013  23:41:00     -115.448      -20.286       -9.666       56.260       57.216       27.827     3165.176     3273.639      774.345        1.052        0.361      117.216       17.690        0.023      343.305       19.321      864.529
06/16/2013  23:42:00     -159.370      -24.767       -8.225       67.859       51.007       31.233     4604.907     2601.718      975.511        1.713        0.409      161.283       34.441        0.046      343.379       19.449      864.527
06/16/2013  23:43:00     -127.070      -27.237      -16.954       44.266       48.021       26.727     1959.451     2305.987      714.310        1.108        0.249      129.956       21.524        0.027      343.319       19.347      864.541
06/16/2013  23:44:00     -134.117      -16.497      -10.667       44.794       66.723       32.250     2006.533     4451.934     1040.034        1.293        0.375      135.128       21.846        0.026      343.296       19.308      864.533
06/16/2013  23:45:00     -109.116      -41.995        5.366       51.858       52.505       28.539     2689.283     2756.794      814.494        0.998        0.313      116.918       30.262        0.067      343.170       19.093      864.522
06/16/2013  23:46:00     -153.843       85.042      -27.299       44.393       75.762       29.714     1970.779     5739.941      882.925        2.012        0.430      175.783       21.691        0.015      343.330       19.364      864.519
06/16/2013  23:47:00     -111.120      -11.474      -14.169       37.774       35.045       27.347     1426.851     1228.164      747.881        0.804        0.170      111.711       20.241        0.033      343.278       19.278      864.508
06/16/2013  23:48:00      -75.774       52.526      -13.860       42.838       36.904       27.641     1835.052     1361.925      764.044        0.633        0.198       92.199       18.961        0.042      343.306       19.327      864.496
06/16/2013  23:49:00      -61.473       34.590      -12.741       43.074       49.124       25.207     1855.396     2413.210      635.387        0.502        0.245       70.537       23.634        0.112      343.323       19.355      864.493
06/16/2013  23:50:00     -136.585       66.171      -16.586       82.882       42.898       41.551     6869.390     1840.279     1726.515        1.687        0.522      151.769       38.492        0.064      343.477       19.616      864.498
06/16/2013  23:51:00      -53.078       24.102        2.436       39.813       44.716       30.911     1585.082     1999.519      955.517        0.397        0.227       58.294       24.124        0.171      343.271       19.266      864.500
06/16/2013  23:52:00      -72.702       -5.542       -6.511       24.202       22.125       17.041      585.753      489.521      290.409        0.336        0.068       72.913       13.793        0.036      343.240       19.212      864.500
06/16/2013  23:53:00      -94.405       51.434      -15.538       36.175       52.261       29.354     1308.616     2731.258      861.675        0.835        0.245      107.507       21.745        0.041      343.424       19.526      864.492
06/16/2013  23:54:00      -43.179      -12.379        6.419       27.863       41.837       19.292      776.352     1750.336      372.170        0.248        0.145       44.918       20.994        0.218      343.182       19.114      864.485
06/16/2013  23:55:00      -68.194       10.909       -5.900       23.485       39.812       19.289      551.563     1584.979      372.052        0.366        0.125       69.061       20.234        0.086      343.270       19.265      864.484
06/16/2013  23:56:00      -86.681       55.929      -15.450       37.495       45.929       31.182     1405.905     2109.460      972.343        0.768        0.224      103.158       26.629        0.067      343.392       19.470      864.482
06/16/2013  23:57:00     -132.226       -1.988       -9.648       68.125       94.096       29.474     4640.985     8854.128      868.688        1.597        0.718      132.241       32.384        0.060      343.353       19.404      864.473
06/16/2013  23:58:00     -137.119       93.074      -30.965       54.403       83.934       31.185     2959.719     7044.926      972.532        1.970        0.549      165.723       27.117        0.027      343.442       19.555      864.479
06/16/2013  23:59:00      -91.579       98.534      -22.237       35.026       49.943       28.041     1226.837     2494.298      786.324        1.155        0.225      134.520       15.417        0.013      343.422       19.523      864.483
